[[{"header":{"parameterUnit":"m.s-1","parameterCategory":1,"la1":31.0,"la2":29.5877,"lo1":-88.7671,"lo2":-86.6584,"dy":0.0162,"dx":0.0185,"nx":115,"ny":88,"refTime":"2026-04-07T00:00:00:Z","depth":0,"parameterNumber":2,"parameterNumberName":"U-component_of_WINDS"},"data":[0.0,0.0,0.0,0.0,0.0,0.0,0.0,0.0,0.0,0.0,0.0,0.0,0.0,0.0,0.0,0.0,0.0,0.0,0.0,0.0,0.0,0.0,0.0,0.0,0.0,0.0,0.0,0.0,0.0,0.0,0.0,0.0,0.0,0.0,0.0,0.0,0.0,0.0,0.0,0.0,0.0,0.0,0.0,0.0,0.0,0.0,0.0,0.0,0.0,0.0,0.0,0.0,0.0,0.0,0.0,0.0,0.0,0.0,0.0,0.0,0.0,0.0,0.0,0.0,0.0,0.0,0.0,0.0,0.0,0.0,0.0,0.0,0.0,0.0,0.0,0.0,0.0,0.0,0.0,0.0,0.0,0.0,0.0,0.0,0.0,0.0,0.0,0.0,0.0,0.0,0.0,0.0,0.0,0.0,0.0,0.0,0.0,0.0,0.0,0.0,0.0,0.0,0.0,0.0,0.0,0.0,0.0,0.0,0.0,0.0,0.0,0.0,0.0,0.0,0.0,0.0,0.0,0.0,0.0,0.0,0.0,0.0,0.0,0.0,0.0,0.0,0.0,0.0,0.0,0.0,0.0,0.0,0.0,0.0,0.0,0.0,0.0,0.0,0.0,0.0,0.0,0.0,0.0,0.0,0.0,0.0,0.0,0.0,0.0,0.0,0.0,0.0,0.0,0.0,0.0,0.0,0.0,0.0,0.0,0.0,0.0,0.0,0.0,0.0,0.0,0.0,0.0,0.0,0.0,0.0,0.0,0.0,0.0,0.0,0.0,0.0,0.0,0.0,0.0,0.0,0.0,0.0,0.0,0.0,0.0,0.0,0.0,0.0,0.0,0.0,0.0,0.0,0.0,0.0,0.0,0.0,0.0,0.0,0.0,0.0,0.0,0.0,0.0,0.0,0.0,0.0,0.0,0.0,0.0,0.0,0.0,0.0,0.0,0.0,0.0,0.0,0.0,0.0,0.0,0.0,0.0,0.0,0.0,0.0,0.0,0.0,0.0,0.0,0.0,0.0,0.0,0.0,0.0,0.0,0.0,0.0,0.0,0.0,0.0,0.0,0.0,0.0,0.0,0.0,0.0,0.0,0.0,0.0,0.0,0.0,0.0,0.0,0.0,0.0,0.0,0.0,0.0,0.0,0.0,0.0,0.0,0.0,0.0,0.0,0.0,0.0,0.0,0.0,0.0,0.0,0.0,0.0,0.0,0.0,0.0,0.0,0.0,0.0,0.0,0.0,0.0,0.0,0.0,0.0,0.0,0.0,0.0,0.0,0.0,0.0,0.0,0.0,0.0,0.0,0.0,0.0,0.0,0.0,0.0,0.0,0.0,0.0,0.0,0.0,0.0,0.0,0.0,0.0,0.0,0.0,0.0,0.0,0.0,0.0,0.0,0.0,0.0,0.0,0.0,0.0,0.0,0.0,0.0,0.0,0.0,0.0,0.0,0.0,0.0,0.0,0.0,0.0,0.0,0.0,0.0,0.0,0.0,0.0,0.0,0.0,0.0,0.0,0.0,0.0,0.0,0.0,0.0,0.0,0.0,0.0,0.0,0.0,0.0,0.0,0.0,0.0,0.0,0.0,0.0,0.0,0.0,0.0,0.0,0.0,0.0,0.0,0.0,0.0,0.0,0.0,0.0,0.0,0.0,0.0,0.0,0.0,0.0,0.0,0.0,0.0,0.0,0.0,0.0,0.0,0.0,0.0,0.0,0.0,0.0,0.0,0.0,0.0,0.0,0.0,0.0,0.0,0.0,0.0,0.0,0.0,0.0,0.0,0.0,0.0,0.0,0.0,0.0,0.0,0.0,0.0,0.0,0.0,0.0,0.0,0.0,0.0,0.0,0.0,0.0,0.0,0.0,0.0,0.0,0.0,0.0,0.0,0.0,0.0,0.0,0.0,0.0,0.0,0.0,0.0,0.0,0.0,0.0,0.0,0.0,0.0,0.0,0.0,0.0,0.0,0.0,0.0,0.0,0.0,0.0,0.0,0.0,0.0,0.0,0.0,0.0,0.0,0.0,0.0,0.0,0.0,0.0,0.0,0.0,0.0,0.0,0.0,0.0,0.0,0.0,0.0,0.0,0.0,0.0,0.0,0.0,0.0,0.0,0.0,0.0,0.0,0.0,0.0,0.0,0.0,0.0,0.0,0.0,0.0,0.0,0.0,0.0,0.0,0.0,0.0,0.0,0.0,0.0,0.0,0.0,0.0,0.0,0.0,0.0,0.0,0.0,0.0,0.0,0.0,0.0,0.0,0.0,0.0,0.0,0.0,0.0,0.0,0.0,0.0,0.0,0.0,0.0,0.0,0.0,0.0,0.0,0.0,0.0,0.0,0.0,0.0,0.0,0.0,0.0,0.0,0.0,0.0,0.0,0.0,0.0,0.0,0.0,0.0,0.0,0.0,0.0,0.0,0.0,0.0,0.0,0.0,0.0,0.0,0.0,0.0,0.0,0.0,0.0,0.0,0.0,0.0,0.0,0.0,0.0,0.0,0.0,0.0,0.0,0.0,0.0,0.0,0.0,0.0,0.0,0.0,0.0,0.0,0.0,0.0,0.0,0.0,0.0,0.0,0.0,0.0,0.0,0.0,0.0,0.0,0.0,0.0,0.0,0.0,0.0,0.0,0.0,0.0,0.0,0.0,0.0,0.0,0.0,0.0,0.0,0.0,0.0,0.0,0.0,0.0,0.0,0.0,0.0,0.0,0.0,0.0,0.0,0.0,0.0,0.0,0.0,0.0,0.0,0.0,0.0,0.0,0.0,0.0,0.0,0.0,0.0,0.0,0.0,0.0,0.0,0.0,0.0,0.0,0.0,0.0,0.0,0.0,0.0,0.0,0.0,0.0,0.0,0.0,0.0,0.0,0.0,0.0,0.0,0.0,0.0,0.0,0.0,0.0,0.0,0.0,0.0,0.0,0.0,0.0,0.0,0.0,0.0,0.0,0.0,0.0,0.0,0.0,0.0,0.0,0.0,0.0,0.0,0.0,0.0,0.0,0.0,0.0,0.0,0.0,0.0,0.0,0.0,0.0,0.0,0.0,0.0,0.0,0.0,0.0,0.0,0.0,0.0,0.0,0.0,0.0,0.0,0.0,0.0,0.0,0.0,0.0,0.0,0.0,0.0,0.0,0.0,0.0,0.0,0.0,0.0,0.0,0.0,0.0,0.0,0.0,0.0,0.0,0.0,0.0,0.0,0.0,0.0,0.0,0.0,0.0,0.0,0.0,0.0,0.0,0.0,0.0,0.0,0.0,0.0,0.0,0.0,0.0,0.0,0.0,0.0,0.0,0.0,0.0,0.0,0.0,0.0,0.0,0.0,0.0,0.0,0.0,0.0,0.0,0.0,0.0,0.0,0.0,0.0,0.0,0.0,0.0,0.0,0.0,0.0,0.0,0.0,0.0,0.0,0.0,0.0,0.0,0.0,0.0,0.0,0.0,0.0,0.0,0.0,0.0,0.0,0.0,0.0,0.0,0.0,0.0,0.0,0.0,0.0,0.0,0.0,0.0,0.0,0.0,0.0,0.0,0.0,0.0,0.0,0.0,0.0,0.0,0.0,0.0,0.0,0.0,0.0,0.0,0.0,0.0,0.0,0.0,0.0,0.0,0.0,0.0,0.0,0.0,0.0,0.0,0.0,0.0,0.0,0.0,0.0,0.0,0.0,0.0,0.0,0.0,0.0,0.0,0.0,0.0,0.0,0.0,0.0,0.0,0.0,0.0,0.0,0.0,0.0,0.0,0.0,0.0,0.0,0.0,0.0,0.0,0.0,0.0,0.0,0.0,0.0,0.0,0.0,0.0,0.0,0.0,0.0,0.0,0.0,0.0,0.0,0.0,0.0,0.0,0.0,0.0,0.0,0.0,0.0,0.0,0.0,0.0,0.0,0.0,0.0,0.0,0.0,0.0,0.0,0.0,0.0,0.0,0.0,0.0,0.0,0.0,0.0,0.0,0.0,0.0,0.0,0.0,0.0,0.0,0.0,0.0,0.0,0.0,0.0,0.0,0.0,0.0,0.0,0.0,0.0,0.0,0.0,0.0,0.0,0.0,0.0,0.0,0.0,0.0,0.0,0.0,0.0,0.0,0.0,0.0,0.0,0.0,0.0,0.0,0.0,0.0,0.0,0.0,0.0,0.0,0.0,0.0,0.0,0.0,0.0,0.0,0.0,0.0,0.0,0.0,0.0,0.0,0.0,0.0,0.0,0.0,0.0,0.0,0.0,0.0,0.0,0.0,0.0,0.0,0.0,0.0,0.0,0.0,0.0,0.0,-1.2253,0.0,0.0,0.0,0.0,0.0,0.0,0.0,0.0,0.0,0.0,0.0,0.0,0.0,0.0,0.0,0.0,0.0,0.0,0.0,0.0,0.0,0.0,0.0,0.0,0.0,0.0,0.0,0.0,0.0,0.0,0.0,0.0,0.0,0.0,0.0,0.0,0.0,0.0,0.0,0.0,0.0,0.0,0.0,0.0,0.0,0.0,0.0,0.0,0.0,0.0,0.0,0.0,0.0,0.0,0.0,0.0,0.0,0.0,0.0,0.0,0.0,0.0,0.0,0.0,0.0,0.0,0.0,0.0,0.0,0.0,0.0,0.0,0.0,0.0,0.0,0.0,0.0,0.0,0.0,0.0,0.0,0.0,0.0,0.0,0.0,0.0,0.0,0.0,0.0,0.0,0.0,0.0,0.0,0.0,0.0,0.0,0.0,0.0,0.0,0.0,0.0,0.0,0.0,0.0,0.0,0.0,0.0,0.0,0.0,0.0,-1.4503,-1.4591,-1.4818,-1.445,-1.343,0.0,0.0,0.0,0.0,0.0,0.0,0.0,0.0,0.0,0.0,0.0,0.0,0.0,0.0,0.0,0.0,0.0,0.0,0.0,0.0,0.0,0.0,0.0,0.0,0.0,0.0,0.0,0.0,0.0,0.0,0.0,0.0,0.0,0.0,0.0,0.0,0.0,0.0,0.0,0.0,0.0,0.0,0.0,0.0,0.0,0.0,0.0,0.0,0.0,0.0,0.0,0.0,0.0,0.0,0.0,0.0,0.0,0.0,0.0,0.0,0.0,0.0,0.0,0.0,0.0,0.0,0.0,0.0,0.0,0.0,0.0,0.0,0.0,0.0,0.0,0.0,0.0,0.0,0.0,0.0,0.0,0.0,0.0,0.0,0.0,0.0,0.0,0.0,0.0,0.0,0.0,0.0,0.0,0.0,0.0,0.0,0.0,0.0,0.0,0.0,0.0,0.0,0.0,0.0,0.0,0.0,0.0,0.0,0.0,0.0,0.0,0.0,-1.6304,-1.5918,-1.4653,0.0,0.0,0.0,0.0,0.0,0.0,0.0,0.0,0.0,0.0,0.0,0.0,0.0,0.0,0.0,0.0,0.0,0.0,0.0,0.0,0.0,0.0,0.0,0.0,0.0,0.0,0.0,0.0,0.0,0.0,0.0,0.0,0.0,0.0,0.0,0.0,0.0,0.0,0.0,0.0,0.0,0.0,0.0,0.0,0.0,0.0,0.0,0.0,0.0,0.0,0.0,0.0,0.0,0.0,0.0,0.0,0.0,0.0,0.0,0.0,0.0,0.0,0.0,0.0,0.0,0.0,0.0,0.0,0.0,0.0,0.0,0.0,0.0,0.0,0.0,0.0,0.0,0.0,0.0,0.0,0.0,0.0,0.0,0.0,0.0,0.0,0.0,0.0,0.0,0.0,0.0,0.0,0.0,0.0,0.0,0.0,0.0,0.0,0.0,0.0,0.0,0.0,0.0,0.0,0.0,0.0,0.0,0.0,0.0,0.0,-1.8084,-1.8713,-1.882,0.0,-1.6778,0.0,0.0,0.0,0.0,0.0,0.0,0.0,0.0,0.0,0.0,0.0,0.0,0.0,0.0,0.0,0.0,0.0,0.0,0.0,0.0,0.0,0.0,0.0,0.0,0.0,0.0,0.0,0.0,0.0,0.0,0.0,0.0,0.0,0.0,0.0,0.0,0.0,0.0,0.0,0.0,0.0,0.0,0.0,0.0,0.0,0.0,0.0,0.0,0.0,0.0,0.0,0.0,0.0,0.0,0.0,0.0,0.0,0.0,0.0,0.0,0.0,0.0,0.0,0.0,0.0,0.0,0.0,0.0,0.0,0.0,0.0,0.0,0.0,0.0,0.0,0.0,0.0,0.0,0.0,0.0,0.0,0.0,0.0,0.0,0.0,0.0,0.0,0.0,0.0,0.0,0.0,0.0,0.0,0.0,0.0,0.0,0.0,0.0,0.0,0.0,0.0,0.0,0.0,0.0,0.0,0.0,0.0,0.0,0.0,0.0,-2.0498,-2.0754,-2.0144,-1.9534,0.0,0.0,0.0,0.0,0.0,0.0,0.0,0.0,0.0,0.0,0.0,0.0,0.0,0.0,0.0,0.0,0.0,0.0,0.0,0.0,0.0,0.0,0.0,0.0,0.0,0.0,0.0,0.0,0.0,0.0,0.0,0.0,0.0,0.0,0.0,0.0,0.0,0.0,0.0,0.0,0.0,0.0,0.0,0.0,0.0,0.0,0.0,0.0,0.0,0.0,0.0,0.0,0.0,0.0,0.0,0.0,0.0,0.0,0.0,0.0,0.0,0.0,0.0,0.0,0.0,0.0,0.0,0.0,0.0,0.0,0.0,0.0,0.0,0.0,0.0,0.0,0.0,0.0,0.0,0.0,0.0,0.0,0.0,0.0,0.0,0.0,0.0,0.0,0.0,0.0,0.0,0.0,0.0,0.0,0.0,0.0,0.0,0.0,0.0,0.0,0.0,0.0,0.0,0.0,0.0,0.0,0.0,0.0,0.0,0.0,-2.1955,-2.2498,-2.2729,-2.2051,-2.131,-2.0658,0.0,0.0,0.0,0.0,0.0,0.0,0.0,0.0,0.0,0.0,0.0,0.0,0.0,0.0,0.0,0.0,0.0,0.0,0.0,0.0,0.0,0.0,0.0,0.0,0.0,0.0,0.0,0.0,0.0,0.0,0.0,0.0,0.0,0.0,0.0,0.0,0.0,0.0,0.0,0.0,0.0,0.0,0.0,0.0,0.0,0.0,0.0,0.0,0.0,0.0,0.0,0.0,0.0,0.0,0.0,0.0,0.0,0.0,0.0,0.0,0.0,0.0,0.0,0.0,0.0,0.0,0.0,0.0,0.0,0.0,0.0,0.0,0.0,0.0,0.0,0.0,0.0,0.0,0.0,0.0,0.0,0.0,0.0,0.0,0.0,0.0,0.0,0.0,0.0,0.0,0.0,0.0,0.0,0.0,0.0,0.0,0.0,0.0,0.0,0.0,0.0,0.0,0.0,0.0,0.0,0.0,0.0,0.0,-2.4002,-2.3669,-2.3983,-2.5012,-2.5146,-2.4095,0.0,0.0,0.0,0.0,0.0,0.0,0.0,0.0,0.0,0.0,0.0,0.0,0.0,0.0,0.0,0.0,0.0,0.0,0.0,0.0,0.0,0.0,0.0,0.0,0.0,0.0,0.0,0.0,0.0,0.0,0.0,0.0,0.0,0.0,0.0,0.0,0.0,0.0,0.0,0.0,0.0,0.0,0.0,0.0,0.0,0.0,0.0,0.0,0.0,0.0,0.0,0.0,0.0,0.0,0.0,0.0,0.0,0.0,0.0,0.0,0.0,0.0,0.0,0.0,0.0,0.0,0.0,0.0,0.0,0.0,0.0,0.0,0.0,0.0,0.0,0.0,0.0,0.0,0.0,0.0,0.0,0.0,0.0,0.0,0.0,0.0,0.0,0.0,0.0,0.0,0.0,0.0,0.0,0.0,0.0,0.0,0.0,0.0,0.0,0.0,0.0,0.0,0.0,0.0,0.0,0.0,0.0,0.0,0.0,-2.4658,-2.5099,-2.5855,-2.6885,-2.5467,-2.4356,0.0,0.0,0.0,0.0,0.0,0.0,0.0,0.0,0.0,0.0,0.0,0.0,0.0,0.0,0.0,0.0,0.0,0.0,0.0,0.0,0.0,0.0,0.0,0.0,0.0,0.0,0.0,0.0,0.0,0.0,0.0,0.0,0.0,0.0,0.0,0.0,0.0,0.0,0.0,0.0,0.0,0.0,0.0,0.0,0.0,0.0,0.0,0.0,0.0,0.0,0.0,0.0,0.0,0.0,0.0,0.0,0.0,0.0,0.0,0.0,0.0,0.0,0.0,0.0,0.0,0.0,0.0,0.0,0.0,0.0,0.0,0.0,0.0,0.0,0.0,0.0,0.0,0.0,0.0,0.0,0.0,0.0,0.0,0.0,0.0,0.0,0.0,0.0,0.0,0.0,0.0,0.0,0.0,0.0,0.0,0.0,0.0,0.0,0.0,0.0,0.0,0.0,0.0,0.0,0.0,0.0,0.0,0.0,0.0,-2.6031,0.0,-2.7892,-2.8392,-2.6559,-2.5255,0.0,0.0,0.0,0.0,0.0,0.0,0.0,0.0,0.0,0.0,0.0,0.0,0.0,0.0,0.0,0.0,0.0,0.0,0.0,0.0,0.0,0.0,0.0,0.0,0.0,0.0,0.0,0.0,0.0,0.0,0.0,0.0,0.0,0.0,0.0,0.0,0.0,0.0,0.0,0.0,0.0,0.0,0.0,0.0,0.0,0.0,0.0,0.0,0.0,0.0,0.0,0.0,0.0,0.0,0.0,0.0,0.0,0.0,0.0,0.0,0.0,0.0,0.0,0.0,0.0,0.0,0.0,0.0,0.0,0.0,0.0,0.0,0.0,0.0,0.0,0.0,0.0,0.0,0.0,0.0,0.0,0.0,0.0,0.0,0.0,0.0,0.0,0.0,0.0,0.0,0.0,0.0,0.0,0.0,0.0,0.0,0.0,0.0,0.0,0.0,0.0,0.0,0.0,0.0,0.0,0.0,0.0,0.0,-2.607,-2.83,-2.9499,-2.9876,-2.9506,-2.8662,-2.6891,0.0,0.0,0.0,0.0,0.0,0.0,0.0,0.0,0.0,0.0,0.0,0.0,0.0,0.0,0.0,0.0,0.0,0.0,0.0,0.0,0.0,0.0,0.0,0.0,0.0,0.0,0.0,0.0,0.0,0.0,0.0,0.0,0.0,0.0,0.0,0.0,0.0,0.0,0.0,0.0,0.0,0.0,0.0,0.0,0.0,0.0,0.0,0.0,0.0,0.0,0.0,0.0,0.0,0.0,0.0,0.0,0.0,0.0,0.0,0.0,0.0,0.0,0.0,0.0,0.0,0.0,0.0,0.0,0.0,0.0,0.0,0.0,0.0,0.0,0.0,0.0,0.0,0.0,0.0,0.0,0.0,0.0,0.0,0.0,0.0,0.0,0.0,0.0,0.0,0.0,0.0,0.0,0.0,0.0,0.0,0.0,0.0,0.0,0.0,0.0,0.0,0.0,0.0,0.0,0.0,0.0,0.0,0.0,0.0,-2.8131,-2.9351,-3.0403,-3.1185,-2.9123,-2.7658,0.0,0.0,0.0,0.0,0.0,0.0,0.0,0.0,0.0,0.0,0.0,0.0,0.0,0.0,0.0,0.0,0.0,0.0,0.0,0.0,0.0,0.0,0.0,0.0,0.0,0.0,0.0,0.0,0.0,0.0,0.0,0.0,0.0,0.0,0.0,0.0,0.0,0.0,0.0,0.0,0.0,0.0,0.0,0.0,0.0,0.0,0.0,0.0,0.0,0.0,0.0,0.0,0.0,0.0,0.0,0.0,0.0,0.0,0.0,0.0,0.0,0.0,0.0,0.0,0.0,0.0,0.0,0.0,0.0,0.0,0.0,0.0,0.0,0.0,0.0,0.0,0.0,0.0,0.0,0.0,0.0,0.0,0.0,0.0,0.0,0.0,0.0,0.0,0.0,0.0,0.0,0.0,0.0,0.0,0.0,0.0,0.0,0.0,0.0,0.0,0.0,0.0,0.0,0.0,0.0,0.0,0.0,0.0,0.0,-2.9829,-3.0778,-3.1682,-3.2468,-3.0189,-2.8688,-2.8134,0.0,0.0,0.0,0.0,0.0,0.0,0.0,0.0,0.0,0.0,0.0,0.0,0.0,0.0,0.0,0.0,0.0,0.0,0.0,0.0,0.0,0.0,0.0,0.0,0.0,0.0,0.0,0.0,0.0,0.0,0.0,0.0,0.0,0.0,0.0,0.0,0.0,0.0,0.0,0.0,0.0,0.0,0.0,0.0,0.0,0.0,0.0,0.0,0.0,0.0,0.0,0.0,0.0,0.0,0.0,0.0,0.0,0.0,0.0,0.0,0.0,0.0,0.0,0.0,0.0,0.0,0.0,0.0,0.0,0.0,0.0,0.0,0.0,0.0,0.0,0.0,0.0,0.0,0.0,0.0,0.0,0.0,0.0,0.0,0.0,0.0,0.0,0.0,0.0,0.0,0.0,0.0,0.0,0.0,0.0,0.0,0.0,0.0,0.0,0.0,0.0,0.0,0.0,0.0,0.0,0.0,0.0,0.0,-3.2882,-3.3452,-3.3659,-3.3435,-3.1787,-3.0012,0.0,0.0,0.0,0.0,0.0,0.0,0.0,0.0,0.0,0.0,0.0,0.0,0.0,0.0,0.0,0.0,0.0,0.0,0.0,0.0,0.0,0.0,0.0,0.0,0.0,0.0,0.0,0.0,0.0,0.0,0.0,0.0,0.0,0.0,0.0,0.0,0.0,0.0,0.0,0.0,0.0,0.0,0.0,0.0,0.0,0.0,0.0,0.0,0.0,0.0,0.0,0.0,0.0,0.0,0.0,0.0,0.0,0.0,0.0,0.0,0.0,0.0,0.0,0.0,0.0,0.0,0.0,0.0,0.0,0.0,0.0,0.0,0.0,0.0,0.0,0.0,0.0,0.0,0.0,0.0,0.0,0.0,0.0,0.0,0.0,0.0,0.0,0.0,0.0,0.0,0.0,0.0,0.0,0.0,0.0,0.0,0.0,0.0,0.0,0.0,0.0,0.0,0.0,0.0,0.0,0.0,0.0,0.0,0.0,-3.4027,-3.531,-3.5987,-3.6012,-3.35,-3.1769,0.0,0.0,0.0,0.0,0.0,0.0,0.0,0.0,0.0,0.0,0.0,0.0,0.0,0.0,0.0,0.0,0.0,0.0,0.0,0.0,0.0,0.0,0.0,0.0,0.0,0.0,0.0,0.0,0.0,0.0,0.0,0.0,0.0,0.0,0.0,0.0,0.0,0.0,0.0,0.0,0.0,0.0,0.0,0.0,0.0,0.0,0.0,0.0,0.0,0.0,0.0,0.0,0.0,0.0,0.0,0.0,0.0,0.0,0.0,0.0,0.0,0.0,0.0,0.0,0.0,0.0,0.0,0.0,0.0,0.0,0.0,0.0,0.0,0.0,0.0,0.0,0.0,0.0,0.0,0.0,0.0,0.0,0.0,0.0,0.0,0.0,0.0,0.0,0.0,0.0,0.0,0.0,0.0,0.0,0.0,0.0,0.0,0.0,0.0,0.0,0.0,0.0,0.0,0.0,0.0,0.0,0.0,0.0,-3.3607,-3.5054,-3.6665,-3.756,-3.7802,-3.5316,-3.3446,0.0,0.0,0.0,0.0,0.0,0.0,0.0,0.0,0.0,0.0,0.0,0.0,0.0,0.0,0.0,0.0,0.0,0.0,0.0,0.0,0.0,0.0,0.0,0.0,0.0,0.0,0.0,0.0,0.0,0.0,0.0,0.0,0.0,0.0,0.0,0.0,0.0,0.0,0.0,0.0,0.0,0.0,0.0,0.0,0.0,0.0,0.0,0.0,0.0,0.0,0.0,0.0,0.0,0.0,0.0,0.0,0.0,0.0,0.0,0.0,0.0,0.0,0.0,0.0,0.0,0.0,0.0,0.0,0.0,0.0,0.0,0.0,0.0,0.0,0.0,0.0,0.0,0.0,0.0,0.0,0.0,0.0,0.0,0.0,0.0,0.0,0.0,0.0,0.0,0.0,0.0,0.0,0.0,0.0,0.0,0.0,0.0,0.0,0.0,0.0,0.0,0.0,0.0,0.0,0.0,0.0,0.0,0.0,-3.4742,-3.6027,-3.7614,-3.8575,-3.8766,-3.6896,-3.487,0.0,0.0,0.0,0.0,0.0,0.0,0.0,0.0,0.0,0.0,0.0,0.0,0.0,0.0,0.0,0.0,0.0,0.0,0.0,0.0,0.0,0.0,0.0,0.0,0.0,0.0,0.0,0.0,0.0,0.0,0.0,0.0,0.0,0.0,0.0,0.0,0.0,0.0,0.0,0.0,0.0,0.0,0.0,0.0,0.0,0.0,0.0,0.0,0.0,0.0,0.0,0.0,0.0,0.0,0.0,0.0,0.0,0.0,0.0,0.0,0.0,0.0,0.0,0.0,0.0,0.0,0.0,0.0,0.0,0.0,0.0,0.0,0.0,0.0,0.0,0.0,0.0,0.0,0.0,0.0,0.0,0.0,0.0,0.0,0.0,0.0,0.0,0.0,0.0,0.0,0.0,0.0,0.0,0.0,0.0,0.0,0.0,0.0,0.0,0.0,0.0,0.0,0.0,0.0,0.0,0.0,0.0,0.0,-3.5744,-3.6906,-3.8093,-3.8818,-3.9013,-3.6848,-3.5016,0.0,0.0,0.0,0.0,0.0,0.0,0.0,0.0,0.0,0.0,0.0,0.0,0.0,0.0,0.0,0.0,0.0,0.0,0.0,0.0,0.0,0.0,0.0,0.0,0.0,0.0,0.0,0.0,0.0,0.0,0.0,0.0,0.0,0.0,0.0,0.0,0.0,0.0,0.0,0.0,0.0,0.0,0.0,0.0,0.0,0.0,0.0,0.0,-1.8272,0.0,0.0,0.0,0.0,0.0,0.0,0.0,0.0,0.0,0.0,0.0,0.0,0.0,0.0,0.0,0.0,0.0,0.0,0.0,0.0,0.0,0.0,0.0,0.0,0.0,0.0,0.0,0.0,0.0,0.0,0.0,0.0,0.0,0.0,0.0,0.0,0.0,0.0,0.0,0.0,0.0,0.0,0.0,0.0,0.0,0.0,0.0,0.0,0.0,0.0,0.0,0.0,0.0,0.0,0.0,0.0,0.0,0.0,0.0,-3.6093,-3.7176,-3.8264,-3.8892,-3.9031,-3.714,-3.5466,0.0,0.0,0.0,0.0,0.0,0.0,0.0,0.0,0.0,0.0,0.0,0.0,0.0,0.0,0.0,0.0,0.0,0.0,0.0,0.0,0.0,0.0,0.0,0.0,0.0,0.0,0.0,0.0,0.0,0.0,0.0,0.0,0.0,0.0,0.0,0.0,0.0,0.0,0.0,0.0,0.0,0.0,0.0,0.0,0.0,0.0,0.0,0.0,0.0,0.0,0.0,0.0,0.0,0.0,0.0,0.0,0.0,0.0,0.0,0.0,0.0,0.0,0.0,0.0,0.0,0.0,0.0,0.0,0.0,0.0,0.0,0.0,0.0,0.0,0.0,0.0,0.0,0.0,0.0,0.0,0.0,0.0,0.0,0.0,0.0,0.0,0.0,0.0,0.0,0.0,0.0,0.0,0.0,0.0,0.0,0.0,0.0,0.0,0.0,0.0,0.0,0.0,0.0,0.0,0.0,0.0,0.0,-3.4299,-3.61,-3.7374,-3.833,-3.8935,-3.9082,-3.7607,-3.601,-3.4253,0.0,0.0,0.0,0.0,0.0,0.0,0.0,0.0,0.0,0.0,0.0,0.0,0.0,0.0,0.0,0.0,0.0,0.0,0.0,0.0,0.0,0.0,0.0,0.0,0.0,0.0,0.0,0.0,0.0,0.0,0.0,0.0,0.0,0.0,0.0,0.0,0.0,0.0,-1.8627,-1.9622,0.0,0.0,0.0,0.0,0.0,0.0,0.0,0.0,-2.2356,0.0,0.0,0.0,0.0,0.0,0.0,0.0,0.0,0.0,0.0,0.0,0.0,0.0,0.0,0.0,0.0,0.0,0.0,0.0,0.0,0.0,0.0,0.0,0.0,0.0,0.0,0.0,0.0,0.0,0.0,0.0,0.0,0.0,0.0,0.0,0.0,0.0,0.0,0.0,0.0,0.0,0.0,0.0,0.0,0.0,0.0,0.0,0.0,0.0,0.0,0.0,0.0,0.0,0.0,0.0,0.0,-3.3671,-3.4501,-3.5994,-3.8125,-3.8752,-3.9092,-3.9082,-3.7974,-3.637,-3.4315,0.0,0.0,0.0,0.0,0.0,0.0,0.0,0.0,0.0,0.0,0.0,0.0,0.0,0.0,0.0,0.0,0.0,0.0,0.0,0.0,0.0,0.0,0.0,0.0,0.0,0.0,0.0,0.0,0.0,0.0,0.0,0.0,0.0,0.0,0.0,0.0,0.0,0.0,0.0,-2.2554,-2.316,0.0,0.0,0.0,0.0,0.0,0.0,0.0,0.0,-2.2498,0.0,0.0,0.0,0.0,0.0,0.0,0.0,0.0,0.0,0.0,0.0,0.0,0.0,0.0,0.0,0.0,0.0,0.0,0.0,0.0,0.0,0.0,0.0,0.0,0.0,0.0,0.0,0.0,0.0,0.0,0.0,0.0,0.0,0.0,0.0,0.0,0.0,0.0,0.0,0.0,0.0,0.0,0.0,0.0,0.0,0.0,0.0,0.0,0.0,0.0,0.0,0.0,0.0,0.0,0.0,-3.3317,-3.4609,-3.6188,-3.8112,-3.8257,-3.8227,-3.8088,-3.6541,-3.4961,0.0,0.0,0.0,0.0,0.0,0.0,0.0,0.0,0.0,0.0,0.0,0.0,0.0,0.0,0.0,0.0,0.0,0.0,0.0,0.0,0.0,0.0,0.0,0.0,0.0,0.0,0.0,0.0,0.0,0.0,0.0,0.0,0.0,0.0,0.0,0.0,0.0,0.0,0.0,0.0,-2.3656,-2.4305,-2.456,0.0,0.0,0.0,0.0,0.0,0.0,-2.4116,-2.3668,0.0,0.0,0.0,0.0,0.0,0.0,0.0,0.0,0.0,0.0,0.0,0.0,0.0,0.0,0.0,0.0,0.0,0.0,0.0,0.0,0.0,0.0,0.0,0.0,0.0,0.0,0.0,0.0,0.0,0.0,0.0,0.0,0.0,0.0,0.0,0.0,0.0,0.0,0.0,0.0,0.0,0.0,0.0,0.0,0.0,0.0,0.0,0.0,0.0,0.0,0.0,0.0,0.0,0.0,0.0,-3.2705,-3.4455,-3.6109,-3.7658,-3.7536,-3.7301,-3.6936,-3.5241,-3.381,0.0,0.0,0.0,0.0,0.0,0.0,0.0,0.0,0.0,0.0,0.0,0.0,0.0,0.0,0.0,0.0,0.0,0.0,0.0,0.0,0.0,0.0,0.0,0.0,0.0,0.0,0.0,0.0,0.0,0.0,0.0,0.0,0.0,0.0,0.0,0.0,0.0,0.0,0.0,0.0,0.0,-2.5358,-2.5529,-2.5728,0.0,0.0,0.0,0.0,-2.6386,-2.5918,0.0,0.0,0.0,0.0,0.0,0.0,0.0,0.0,0.0,0.0,0.0,0.0,0.0,0.0,0.0,0.0,0.0,0.0,0.0,0.0,0.0,0.0,0.0,0.0,0.0,0.0,0.0,0.0,0.0,0.0,0.0,0.0,0.0,0.0,0.0,0.0,0.0,0.0,0.0,0.0,0.0,0.0,0.0,0.0,0.0,0.0,0.0,0.0,0.0,0.0,0.0,0.0,0.0,0.0,0.0,0.0,-3.2435,-3.3755,-3.5186,-3.6763,-3.7108,-3.6894,-3.617,-3.5696,-3.4557,0.0,0.0,0.0,0.0,0.0,0.0,0.0,0.0,0.0,0.0,0.0,0.0,0.0,0.0,0.0,0.0,0.0,0.0,0.0,0.0,0.0,0.0,0.0,0.0,0.0,0.0,0.0,0.0,0.0,0.0,0.0,0.0,0.0,0.0,0.0,0.0,0.0,0.0,0.0,0.0,0.0,-2.7232,-2.5939,-2.6407,-2.6895,0.0,0.0,-2.7364,-2.7988,-2.823,0.0,0.0,0.0,0.0,0.0,0.0,0.0,0.0,0.0,0.0,0.0,0.0,0.0,0.0,0.0,0.0,0.0,0.0,0.0,0.0,0.0,0.0,0.0,0.0,0.0,0.0,0.0,0.0,0.0,0.0,0.0,0.0,0.0,0.0,0.0,0.0,0.0,0.0,0.0,0.0,0.0,0.0,0.0,0.0,0.0,0.0,0.0,0.0,0.0,0.0,0.0,0.0,0.0,0.0,0.0,-2.9531,-3.1633,-3.3086,-3.4392,-3.551,-3.5409,-3.513,-3.4709,-3.3876,-3.2862,0.0,0.0,0.0,0.0,0.0,0.0,0.0,0.0,0.0,0.0,0.0,0.0,0.0,0.0,0.0,0.0,0.0,0.0,0.0,0.0,0.0,0.0,0.0,0.0,0.0,0.0,0.0,0.0,0.0,0.0,0.0,0.0,0.0,0.0,0.0,0.0,0.0,0.0,0.0,0.0,0.0,0.0,-2.7499,-2.794,0.0,0.0,0.0,-2.8889,-2.9183,0.0,0.0,0.0,0.0,0.0,0.0,0.0,0.0,0.0,0.0,0.0,0.0,0.0,0.0,0.0,0.0,0.0,0.0,0.0,0.0,0.0,0.0,0.0,0.0,0.0,0.0,0.0,0.0,0.0,0.0,0.0,0.0,0.0,0.0,0.0,0.0,0.0,0.0,0.0,0.0,0.0,0.0,0.0,0.0,0.0,0.0,0.0,0.0,0.0,0.0,0.0,0.0,0.0,0.0,0.0,0.0,0.0,-3.1009,-3.2563,-3.3666,-3.4337,-3.3988,-3.3651,-3.3353,-3.242,0.0,0.0,0.0,0.0,0.0,0.0,0.0,0.0,0.0,0.0,0.0,0.0,0.0,0.0,0.0,0.0,0.0,0.0,0.0,0.0,0.0,0.0,0.0,0.0,0.0,0.0,0.0,-1.8253,0.0,0.0,0.0,0.0,0.0,0.0,0.0,0.0,0.0,0.0,0.0,0.0,0.0,0.0,-2.7627,-2.8463,-2.9056,-2.9818,0.0,0.0,-3.0208,-3.0283,-2.9308,-2.8064,0.0,0.0,0.0,0.0,0.0,0.0,0.0,0.0,0.0,0.0,0.0,0.0,0.0,0.0,0.0,0.0,0.0,0.0,0.0,0.0,0.0,0.0,0.0,0.0,0.0,0.0,0.0,0.0,0.0,0.0,0.0,0.0,0.0,0.0,0.0,0.0,0.0,0.0,0.0,0.0,0.0,0.0,0.0,0.0,0.0,0.0,0.0,0.0,0.0,0.0,0.0,0.0,0.0,0.0,-2.8677,-3.0768,-3.2163,-3.3052,-3.3473,-3.3511,-3.3161,-3.2441,-3.2318,-3.1626,0.0,0.0,0.0,0.0,0.0,0.0,0.0,0.0,0.0,0.0,0.0,0.0,0.0,0.0,0.0,0.0,0.0,0.0,0.0,0.0,0.0,0.0,0.0,0.0,0.0,0.0,0.0,0.0,0.0,0.0,0.0,0.0,0.0,0.0,0.0,0.0,0.0,0.0,0.0,0.0,0.0,-2.7888,-2.8025,-2.9373,-3.0674,0.0,-3.1365,-3.1008,-3.125,-3.1176,-3.0155,-2.7217,0.0,0.0,0.0,0.0,0.0,0.0,0.0,0.0,0.0,0.0,0.0,0.0,0.0,0.0,0.0,0.0,0.0,0.0,0.0,0.0,0.0,0.0,0.0,0.0,0.0,0.0,0.0,0.0,0.0,0.0,0.0,0.0,0.0,0.0,0.0,0.0,0.0,0.0,0.0,0.0,0.0,0.0,0.0,0.0,0.0,0.0,0.0,0.0,0.0,0.0,0.0,0.0,0.0,-2.759,-2.944,-3.0857,-3.1661,-3.1818,-3.1822,-3.1724,-3.1507,-3.1102,-3.0454,0.0,0.0,0.0,0.0,0.0,0.0,0.0,0.0,0.0,0.0,0.0,0.0,0.0,0.0,0.0,0.0,0.0,0.0,0.0,0.0,0.0,0.0,0.0,0.0,0.0,0.0,0.0,0.0,-2.0638,-2.0802,-2.1006,0.0,0.0,0.0,0.0,0.0,0.0,0.0,0.0,0.0,0.0,-2.7986,-2.8699,-2.9891,0.0,0.0,-3.1517,-3.1357,-3.1123,-3.0675,-2.9782,-2.8137,-2.7642,0.0,0.0,0.0,0.0,0.0,0.0,0.0,0.0,0.0,0.0,0.0,0.0,0.0,0.0,0.0,0.0,0.0,0.0,0.0,0.0,0.0,0.0,0.0,0.0,0.0,0.0,0.0,0.0,0.0,0.0,0.0,0.0,0.0,0.0,0.0,0.0,0.0,0.0,0.0,0.0,0.0,0.0,0.0,0.0,0.0,0.0,0.0,0.0,0.0,0.0,0.0,0.0,-2.6811,-2.8576,-2.9969,-3.0703,-3.0804,-3.0804,-3.0845,-3.0925,-3.0282,-2.9616,0.0,0.0,0.0,0.0,0.0,0.0,0.0,0.0,0.0,0.0,0.0,0.0,0.0,0.0,0.0,0.0,0.0,0.0,0.0,0.0,0.0,0.0,0.0,0.0,0.0,0.0,0.0,0.0,-2.1549,-2.1616,-2.1342,0.0,0.0,0.0,0.0,0.0,0.0,0.0,0.0,0.0,0.0,-2.7716,-2.9097,-3.0018,-3.0717,-3.1208,-3.1322,-3.1235,-3.0959,-3.0273,-2.9375,-2.8366,0.0,0.0,0.0,0.0,0.0,0.0,0.0,0.0,0.0,0.0,0.0,0.0,0.0,0.0,0.0,0.0,0.0,0.0,0.0,0.0,0.0,0.0,0.0,0.0,0.0,0.0,0.0,-2.5047,0.0,0.0,-2.4177,0.0,0.0,0.0,0.0,0.0,0.0,0.0,0.0,0.0,0.0,0.0,0.0,0.0,0.0,0.0,0.0,0.0,0.0,0.0,0.0,0.0,0.0,-2.6569,-2.8576,-2.9715,-3.0444,-3.0784,-3.0804,-3.0784,-3.0751,-3.0121,-2.9403,-2.8594,0.0,0.0,0.0,0.0,0.0,0.0,0.0,0.0,0.0,0.0,0.0,0.0,0.0,0.0,0.0,0.0,0.0,0.0,0.0,0.0,0.0,0.0,0.0,0.0,0.0,0.0,-2.2669,-2.2167,-2.168,0.0,0.0,0.0,0.0,0.0,0.0,0.0,0.0,0.0,0.0,-2.6239,-2.7139,-2.9012,-2.956,-3.0084,-3.1086,-3.083,-3.065,-3.0922,-3.0374,-2.9355,0.0,0.0,0.0,0.0,0.0,0.0,0.0,0.0,0.0,0.0,0.0,0.0,0.0,0.0,0.0,0.0,0.0,0.0,0.0,0.0,0.0,0.0,0.0,0.0,0.0,0.0,0.0,-2.5379,-2.5007,0.0,0.0,0.0,0.0,0.0,0.0,0.0,0.0,0.0,0.0,0.0,-2.4696,-2.5601,0.0,0.0,0.0,0.0,0.0,0.0,0.0,0.0,0.0,0.0,0.0,0.0,-2.6238,-2.7878,-2.8837,-2.9575,-3.0161,-3.0194,-3.0194,-3.0194,-2.9505,-2.8405,-2.6844,0.0,0.0,0.0,0.0,0.0,0.0,0.0,0.0,0.0,0.0,0.0,0.0,0.0,0.0,0.0,0.0,0.0,0.0,0.0,0.0,0.0,0.0,0.0,0.0,0.0,-2.241,0.0,0.0,0.0,0.0,0.0,0.0,0.0,0.0,0.0,0.0,0.0,-2.4826,-2.581,-2.6523,-2.7317,-2.8287,-2.9048,-2.9493,0.0,0.0,0.0,0.0,0.0,0.0,0.0,0.0,0.0,0.0,0.0,0.0,0.0,0.0,-2.7677,-2.6189,-2.4849,-2.4159,-2.4681,0.0,0.0,0.0,0.0,0.0,0.0,0.0,0.0,0.0,0.0,0.0,0.0,0.0,0.0,-2.5345,0.0,-2.4756,0.0,0.0,0.0,0.0,0.0,0.0,0.0,0.0,-2.476,-2.5037,-2.509,-2.5907,-2.6097,0.0,-2.5871,-2.5308,0.0,0.0,0.0,0.0,0.0,0.0,0.0,0.0,-2.5923,-2.7347,-2.8148,-2.8876,-2.9605,-2.9637,-2.9614,-2.9637,-2.8995,-2.7724,-2.5672,-2.498,-2.4229,0.0,0.0,0.0,0.0,0.0,0.0,0.0,0.0,0.0,0.0,0.0,0.0,0.0,0.0,0.0,0.0,0.0,0.0,0.0,0.0,0.0,0.0,0.0,-2.2497,0.0,0.0,0.0,0.0,0.0,0.0,0.0,0.0,0.0,-2.3686,-2.4514,-2.548,-2.6532,-2.6964,-2.7488,-2.8264,0.0,0.0,0.0,0.0,0.0,0.0,0.0,-2.9495,-2.9361,-2.9593,-2.9526,-2.8628,-2.8686,-2.8772,-2.8362,0.0,0.0,-2.7222,-2.6114,-2.5495,-2.575,-2.4938,-2.4392,-2.4923,-2.4943,-2.4804,0.0,0.0,0.0,0.0,0.0,0.0,0.0,0.0,-2.5223,-2.4978,0.0,-2.4401,0.0,0.0,0.0,0.0,0.0,-2.5518,0.0,0.0,-2.4988,-2.5252,-2.5415,-2.5636,-2.6136,-2.693,-2.6507,-2.6301,-2.6064,-2.4305,0.0,0.0,0.0,0.0,0.0,0.0,-2.5672,-2.6914,-2.7671,-2.8365,-2.8996,-2.9005,-2.9028,-2.9019,-2.8589,-2.7402,-2.537,-2.5851,-2.5037,-2.2585,-2.3463,0.0,0.0,0.0,0.0,0.0,0.0,0.0,0.0,0.0,0.0,0.0,0.0,0.0,0.0,0.0,0.0,0.0,0.0,0.0,0.0,-2.2776,0.0,0.0,0.0,0.0,0.0,0.0,0.0,0.0,0.0,0.0,-2.511,-2.5176,-2.5898,-2.7811,0.0,0.0,0.0,0.0,-2.8533,-2.8533,-2.8724,-2.8975,-2.9152,-2.9259,-2.9123,-2.8558,0.0,0.0,-2.8595,-2.9163,-2.9509,-2.8683,-2.9236,-2.94,-2.8093,-2.712,-2.6358,-2.5628,-2.5372,-2.5374,-2.5448,-2.5968,-2.6284,-2.9278,0.0,0.0,0.0,0.0,-2.7322,-2.6834,-2.6258,-2.6139,-2.5815,-2.5433,-2.4908,0.0,0.0,0.0,0.0,0.0,0.0,-2.4748,-2.4895,-2.4976,-2.5308,-2.5743,-2.5912,-2.6242,-2.6717,-2.6845,-2.6739,-2.6442,-2.5615,-2.4726,-2.3859,0.0,0.0,0.0,0.0,-2.5553,-2.6077,-2.6796,-2.7295,-2.7611,-2.758,-2.7752,-2.8006,-2.7811,-2.7547,-2.7178,-2.5889,-2.4995,-2.4534,-2.36,0.0,0.0,0.0,0.0,0.0,0.0,0.0,0.0,0.0,0.0,0.0,0.0,0.0,0.0,0.0,0.0,0.0,0.0,0.0,-2.2843,-2.2087,-2.1976,0.0,0.0,0.0,0.0,0.0,0.0,0.0,0.0,0.0,-2.5821,-2.6336,-2.7034,0.0,0.0,-2.8911,-2.9097,-2.9112,-2.9146,-2.9146,-2.8832,0.0,-2.8688,-2.8948,-2.9116,-2.8988,-2.9295,-2.9494,-2.9289,-2.9448,-2.9542,-2.9335,-2.9604,-2.9329,-2.7876,-2.7327,-2.703,-2.6722,-2.5822,-2.5231,-2.5734,-2.57,-2.5416,-2.9801,-2.8927,-2.8509,-2.8295,-2.8294,-2.8038,-2.763,-2.7081,-2.687,-2.6574,-2.6247,-2.5522,-2.5323,-2.548,-2.5168,0.0,0.0,0.0,-2.5011,-2.4956,-2.4956,-2.5144,-2.5522,-2.5652,-2.5906,-2.6389,-2.6453,-2.639,-2.624,-2.5873,-2.5187,-2.4357,0.0,0.0,-2.4125,-2.4887,-2.5462,-2.5842,-2.6309,-2.6591,-2.6687,-2.6687,-2.6831,-2.7116,-2.7337,-2.7377,-2.7319,-2.6084,-2.5288,-2.5085,-2.3983,-2.305,0.0,0.0,0.0,0.0,0.0,0.0,0.0,0.0,0.0,0.0,0.0,-2.0085,-2.0089,0.0,0.0,0.0,-2.1595,-2.2344,-2.2605,-2.1948,0.0,0.0,0.0,0.0,0.0,0.0,0.0,-2.5428,-2.5395,-2.5595,-2.6407,-2.6924,-2.7393,-2.7877,-2.8288,-2.8638,-2.889,0.0,-2.8898,-2.8927,-2.8609,-2.8406,-2.851,-2.8713,-2.8913,-2.913,-2.927,-2.9353,-2.9384,-2.922,-2.9166,-2.9447,-2.9419,-2.8856,-2.7598,-2.7341,-2.7085,-2.6518,-2.5581,-2.5097,-2.5551,-2.5267,-2.4986,-3.0194,-3.0147,-2.9796,-2.9642,-2.9574,-2.9035,-2.8514,-2.8031,-2.7552,-2.7323,-2.7167,-2.6267,-2.5993,-2.6335,-2.6419,0.0,-2.5725,-2.6221,-2.5887,-2.4981,-2.4935,-2.4918,-2.498,-2.4969,-2.5311,-2.6045,-2.566,-2.5565,-2.5667,-2.5432,-2.5027,-2.4504,-2.4552,-2.4735,-2.5014,-2.5126,-2.5448,-2.6,-2.6059,-2.6084,-2.6104,-2.6154,-2.6199,-2.6347,-2.7046,-2.7105,-2.6411,-2.6431,-2.5918,-2.4764,-2.4517,-2.3994,-2.2991,0.0,0.0,0.0,0.0,0.0,0.0,0.0,0.0,0.0,0.0,0.0,0.0,0.0,0.0,0.0,-2.1834,0.0,-2.217,-2.2245,0.0,0.0,0.0,-2.2729,-2.3043,-2.3997,-2.4673,-2.483,0.0,0.0,-2.6836,-2.6991,-2.7164,-2.753,-2.7385,-2.7576,-2.8549,-2.8432,-2.8187,-2.8364,-2.8285,-2.8259,-2.8432,-2.851,-2.8675,-2.901,-2.9049,-2.8946,-2.8941,-2.8505,-2.8492,-2.8917,-2.8671,-2.8127,-2.7361,-2.7182,-2.6821,-2.5356,-2.5022,-2.4984,-2.506,-2.5044,-2.5057,-3.0127,-3.0061,-2.966,-2.9285,-2.8915,-2.8777,-2.8645,-2.8517,-2.8402,-2.8149,-2.7759,-2.7139,-2.6467,-2.5847,-2.5884,-2.5814,-2.5723,-2.5839,-2.5762,-2.5509,-2.5096,-2.4918,-2.489,-2.458,-2.479,-2.5476,-2.5481,-2.5583,-2.5688,-2.5389,-2.4961,-2.4524,-2.4491,-2.4474,-2.4362,-2.5268,-2.5526,-2.5239,-2.5723,-2.5723,-2.532,-2.56,-2.5749,-2.5774,-2.6384,-2.6776,-2.6886,-2.6344,-2.585,-2.5373,-2.5023,-2.4301,-2.3121,-2.2032,0.0,0.0,0.0,0.0,0.0,0.0,0.0,0.0,0.0,-2.0369,-1.9914,0.0,-2.0971,0.0,-2.114,-2.1963,-2.3396,-2.242,0.0,0.0,-2.3284,-2.3358,-2.4249,-2.4632,-2.499,-2.5375,-2.5691,-2.5983,-2.6202,-2.6327,-2.6417,-2.6576,-2.765,-2.8528,-2.8628,-2.8669,-2.8794,-2.8898,-2.8528,-2.8227,-2.8259,-2.8406,-2.86,-2.8821,-2.8368,-2.7974,-2.8084,-2.7411,-2.7032,-2.7417,-2.7401,-2.7006,-2.6438,-2.6374,-2.6095,-2.5236,-2.4984,-2.4984,-2.4984,-2.5024,-2.5044,-3.0444,-3.04,-2.9942,-2.9418,-2.9015,-2.9014,-2.9124,-2.919,-2.9116,-2.8907,-2.8609,-2.7897,-2.7116,-2.6404,-2.6342,-2.6404,-2.6342,-2.6342,-2.6267,-2.6037,-2.5739,-2.5348,-2.4912,-2.4636,-2.4603,-2.4826,-2.4909,-2.4976,-2.505,-2.4905,-2.465,-2.4187,-2.4301,-2.4171,-2.3933,-2.5162,-2.5685,-2.5402,-2.5458,-2.5317,-2.5035,-2.5213,-2.5343,-2.5346,-2.5916,-2.6195,-2.6145,-2.5753,-2.5337,-2.4946,-2.4431,-2.3853,-2.3126,-2.2015,-2.1197,0.0,0.0,0.0,0.0,0.0,0.0,0.0,0.0,0.0,0.0,0.0,-2.1145,-2.1657,-2.2055,-2.2856,-2.4238,-2.3275,-2.2958,-2.3903,-2.3567,-2.3506,-2.4184,-2.4574,-2.4895,-2.5259,-2.5527,-2.5715,-2.5807,-2.5899,-2.5972,-2.5972,-2.6924,-2.7634,-2.7755,-2.8041,-2.8353,-2.8547,-2.8337,-2.8172,-2.82,-2.8322,-2.8337,-2.813,-2.7755,-2.75,-2.7533,-2.6618,-2.6114,-2.6891,-2.6677,-2.62,-2.5896,-2.5963,-2.5801,-2.518,-2.495,-2.4964,-2.4984,-2.5031,-2.5069,-3.0795,-3.0752,-3.0225,-2.9791,-2.9406,-2.938,-2.9553,-2.9715,-2.9511,-2.9372,-2.9302,-2.8408,-2.7721,-2.7264,-2.7282,-2.7259,-2.719,-2.719,-2.7001,-2.6605,-2.6536,-2.5945,-2.5027,-2.4935,-2.4659,-2.42,-2.42,-2.4186,-2.4201,-2.4245,-2.4092,-2.3808,-2.3885,-2.3806,-2.3535,-2.4765,-2.5495,-2.566,-2.5185,-2.4987,-2.4987,-2.504,-2.5093,-2.5121,-2.5569,-2.5542,-2.5035,-2.5006,-2.4699,-2.403,-2.3578,-2.327,-2.3136,-2.1965,-2.1293,0.0,-2.0612,0.0,0.0,0.0,0.0,0.0,0.0,0.0,0.0,-2.0846,-2.1538,-2.2879,-2.3623,-2.4215,-2.4742,-2.4302,-2.4007,-2.4031,-2.3671,-2.3503,-2.3708,-2.4181,-2.4553,-2.4764,-2.5091,-2.5304,-2.547,-2.557,-2.5645,-2.5719,-2.595,-2.6287,-2.6572,-2.7106,-2.75,-2.7642,-2.7925,-2.8109,-2.8164,-2.8106,-2.7866,-2.7389,-2.7006,-2.697,-2.6935,-2.5846,-2.5368,-2.639,-2.5931,-2.5318,-2.5412,-2.5617,-2.5579,-2.4956,-2.4863,-2.4943,-2.4984,-2.5037,-2.5082,-3.0161,-3.014,-2.9659,-2.953,-2.9584,-2.908,-2.886,-2.891,-2.8868,-2.8741,-2.8589,-2.8185,-2.784,-2.7557,-2.7767,-2.7621,-2.719,-2.719,-2.7144,-2.707,-2.6657,-2.6152,-2.5555,-2.5119,-2.4659,-2.4223,-2.42,-2.4227,-2.4184,-2.3768,-2.3607,-2.3731,-2.3287,-2.322,-2.3412,0.0,0.0,0.0,-2.4603,-2.4829,-2.4996,-2.5384,-2.5602,-2.5711,-2.5372,0.0,-2.5006,-2.5006,-2.4515,-2.3568,-2.4106,0.0,0.0,0.0,0.0,0.0,0.0,0.0,0.0,0.0,0.0,0.0,-2.1539,-2.207,-2.2038,-2.2927,-2.368,-2.4055,-2.4345,-2.448,-2.4624,-2.4635,-2.4621,-2.4621,-2.4141,-2.3919,-2.4186,-2.3983,-2.3909,-2.4194,-2.4461,-2.4724,-2.5013,-2.5157,-2.5419,-2.5677,-2.5844,-2.5936,-2.6045,-2.6521,-2.7005,-2.7465,-2.781,-2.8081,-2.82,-2.7629,-2.7201,-2.6936,-2.5934,-2.5339,-2.5337,-2.4596,-2.4003,-2.4661,-2.4346,-2.4238,-2.4506,-2.4666,-2.4829,-2.4821,-2.4856,-2.4905,-2.4977,-2.4998,-2.5024,-2.8741,-2.8668,-2.845,-2.8284,0.0,-2.7863,-2.7481,-2.7194,-2.825,-2.8508,-2.8206,-2.8032,-2.7833,-2.7605,-2.7615,-2.7535,-2.7391,-2.7264,-2.719,-2.719,-2.6955,-2.6565,-2.606,-2.5555,-2.505,-2.4545,-2.4315,-2.42,-2.4177,-2.3925,-2.3731,-2.3525,-2.3034,-2.2751,-2.2654,-2.2452,-2.2834,-2.3758,-2.4079,-2.4308,-2.4394,-2.4709,-2.4908,-2.4964,-2.4666,0.0,0.0,0.0,0.0,0.0,0.0,0.0,0.0,0.0,0.0,-2.1768,-2.0961,-2.0472,-2.0523,-2.0959,-2.1274,-2.1329,-2.23,-2.2929,-2.3084,-2.3787,-2.4368,-2.4756,-2.4912,-2.5128,-2.5491,-2.5312,-2.5214,-2.5259,-2.4733,-2.4311,-2.4177,-2.4081,-2.3969,-2.3906,-2.409,-2.4431,-2.501,-2.5307,-2.556,-2.5778,-2.605,-2.6124,-2.5909,-2.619,-2.6657,-2.7085,-2.7384,-2.7452,-2.7253,-2.6958,-2.6383,-2.5838,-2.5132,-2.4766,-2.4765,-2.4063,-2.3681,-2.4147,-2.4021,-2.3801,-2.3963,-2.4127,-2.4301,-2.4534,-2.4631,-2.4761,-2.4856,-2.495,-2.5004,-2.7384,-2.7384,-2.7384,-2.7195,-2.6801,-2.6725,-2.6234,-2.561,0.0,0.0,0.0,-2.7586,-2.742,-2.717,-2.7042,-2.6995,-2.7097,-2.7031,-2.6971,-2.6962,-2.7108,-2.6915,-2.649,-2.5945,-2.544,-2.4889,-2.443,-2.42,-2.42,-2.42,-2.3994,-2.3522,-2.3075,-2.2524,-2.1927,-2.1527,-2.1916,-2.302,-2.3403,-2.3551,-2.3581,-2.3787,-2.3904,-2.3904,-2.3858,-2.3597,-2.3072,-2.31,-2.2577,-2.1483,-2.1589,-2.1589,-2.1406,-2.1379,-2.1559,-2.1998,-2.1968,-2.1913,-2.1913,-2.2098,-2.2284,-2.2417,-2.2857,-2.3247,-2.3654,-2.3969,-2.4455,-2.5066,-2.5281,-2.5609,-2.6334,-2.6014,-2.5776,-2.5901,-2.535,-2.4742,-2.435,-2.4329,-2.4325,-2.3926,-2.4086,-2.4477,-2.5146,-2.5521,-2.5778,-2.5926,-2.6091,-2.6185,-2.5751,-2.5994,-2.6418,-2.6708,-2.6922,-2.6808,-2.6292,-2.6021,-2.5575,-2.4625,-2.4292,-2.4251,-2.4265,-2.3863,-2.3732,-2.423,-2.3999,-2.3739,-2.3721,-2.3842,-2.4031,-2.4229,-2.4373,-2.453,-2.4715,-2.4827,-2.4919,-2.7384,-2.7384,-2.7384,-2.7346,-2.727,-2.6858,-2.6234,-2.5528,-2.5467,-2.5528,-2.5682,-2.5904,-2.5884,-2.5651,-2.6008,-2.5785,-2.5194,-2.5872,-2.6149,-2.6049,-2.6633,-2.6793,-2.649,-2.5945,-2.544,-2.4912,-2.4407,-2.42,-2.42,-2.42,-2.4154,-2.4039,-2.3545,-2.2811,-2.1917,-2.1454,-2.1305,-2.1526,-2.2249,-2.2677,-2.2774,-2.3344,-2.361,-2.3555,-2.3321,-2.315,-2.293,-2.3015,-2.2564,-2.1479,-2.2219,-2.2298,-2.1479,-2.1315,-2.1312,-2.1471,-2.1099,-2.0815,-2.0872,-2.1638,-2.2488,-2.3295,-2.3221,-2.3134,-2.3216,-2.3697,-2.4241,-2.4716,-2.5052,-2.5439,-2.5907,-2.6038,-2.614,-2.6297,-2.5833,-2.5481,-2.5433,-2.5072,-2.4771,-2.462,-2.4679,-2.4864,-2.5312,-2.5528,-2.5728,-2.5871,-2.5772,-2.5332,-2.5231,-2.5775,-2.6279,-2.6453,-2.664,-2.6533,-2.5947,-2.5309,-2.4736,-2.386,-2.3273,-2.3068,-2.3247,-2.3195,-2.3258,-2.3531,-2.3553,-2.3596,-2.3667,-2.3774,-2.3873,-2.4051,-2.4183,-2.4293,-2.4485,-2.4575,-2.4685,-2.6008,-2.599,-2.6008,-2.6008,-2.5972,-2.5505,-2.5147,-2.4752,-2.4161,-2.4367,-2.505,-2.5226,-2.5257,-2.5304,-2.5354,-2.5272,-2.5037,-2.5245,-2.5288,-2.5208,-2.5466,-2.5545,-2.5367,-2.4849,-2.4371,-2.3894,-2.3438,-2.3129,-2.2927,-2.3224,-2.3446,-2.3534,-2.3445,-2.2903,-2.194,-2.1697,-2.1445,-2.1233,-2.1651,-2.1908,-2.197,-2.2365,-2.2525,-2.2494,-2.24,-2.2332,-2.2242,-2.2302,-2.1942,-2.117,-2.1624,-2.1677,-2.117,-2.1229,-2.1404,-2.1642,-2.1452,-2.1332,-2.1452,-2.191,-2.234,-2.2768,-2.2702,-2.2603,-2.26,-2.3482,-2.4079,-2.4281,-2.4483,-2.4681,-2.4992,-2.516,-2.5384,-2.5878,-2.5652,-2.5556,-2.5632,-2.5477,-2.5156,-2.4887,-2.4824,-2.5068,-2.556,-2.5834,-2.6022,-2.62,-2.5667,-2.5078,-2.4678,-2.5079,-2.5626,-2.5885,-2.6101,-2.5928,-2.543,-2.5078,-2.4469,-2.36,-2.321,-2.2898,-2.2737,-2.2738,-2.2879,-2.3089,-2.3211,-2.3342,-2.3515,-2.3594,-2.3689,-2.3847,-2.3939,-2.4068,-2.4238,-2.4379,-2.4586,-2.483,-2.483,-2.483,-2.483,-2.4795,-2.4449,-2.4261,-2.4125,-2.3614,-2.3752,-2.443,-2.4399,-2.451,-2.4669,-2.4543,-2.4546,-2.4572,-2.4546,-2.4446,-2.4315,-2.4387,-2.442,-2.4361,-2.3907,-2.3557,-2.3185,-2.2689,-2.2234,-2.2018,-2.2311,-2.2569,-2.2713,-2.2811,-2.2542,-2.1936,-2.1834,-2.1706,-2.1504,-2.162,-2.16,-2.1368,-2.1549,-2.1635,-2.1604,-2.1667,-2.1667,-2.1635,-2.1667,-2.151,-2.1141,-2.1178,-2.1178,-2.1094,-2.133,-2.1582,-2.1815,-2.1886,-2.1925,-2.2135,-2.2111,-2.2166,-2.2197,-2.2197,-2.2197,-2.229,-2.3065,-2.364,-2.3728,-2.3787,-2.393,-2.4192,-2.425,-2.4481,-2.5077,-2.5134,-2.5191,-2.5314,-2.5467,-2.54,-2.5016,-2.5135,-2.5466,-2.589,-2.6264,-2.6401,-2.6228,-2.5711,-2.5042,-2.4539,-2.4555,-2.4815,-2.5201,-2.5489,-2.5407,-2.4946,-2.4852,-2.4431,-2.3474,-2.3383,-2.3137,-2.2747,-2.2603,-2.263,-2.2808,-2.2879,-2.3017,-2.3235,-2.3378,-2.3458,-2.3591,-2.3689,-2.3795,-2.3973,-2.422,-2.4505,-2.483,-2.483,-2.483,-2.483,-2.4812,-2.4778,-2.4556,-2.4193,-2.4145,-2.377,-2.3375,-2.296,-2.2904,-2.2887,-2.3085,-2.304,-2.277,-2.3485,-2.3608,-2.3248,-2.394,-2.425,-2.4059,-2.3802,-2.368,-2.3474,-2.2734,-2.2265,-2.2181,-2.1983,-2.189,-2.1866,-2.147,-2.1491,-2.1811,-2.1655,-2.1784,-2.2253,-2.2479,-2.2121,-2.1279,-2.1368,-2.1368,-2.1265,-2.1517,-2.1612,-2.1431,-2.1635,-2.1675,-2.1628,-2.1604,-2.1628,-2.1628,-2.1659,-2.1683,-2.173,-2.173,-2.1792,-2.1917,-2.1894,-2.2035,-2.2166,-2.2246,-2.2246,-2.2246,-2.2345,-2.2598,-2.2964,-2.315,-2.3369,-2.3787,-2.3904,-2.4076,-2.4337,-2.4394,-2.4427,-2.4687,-2.5079,-2.5411,-2.5356,-2.573,-2.6352,-2.6297,-2.6538,-2.6465,-2.5962,-2.5579,-2.5067,-2.453,-2.4264,-2.4204,-2.4492,-2.4954,-2.5123,-2.4723,-2.4536,-2.4297,-2.3665,-2.3553,-2.3358,-2.3021,-2.2857,-2.2935,-2.2651,-2.252,-2.2686,-2.2905,-2.3089,-2.3187,-2.3283,-2.3411,-2.3571,-2.3785,-2.3983,-2.4265,-2.5018,-2.483,-2.483,-2.483,-2.483,-2.483,-2.4727,-2.4501,-2.4261,-2.4059,-2.3717,-2.3151,-2.2808,-2.2603,-2.2703,-2.2667,-2.2494,-2.2761,-2.2786,-2.2535,-2.2658,-2.2662,-2.261,-2.2435,-2.2198,-2.1992,-2.1713,-2.1486,-2.1339,-2.1372,-2.1484,-2.1624,-2.1494,-2.1474,-2.1387,-2.1271,-2.1182,-2.1096,-2.1167,-2.0986,-2.0778,-2.1327,-2.167,-2.1615,-2.149,-2.136,-2.1305,-2.136,-2.1391,-2.1423,-2.1486,-2.1486,-2.1391,-2.1604,-2.1667,-2.1549,-2.1612,-2.1808,-2.2057,-2.2177,-2.2423,-2.2926,-2.295,-2.3014,-2.3135,-2.3168,-2.324,-2.3328,-2.291,-2.2671,-2.2878,-2.2914,-2.3125,-2.3488,-2.3607,-2.3783,-2.4339,-2.4595,-2.4794,-2.4881,-2.5134,-2.5494,-2.5824,-2.6231,-2.6242,-2.5741,-2.528,-2.4737,-2.4189,-2.3807,-2.3661,-2.3773,-2.4194,-2.455,-2.4601,-2.4722,-2.4479,-2.4195,-2.4094,-2.3924,-2.3373,-2.2866,-2.2694,-2.2601,-2.2377,-2.2337,-2.2607,-2.2678,-2.2781,-2.2908,-2.3103,-2.3283,-2.3599,-2.3827,-2.4041,-2.5155,-2.4847,-2.483,-2.483,-2.483,-2.483,-2.483,-2.4795,-2.4449,-2.4279,-2.4125,-2.3648,-2.3151,-2.2774,-2.2654,-2.2603,-2.2619,-2.246,-2.2319,-2.2181,-2.193,-2.1719,-2.1507,-2.1471,-2.1248,-2.0933,-2.0902,-2.0716,-2.0479,-2.0592,-2.0817,-2.1055,-2.1089,-2.0984,-2.0835,-2.0812,-2.0781,-2.0622,-2.0617,-2.0633,-2.0772,-2.1311,-2.1575,-2.1419,-2.1119,-2.0918,-2.0918,-2.0839,-2.0837,-2.0967,-2.0809,-2.0773,-2.0828,-2.0892,-2.0905,-2.0921,-2.1064,-2.1323,-2.1699,-2.1978,-2.2382,-2.3021,-2.3203,-2.3337,-2.3427,-2.3594,-2.3628,-2.3399,-2.2966,-2.2638,-2.2414,-2.2534,-2.2736,-2.2842,-2.2953,-2.3276,-2.3632,-2.3842,-2.4018,-2.4082,-2.4368,-2.4597,-2.5078,-2.5522,-2.5628,-2.5528,-2.4984,-2.4455,-2.3976,-2.3653,-2.334,-2.3223,-2.3384,-2.3837,-2.4492,-2.4652,-2.4591,-2.4537,-2.4435,-2.4328,-2.3726,-2.3103,-2.259,-2.2632,-2.2177,-2.1988,-2.224,-2.233,-2.2432,-2.2525,-2.2755,-2.3054,-2.3365,-2.3569,-2.3732,-2.5155,-2.4847,-2.483,-2.483,-2.483,-2.483,-2.483,-2.483,-2.4795,-2.4535,-2.4227,-2.4125,-2.3715,-2.31,-2.2808,-2.2603,-2.2585,-2.2551,-2.2379,-2.2088,-2.2163,-2.1861,-2.1247,-2.149,-2.1352,-2.0962,-2.0669,-2.0443,-2.0219,-1.9882,-1.977,-2.0001,-1.9771,-1.9784,-2.0197,-2.0411,-2.0797,-2.1156,-2.1326,-2.1576,-2.1535,-2.118,-2.0746,-2.0395,-2.0271,-2.0315,-2.0224,-1.9893,-1.9926,-2.0436,-1.9716,-1.945,-1.9813,-1.9483,-1.944,-1.9726,-1.9754,-2.001,-2.0618,-2.1159,-2.1677,-2.2102,-2.264,-2.281,-2.2571,-2.3073,-2.3208,-2.2719,-2.3226,-2.3356,-2.295,-2.3239,-2.3216,-2.2532,-2.2773,-2.2861,-2.2449,-2.3044,-2.313,-2.3335,-2.3839,-2.425,-2.4511,-2.4568,-2.4882,-2.508,-2.4803,-2.4328,-2.4179,-2.3806,-2.325,-2.2815,-2.2752,-2.3038,-2.4036,-2.4266,-2.4287,-2.4317,-2.4402,-2.454,-2.403,-2.3528,-2.3035,-2.2524,-2.1858,-2.1622,-2.1871,-2.2056,-2.2206,-2.2371,-2.2634,-2.2892,-2.297,-2.3247,-2.3305,-2.5378,-2.483,-2.483,-2.483,-2.483,-2.483,-2.483,-2.483,-2.483,-2.4689,-2.4573,-2.4296,-2.4022,-2.3802,-2.3186,-2.2826,-2.262,-2.2603,-2.2517,-2.2379,-2.2206,-2.1996,-2.1721,-2.1491,-2.127,-2.1123,-2.0889,-2.0633,-2.0339,-2.0204,-2.0092,-2.0032,-1.967,-1.9674,-1.9901,-1.9818,-1.9883,-2.0079,-2.0196,-2.0177,-2.0216,-2.0004,-1.9812,-1.9678,-2.0005,-2.0226,-2.0226,-2.0062,-2.005,-2.0261,-1.9941,-1.9858,-2.0031,-1.9858,-1.9815,-1.9959,-1.998,-2.0221,-2.0741,-2.1006,-2.1385,-2.1953,-2.2215,-2.2317,-2.2339,-2.2578,-2.2628,-2.252,-2.2736,-2.2786,-2.2626,-2.3162,-2.3673,-2.336,-2.3352,-2.3457,-2.324,-2.3118,-2.3032,-2.3077,-2.3351,-2.3522,-2.3699,-2.3933,-2.431,-2.4515,-2.4116,-2.3797,-2.3635,-2.3135,-2.2647,-2.2519,-2.2428,-2.254,-2.3038,-2.3545,-2.3803,-2.4027,-2.4174,-2.4246,-2.3965,-2.3067,-2.2483,-2.2293,-2.1635,-2.1151,-2.1354,-2.1584,-2.1776,-2.2037,-2.2323,-2.2514,-2.2541,-2.2803,-2.2663,-2.4163,-2.3657,-2.3608,-2.3608,-2.3592,-2.3533,-2.3484,-2.3484,-2.3484,-2.3484,-2.3451,-2.3282,-2.3168,-2.3004,-2.251,-2.2074,-2.172,-2.2131,-2.2282,-2.2047,-2.191,-2.1691,-2.1459,-2.1377,-2.1238,-2.1072,-2.0874,-2.0676,-2.0492,-2.0351,-2.0288,-2.0254,-1.9877,-1.9722,-1.9833,-1.9679,-1.9578,-1.9429,-1.9472,-1.9457,-1.9329,-1.9292,-1.9292,-1.9337,-1.9677,-1.9888,-1.9908,-1.9806,-1.98,-1.9945,-1.9716,-1.9528,-1.9528,-1.9528,-1.9588,-1.9707,-1.969,-1.9925,-2.0397,-2.0627,-2.0936,-2.1466,-2.1735,-2.1849,-2.1886,-2.2075,-2.2092,-2.2017,-2.228,-2.2317,-2.228,-2.2812,-2.3316,-2.3479,-2.3771,-2.3929,-2.3818,-2.3481,-2.3216,-2.3039,-2.3063,-2.3016,-2.2909,-2.319,-2.3518,-2.3842,-2.3482,-2.3249,-2.3163,-2.2697,-2.2136,-2.2076,-2.1811,-2.1753,-2.1955,-2.223,-2.2852,-2.3187,-2.3601,-2.3752,-2.3637,-2.2717,-2.2133,-2.1934,-2.1533,-2.097,-2.0812,-2.1071,-2.1339,-2.1615,-2.1926,-2.2155,-2.222,-2.2344,-2.2176,-2.1409,-2.1288,-2.113,-2.1316,-2.1385,-2.1231,-2.09,-2.097,-2.094,-2.1122,-2.1182,-2.1181,-2.1275,-2.0859,-2.0877,-2.0361,-2.0219,-2.1174,-2.1412,-2.0931,-2.1295,-2.1031,-2.0416,-2.0982,-2.109,-2.0832,-2.0497,-2.049,-2.0699,-2.0323,-2.0202,-2.0333,-1.9996,-1.982,-1.982,-1.9985,-1.9949,-1.9696,-1.9729,-1.9651,-1.9366,-1.9308,-1.9308,-1.9271,-1.9316,-1.9358,-1.9298,-1.9005,-1.9088,-1.9373,-1.8751,-1.8155,-1.8378,-1.8378,-1.8414,-1.8841,-1.8782,-1.8946,-1.9358,-1.9924,-2.0275,-2.0527,-2.1068,-2.1203,-2.0991,-2.1392,-2.1545,-2.1201,-2.1621,-2.2071,-2.2033,-2.2211,-2.2426,-2.2707,-2.3559,-2.3997,-2.38,-2.3775,-2.3625,-2.3159,-2.3071,-2.2782,-2.2397,-2.2286,-2.2542,-2.2885,-2.2954,-2.2871,-2.284,-2.2495,-2.2058,-2.159,-2.1325,-2.1259,-2.1052,-2.0919,-2.1623,-2.2263,-2.274,-2.3076,-2.2966,-2.2363,-2.1934,-2.1633,-2.0898,-2.0364,-2.0479,-2.0698,-2.0877,-2.1134,-2.146,-2.172,-2.1761,-2.1811,-2.1725,-2.0979,-2.0769,-2.093,-2.0917,-2.083,-2.0737,-2.0647,-2.0436,-2.0498,-2.0457,-2.0465,-2.0694,-2.075,-2.0618,-2.0442,-2.0066,-1.9758,-1.9785,-1.9735,-1.9752,-1.9897,-1.9836,-1.9602,-1.9608,-1.9784,-2.0135,-2.0359,-2.0564,-2.0663,-2.04,-2.0345,-2.0499,-2.0184,-2.0096,-2.0087,-2.0047,-1.9816,-1.9745,-1.9793,-1.9638,-1.9322,-1.9408,-1.934,-1.8967,-1.9011,-1.9112,-1.9054,-1.9104,-1.9187,-1.9364,-1.9077,-1.8944,-1.8926,-1.8944,-1.8999,-1.9091,-1.9127,-1.9146,-1.9256,-1.945,-1.9608,-1.9687,-1.9883,-1.9923,-1.9805,-2.0021,-2.0138,-1.9904,-2.0216,-2.043,-2.0547,-2.1106,-2.172,-2.2521,-2.2936,-2.3248,-2.326,-2.3421,-2.3508,-2.3526,-2.324,-2.2951,-2.263,-2.2183,-2.1686,-2.1825,-2.1915,-2.1918,-2.1918,-2.2013,-2.2135,-2.1888,-2.1422,-2.0888,-2.0785,-2.0655,-2.0902,-2.1388,-2.1837,-2.2235,-2.2187,-2.2054,-2.1632,-2.1147,-2.0382,-2.0068,-2.0212,-2.0313,-2.0448,-2.0614,-2.0813,-2.0991,-2.1135,-2.1175,-2.1184,-1.9555,-1.9382,-1.9548,-1.9562,-1.941,-1.9256,-1.9001,-1.8768,-1.871,-1.863,-1.8531,-1.8749,-1.8926,-1.898,-1.8901,-1.8781,-1.8605,-1.8238,-1.8129,-1.8194,-1.8597,-1.8686,-1.8674,-1.8687,-1.8909,-1.9315,-1.9541,-1.9686,-1.9845,-1.9505,-1.9339,-1.936,-1.9077,-1.894,-1.9101,-1.8946,-1.896,-1.9194,-1.935,-1.9376,-1.9333,-1.9531,-1.9508,-1.9153,-1.9097,-1.9066,-1.9089,-1.9083,-1.9152,-1.9271,-1.9292,-1.9292,-1.9292,-1.9274,-1.9292,-1.9292,-1.9292,-1.9292,-1.9292,-1.9292,-1.9292,-1.9292,-1.9292,-1.9292,-1.9292,-1.9292,-1.9292,-1.9292,-1.945,-1.9469,-1.9627,-2.0001,-2.076,-2.1392,-2.2109,-2.2467,-2.2744,-2.2878,-2.2876,-2.2833,-2.2662,-2.2418,-2.1855,-2.1421,-2.075,-2.0672,-2.0621,-2.0706,-2.0825,-2.116,-2.1389,-2.1519,-2.1166,-2.0809,-2.0695,-2.0496,-2.027,-2.0576,-2.0919,-2.1261,-2.1418,-2.125,-2.0962,-2.062,-1.9978,-1.9846,-1.9934,-1.9906,-2.0015,-2.012,-2.0285,-2.0496,-2.0697,-2.0715,-2.0687,-1.748,-1.7275,-1.7325,-1.7476,-1.7384,-1.6993,-1.6716,-1.6229,-1.6068,-1.5949,-1.5777,-1.6128,-1.6214,-1.6298,-1.6834,-1.6867,-1.6653,-1.6923,-1.6799,-1.671,-1.7134,-1.7538,-1.7474,-1.8044,-1.8398,-1.8433,-1.8359,-1.8291,-1.8449,-1.8182,-1.76,-1.7648,-1.746,-1.7039,-1.7311,-1.7266,-1.764,-1.8179,-1.8536,-1.8858,-1.905,-1.9393,-1.9401,-1.9306,-1.8995,-1.8804,-1.8728,-1.851,-1.8687,-1.9152,-1.9213,-1.9192,-1.9231,-1.9253,-1.9253,-1.9253,-1.9253,-1.9292,-1.9292,-1.9292,-1.9292,-1.9292,-1.9292,-1.9292,-1.9292,-1.9292,-1.9292,-1.9292,-1.9292,-1.9292,-1.9332,-1.9411,-1.955,-1.9747,-2.1028,-2.1866,-2.2167,-2.22,-2.2045,-2.1767,-2.1681,-2.1467,-2.0513,-2.0128,-1.9726,-1.945,-1.9432,-1.9531,-1.9664,-1.9982,-2.0345,-2.0313,-2.0132,-2.0017,-1.9693,-1.9489,-1.933,-1.9756,-2.0067,-2.0371,-2.0716,-2.0627,-2.046,-2.0081,-1.9746,-1.9675,-1.9558,-1.9537,-1.956,-1.9727,-1.9887,-2.0093,-2.0206,-2.021,-2.0285,-1.703,-1.6896,-1.7074,-1.7088,-1.696,-1.6827,-1.6507,-1.6119,-1.5818,-1.5614,-1.5457,-1.5444,-1.5511,-1.5635,-1.5919,-1.5896,-1.5839,-1.5998,-1.6045,-1.5816,-1.5683,-1.5882,-1.617,-1.6923,-1.7313,-1.7365,-1.7773,-1.8261,-1.8227,-1.79,-1.7799,-1.7901,-1.7211,-1.7104,-1.7167,-1.6756,-1.6892,-1.7206,-1.7357,-1.7401,-1.7504,-1.7741,-1.7588,-1.718,-1.7246,-1.727,-1.7212,-1.7085,-1.7615,-1.8749,-1.8851,-1.8851,-1.8812,-1.8873,-1.8895,-1.8953,-1.9094,-1.9253,-1.9213,-1.9173,-1.9213,-1.9292,-1.921,-1.9292,-1.9292,-1.9311,-1.9292,-1.9292,-1.9292,-1.9271,-1.9271,-1.9292,-1.9222,-1.9079,-2.0004,-2.0777,-2.1138,-2.1182,-2.1102,-2.1464,-2.1062,-2.0525,-2.0075,-1.9462,-1.8966,-1.8744,-1.8591,-1.8498,-1.8597,-1.8873,-1.926,-1.8837,-1.8644,-1.8654,-1.8584,-1.8377,-1.8445,-1.8914,-1.9265,-1.9604,-1.994,-2.0199,-2.0057,-1.9804,-1.9466,-1.9309,-1.9179,-1.9098,-1.9217,-1.9387,-1.9382,-1.9509,-1.9665,-1.9732,-1.9897,-1.6926,-1.6871,-1.6999,-1.6976,-1.6885,-1.6852,-1.6558,-1.6139,-1.5806,-1.5464,-1.5219,-1.5077,-1.5032,-1.5044,-1.5333,-1.5445,-1.5434,-1.567,-1.5739,-1.5648,-1.5253,-1.5072,-1.5269,-1.5799,-1.6073,-1.6139,-1.6673,-1.6884,-1.6887,-1.6779,-1.6594,-1.6343,-1.6204,-1.5987,-1.5718,-1.5599,-1.5676,-1.5997,-1.6123,-1.6173,-1.6443,-1.6845,-1.6876,-1.6565,-1.658,-1.6536,-1.6419,-1.6358,-1.6742,-1.7401,-1.7553,-1.7553,-1.761,-1.7674,-1.7755,-1.7755,-1.7859,-1.7883,-1.79,-1.794,-1.8227,-1.869,-1.8806,-1.9156,-1.9503,-1.9439,-1.9135,-1.9761,-1.9094,-1.8982,-1.9388,-1.9421,-1.9201,-1.9093,-1.9231,-1.9523,-1.9849,-1.9616,-1.9723,-1.9912,-1.9792,-1.9384,-1.9208,-1.8509,-1.8074,-1.7805,-1.7632,-1.7523,-1.7479,-1.7817,-1.802,-1.776,-1.7768,-1.7997,-1.7933,-1.7713,-1.7562,-1.7998,-1.8228,-1.8605,-1.9221,-1.9585,-1.971,-1.9529,-1.9216,-1.9024,-1.9031,-1.9001,-1.9015,-1.9077,-1.8953,-1.8883,-1.9043,-1.9238,-1.9426,-1.698,-1.7001,-1.7001,-1.7001,-1.6947,-1.6786,-1.6579,-1.6247,-1.5909,-1.5455,-1.4988,-1.4708,-1.471,-1.4568,-1.4977,-1.5133,-1.5332,-1.5547,-1.5624,-1.5488,-1.5154,-1.4854,-1.4699,-1.5013,-1.5104,-1.51,-1.5083,-1.5176,-1.528,-1.4947,-1.4715,-1.4777,-1.4594,-1.4315,-1.4489,-1.4188,-1.4313,-1.4831,-1.4963,-1.5179,-1.5556,-1.592,-1.6035,-1.6035,-1.6029,-1.5976,-1.5866,-1.5828,-1.5864,-1.5732,-1.5895,-1.6179,-1.6163,-1.6133,-1.619,-1.6303,-1.6459,-1.6443,-1.6231,-1.6516,-1.6771,-1.7837,-1.7903,-1.8372,-1.921,-1.882,-1.8692,-1.9439,-1.8467,-1.8346,-1.8959,-1.9129,-1.878,-1.854,-1.8443,-1.8253,-1.7966,-1.7933,-1.8027,-1.8045,-1.823,-1.7971,-1.7603,-1.7269,-1.707,-1.7278,-1.7057,-1.6907,-1.688,-1.7059,-1.7114,-1.6969,-1.7151,-1.7516,-1.7375,-1.7159,-1.6991,-1.7026,-1.7157,-1.7528,-1.8367,-1.8857,-1.9218,-1.9226,-1.8882,-1.8958,-1.9179,-1.9116,-1.8988,-1.8929,-1.8852,-1.8617,-1.8457,-1.8699,-1.8899,-1.684,-1.7001,-1.7001,-1.7001,-1.699,-1.6947,-1.67,-1.6312,-1.6204,-1.5741,-1.521,-1.5049,-1.4966,-1.4794,-1.4896,-1.4961,-1.5004,-1.5248,-1.5319,-1.5239,-1.5012,-1.4776,-1.4592,-1.4657,-1.451,-1.444,-1.4871,-1.4765,-1.4406,-1.4669,-1.4829,-1.4598,-1.4388,-1.4377,-1.44,-1.4052,-1.3952,-1.4127,-1.4146,-1.4135,-1.4153,-1.4327,-1.4423,-1.4436,-1.4511,-1.4507,-1.4436,-1.441,-1.4292,-1.4442,-1.5267,-1.5908,-1.5966,-1.6096,-1.6124,-1.6168,-1.637,-1.6515,-1.6573,-1.6413,-1.6733,-1.698,-1.7054,-1.7175,-1.7423,-1.7454,-1.7324,-1.7585,-1.7383,-1.7314,-1.766,-1.7483,-1.7325,-1.7093,-1.6888,-1.6596,-1.6365,-1.7016,-1.7533,-1.7533,-1.7422,-1.7182,-1.7073,-1.7053,-1.6886,-1.6775,-1.6622,-1.644,-1.643,-1.6466,-1.6386,-1.6342,-1.6322,-1.6625,-1.6578,-1.6417,-1.6333,-1.6189,-1.6259,-1.6348,-1.7169,-1.7797,-1.8043,-1.834,-1.8584,-1.868,-1.867,-1.8957,-1.8733,-1.8749,-1.8712,-1.8575,-1.8412,-1.8457,-1.8429,-1.6732,-1.685,-1.6958,-1.7001,-1.698,-1.6894,-1.67,-1.6452,-1.6226,-1.5871,-1.5461,-1.5253,-1.5106,-1.4891,-1.488,-1.4826,-1.4762,-1.4781,-1.4791,-1.4772,-1.4686,-1.46,-1.4396,-1.4395,-1.4275,-1.4077,-1.4419,-1.4343,-1.4148,-1.4275,-1.4424,-1.4366,-1.4301,-1.4242,-1.4326,-1.4052,-1.3755,-1.3555,-1.3495,-1.3457,-1.335,-1.3417,-1.3462,-1.3519,-1.3652,-1.3725,-1.3759,-1.3759,-1.364,-1.3771,-1.4411,-1.4937,-1.4923,-1.5013,-1.5089,-1.5133,-1.5178,-1.5267,-1.5222,-1.5311,-1.5475,-1.6124,-1.6066,-1.6448,-1.6551,-1.6551,-1.6507,-1.6624,-1.6389,-1.5907,-1.6134,-1.6433,-1.618,-1.6121,-1.587,-1.5644,-1.5678,-1.646,-1.7096,-1.7026,-1.7099,-1.7076,-1.7,-1.6754,-1.6786,-1.6695,-1.6729,-1.6539,-1.633,-1.6342,-1.6035,-1.5888,-1.5649,-1.5619,-1.5669,-1.5651,-1.5657,-1.5525,-1.5478,-1.5469,-1.5776,-1.6291,-1.6736,-1.7191,-1.7688,-1.7633,-1.7693,-1.8017,-1.8341,-1.8245,-1.8207,-1.8314,-1.8359,-1.8182,-1.8194,-1.6592,-1.6678,-1.6872,-1.6969,-1.6969,-1.6807,-1.6678,-1.6601,-1.6288,-1.5935,-1.5612,-1.5408,-1.5173,-1.4755,-1.4567,-1.4421,-1.4091,-1.412,-1.3963,-1.3643,-1.3891,-1.3699,-1.3535,-1.3369,-1.3385,-1.3678,-1.4101,-1.4038,-1.3908,-1.3872,-1.3987,-1.3938,-1.4045,-1.4056,-1.3928,-1.3893,-1.3728,-1.3354,-1.3286,-1.3181,-1.3076,-1.3247,-1.335,-1.3525,-1.3582,-1.3701,-1.3737,-1.3737,-1.3676,-1.3628,-1.364,-1.364,-1.3616,-1.3532,-1.3507,-1.3565,-1.3828,-1.3981,-1.4052,-1.396,-1.4305,-1.5179,-1.507,-1.5431,-1.6074,-1.5847,-1.577,-1.5732,-1.5421,-1.4665,-1.4941,-1.5148,-1.5477,-1.5457,-1.5224,-1.5131,-1.5258,-1.5889,-1.6174,-1.6137,-1.6311,-1.6411,-1.6385,-1.6262,-1.6457,-1.6595,-1.6595,-1.654,-1.6303,-1.6019,-1.5655,-1.5378,-1.5156,-1.5092,-1.5088,-1.5174,-1.5122,-1.521,-1.5074,-1.4967,-1.4926,-1.5254,-1.5836,-1.6312,-1.6659,-1.6715,-1.6912,-1.7302,-1.7503,-1.7538,-1.7702,-1.7908,-1.793,-1.7867,-1.7995,-1.6353,-1.6731,-1.6763,-1.6829,-1.698,-1.6958,-1.652,-1.6431,-1.6264,-1.6172,-1.5536,-1.5682,-1.4919,-1.4143,-1.3654,-1.2987,-1.2481,-1.265,-1.2623,-1.2328,-1.2495,-1.246,-1.1915,-1.1772,-1.1599,-1.1946,-1.2909,-1.3694,-1.355,-1.3774,-1.3613,-1.3568,-1.363,-1.3693,-1.3857,-1.388,-1.3671,-1.3358,-1.3303,-1.318,-1.2974,-1.2917,-1.3101,-1.3414,-1.3552,-1.3764,-1.4003,-1.4123,-1.4159,-1.4159,-1.4159,-1.4135,-1.3943,-1.3609,-1.351,-1.3616,-1.3749,-1.3845,-1.3857,-1.4026,-1.4218,-1.4444,-1.4465,-1.4417,-1.4747,-1.47,-1.4748,-1.4663,-1.4526,-1.407,-1.4321,-1.4256,-1.391,-1.3886,-1.3957,-1.3836,-1.3976,-1.4447,-1.5032,-1.4994,-1.528,-1.5632,-1.5651,-1.562,-1.5646,-1.5618,-1.5518,-1.5628,-1.5652,-1.5375,-1.5013,-1.4794,-1.4611,-1.4614,-1.4624,-1.472,-1.478,-1.5095,-1.5029,-1.4889,-1.4818,-1.4683,-1.5018,-1.5645,-1.6058,-1.6255,-1.6482,-1.6652,-1.6743,-1.6806,-1.7103,-1.7471,-1.7508,-1.7512,-1.7917,-1.5328,-1.5468,-1.4871,-1.4657,-1.4733,-1.4678,-1.4508,-1.4245,-1.4207,-1.3991,-1.3727,-1.3699,-1.3398,-1.2749,-1.255,-1.2039,-1.1628,-1.1521,-1.1553,-1.1364,-1.141,-1.1388,-1.0803,-1.0706,-1.0737,-1.1012,-1.1918,-1.2348,-1.2168,-1.2636,-1.2882,-1.3028,-1.3233,-1.3535,-1.3617,-1.3505,-1.334,-1.3169,-1.3184,-1.3143,-1.2875,-1.281,-1.3008,-1.3044,-1.3205,-1.3344,-1.3426,-1.3461,-1.345,-1.345,-1.345,-1.3461,-1.3403,-1.3367,-1.3365,-1.3776,-1.4026,-1.4099,-1.4111,-1.4232,-1.422,-1.4099,-1.4111,-1.4014,-1.393,-1.3892,-1.3954,-1.3904,-1.3819,-1.3746,-1.38,-1.3609,-1.3404,-1.3256,-1.3275,-1.32,-1.3187,-1.3476,-1.3701,-1.4007,-1.475,-1.5132,-1.4996,-1.494,-1.4816,-1.4677,-1.4485,-1.4667,-1.4916,-1.4601,-1.4212,-1.4214,-1.4073,-1.4137,-1.4155,-1.4175,-1.4379,-1.4696,-1.4756,-1.4629,-1.4533,-1.4337,-1.4646,-1.5219,-1.5505,-1.5488,-1.5613,-1.5642,-1.5853,-1.6112,-1.6468,-1.6785,-1.6996,-1.724,-1.7545,-1.3779,-1.3797,-1.2808,-1.2443,-1.2467,-1.2403,-1.2331,-1.2107,-1.2079,-1.1918,-1.1671,-1.1752,-1.1615,-1.1185,-1.0936,-1.0696,-1.068,-1.0529,-1.0469,-1.0207,-1.0303,-1.0311,-1.0059,-1.0039,-0.9813,-0.9613,-0.9861,-1.0302,-1.1001,-1.1512,-1.1773,-1.1905,-1.2529,-1.2741,-1.2597,-1.2253,-1.2366,-1.2325,-1.2322,-1.2408,-1.2404,-1.2459,-1.2512,-1.2431,-1.2501,-1.2638,-1.2914,-1.3065,-1.2856,-1.2752,-1.2776,-1.2789,-1.2616,-1.2697,-1.3205,-1.3957,-1.416,-1.4124,-1.4124,-1.428,-1.422,-1.4099,-1.4014,-1.3882,-1.3809,-1.3845,-1.3761,-1.3664,-1.3616,-1.3628,-1.3674,-1.3544,-1.3399,-1.3278,-1.3238,-1.3133,-1.302,-1.3065,-1.3059,-1.3581,-1.4351,-1.4439,-1.4169,-1.412,-1.3942,-1.3743,-1.3563,-1.3805,-1.3963,-1.3653,-1.341,-1.3513,-1.3534,-1.3627,-1.365,-1.3605,-1.389,-1.426,-1.4172,-1.3963,-1.3933,-1.39,-1.4234,-1.4432,-1.4247,-1.425,-1.4453,-1.4773,-1.5118,-1.5468,-1.5796,-1.6054,-1.6255,-1.6482,-1.6793,-1.1626,-1.202,-1.1846,-1.1932,-1.1993,-1.1937,-1.18,-1.1419,-1.1444,-1.1635,-1.1057,-1.1376,-1.071,-0.968,-0.8477,-0.8221,-0.8473,-0.8982,-0.8913,-0.8539,-0.8826,-0.8705,-0.7926,-0.7726,-0.8076,-0.8176,-0.8019,-0.9004,-1.0025,-1.0532,-1.0712,-1.077,-1.0782,-1.0598,-1.0931,-1.0848,-1.0155,-1.0222,-1.0194,-1.0167,-1.0256,-1.0467,-1.087,-1.1318,-1.1732,-1.2155,-1.2528,-1.2672,-1.2587,-1.2069,-1.263,-1.2651,-1.2314,-1.2721,-1.3165,-1.3502,-1.3589,-1.3626,-1.3661,-1.3993,-1.4196,-1.4112,-1.4124,-1.422,-1.404,-1.4028,-1.4016,-1.4195,-1.4002,-1.3823,-1.3728,-1.363,-1.3498,-1.345,-1.3381,-1.3402,-1.3294,-1.3121,-1.3073,-1.302,-1.3779,-1.3461,-1.3134,-1.3085,-1.3076,-1.2881,-1.2779,-1.3049,-1.3144,-1.2871,-1.2572,-1.2652,-1.2755,-1.2889,-1.2887,-1.2861,-1.3136,-1.3603,-1.3459,-1.3239,-1.3424,-1.3421,-1.3184,-1.3308,-1.3214,-1.3477,-1.3939,-1.4332,-1.4549,-1.4907,-1.5378,-1.5488,-1.5497,-1.5758,-1.5989,-0.9222,-1.0294,-0.9519,-0.92,-0.9313,-0.9383,-0.9212,-0.9007,-0.9016,-0.8982,-0.8872,-0.8928,-0.8538,-0.7933,-0.7266,-0.7204,-0.7373,-0.7757,-0.7675,-0.7412,-0.7676,-0.7702,-0.7397,-0.7289,-0.7277,-0.7271,-0.7279,-0.7663,-0.8808,-0.9433,-0.9645,-0.9731,-0.9983,-1.0307,-0.992,-0.9956,-0.9995,-0.9954,-0.9898,-0.9809,-0.9786,-0.9854,-1.0012,-1.0256,-1.0551,-1.0855,-1.1149,-1.1179,-1.113,-1.0681,-1.1033,-1.0984,-1.0779,-1.0925,-1.1179,-1.1228,-1.1511,-1.2193,-1.3276,-1.3632,-1.3715,-1.3823,-1.3823,-1.3811,-1.3871,-1.3775,-1.3775,-1.3811,-1.3873,-1.3755,-1.3636,-1.3708,-1.3602,-1.3519,-1.3171,-1.3262,-1.326,-1.3414,-1.3314,-1.323,-1.3033,-1.2588,-1.2345,-1.2578,-1.2696,-1.2691,-1.25,-1.2588,-1.2607,-1.2426,-1.2105,-1.1789,-1.1917,-1.2029,-1.2,-1.1994,-1.2154,-1.2471,-1.2481,-1.2447,-1.2906,-1.2932,-1.2689,-1.2755,-1.3013,-1.3295,-1.3621,-1.3967,-1.4313,-1.4666,-1.5013,-1.5013,-1.4993,-1.4899,-1.5117,-0.7418,-0.858,-0.7567,-0.7117,-0.7117,-0.7158,-0.712,-0.6946,-0.7011,-0.6945,-0.6832,-0.6941,-0.6941,-0.6889,-0.6912,-0.694,-0.6984,-0.695,-0.6941,-0.6959,-0.7018,-0.7145,-0.709,-0.7146,-0.7106,-0.7096,-0.6992,-0.7115,-0.7352,-0.7795,-0.8363,-0.8678,-0.8966,-0.9277,-0.9399,-0.914,-0.8934,-0.8915,-0.8908,-0.8909,-0.8889,-0.8925,-0.9063,-0.9191,-0.9295,-0.9395,-0.9588,-0.9804,-0.9804,-0.9361,-0.972,-0.9786,-0.9535,-0.9744,-0.9987,-1.0104,-1.0365,-1.097,-1.1964,-1.2467,-1.2715,-1.2759,-1.2737,-1.2495,-1.2592,-1.2748,-1.27,-1.2543,-1.2678,-1.2716,-1.2786,-1.2764,-1.2571,-1.2464,-1.2457,-1.2678,-1.2707,-1.249,-1.2194,-1.1854,-1.1668,-1.1811,-1.1772,-1.2122,-1.2283,-1.2398,-1.2361,-1.2223,-1.2184,-1.2172,-1.1949,-1.1714,-1.1729,-1.1835,-1.1737,-1.1677,-1.1665,-1.1615,-1.1627,-1.17,-1.2138,-1.224,-1.2033,-1.2297,-1.2611,-1.2749,-1.2834,-1.3478,-1.4032,-1.3998,-1.4057,-1.4423,-1.4474,-1.4334,-1.4345,-0.6778,-0.6884,-0.6889,-0.6841,-0.6828,-0.6739,-0.6614,-0.6442,-0.6493,-0.6553,-0.6531,-0.6531,-0.6701,-0.6848,-0.6701,-0.681,-0.7096,-0.7016,-0.6906,-0.6864,-0.6946,-0.6903,-0.694,-0.6902,-0.6875,-0.6676,-0.672,-0.6617,-0.6463,-0.6786,-0.7136,-0.742,-0.7844,-0.7623,-0.7631,-0.7829,-0.7672,-0.7618,-0.7593,-0.7464,-0.7375,-0.7363,-0.7555,-0.8066,-0.8379,-0.8803,-0.9524,-0.9538,-0.9212,-0.8488,-0.8888,-0.8939,-0.857,-0.888,-0.9183,-0.9352,-0.9457,-0.9812,-1.0262,-1.0804,-1.0811,-1.0735,-1.0797,-1.0999,-1.1077,-1.0806,-1.0681,-1.0923,-1.1246,-1.1051,-1.0886,-1.0654,-1.1074,-1.1201,-1.1347,-1.1375,-1.1278,-1.102,-1.0726,-1.0357,-1.0454,-1.0796,-1.0873,-1.114,-1.1696,-1.1823,-1.2427,-1.2386,-1.2295,-1.2245,-1.2087,-1.1914,-1.1902,-1.1906,-1.1869,-1.18,-1.1707,-1.1647,-1.1598,-1.1438,-1.1415,-1.1428,-1.1638,-1.1536,-1.1785,-1.1913,-1.2108,-1.2586,-1.2883,-1.2908,-1.3122,-1.367,-1.3949,-1.3894,-1.3876,-0.6807,-0.6861,-0.6773,-0.6711,-0.6593,-0.6437,-0.6331,-0.6283,-0.6285,-0.6223,-0.624,-0.6181,-0.6213,-0.6292,-0.6239,-0.6268,-0.6389,-0.6358,-0.6376,-0.6469,-0.6514,-0.6661,-0.6795,-0.6825,-0.6879,-0.6775,-0.6686,-0.6601,-0.6584,-0.6417,-0.6532,-0.6777,-0.6868,-0.6934,-0.6916,-0.7017,-0.7062,-0.7029,-0.7002,-0.6991,-0.6921,-0.691,-0.7037,-0.7229,-0.7328,-0.7533,-0.7842,-0.7947,-0.7737,-0.7644,-0.7861,-0.7768,-0.7669,-0.792,-0.8078,-0.8249,-0.8355,-0.8302,-0.8545,-0.9302,-1.0143,-1.0161,-1.0179,-1.0053,-0.9926,-1.0112,-1.012,-1.0205,-1.0104,-0.9954,-1.0012,-1.0119,-1.028,-1.0181,-1.0092,-1.0051,-0.9911,-0.9648,-0.9647,-0.9453,-0.9801,-1.0171,-1.0175,-1.013,-1.071,-1.13,-1.1988,-1.2407,-1.2162,-1.2015,-1.1721,-1.1565,-1.1489,-1.1543,-1.1497,-1.1582,-1.1663,-1.1591,-1.1531,-1.1438,-1.1268,-1.1371,-1.1499,-1.125,-1.1129,-1.144,-1.1636,-1.1691,-1.198,-1.253,-1.2819,-1.3097,-1.3279,-1.3374,-1.3396,-0.6892,-0.6884,-0.6803,-0.6676,-0.6521,-0.6341,-0.6329,-0.6251,-0.6202,-0.6149,-0.6088,-0.6023,-0.5994,-0.5994,-0.6002,-0.601,-0.6081,-0.6056,-0.601,-0.6081,-0.6219,-0.6387,-0.6548,-0.6606,-0.6607,-0.6687,-0.6548,-0.6449,-0.6232,-0.6255,-0.6224,-0.6232,-0.6393,-0.6507,-0.6709,-0.6832,-0.6974,-0.6943,-0.6927,-0.6906,-0.6767,-0.6871,-0.685,-0.6878,-0.6985,-0.7039,-0.7147,-0.726,-0.72,-0.7093,-0.7087,-0.7022,-0.6969,-0.691,-0.691,-0.6937,-0.6964,-0.6986,-0.7404,-0.7986,-0.9055,-0.8789,-0.8855,-0.8915,-0.9041,-0.9093,-0.8789,-0.8848,-0.9021,-0.913,-0.8984,-0.8802,-0.8758,-0.8584,-0.8535,-0.8521,-0.8585,-0.8428,-0.8598,-0.8659,-0.8878,-0.8776,-0.8804,-0.8728,-0.9592,-1.0168,-1.0706,-1.1045,-1.0989,-1.0949,-1.1005,-1.0889,-1.0847,-1.0972,-1.104,-1.0994,-1.0958,-1.1075,-1.1129,-1.1504,-1.1488,-1.1425,-1.1435,-1.1357,-1.1286,-1.1214,-1.1267,-1.139,-1.1905,-1.2517,-1.2641,-1.2678,-1.2631,-1.2726,-1.2792,-0.6982,-0.6974,-0.6888,-0.6798,-0.6705,-0.6593,-0.6451,-0.6494,-0.6288,-0.621,-0.6206,-0.6186,-0.617,-0.6166,-0.6153,-0.6145,-0.6112,-0.6068,-0.5992,-0.6051,-0.601,-0.6006,-0.6131,-0.6239,-0.6349,-0.6044,-0.6077,-0.6006,-0.5759,-0.5823,-0.5802,-0.5856,-0.6075,-0.6327,-0.6502,-0.6465,-0.6431,-0.6354,-0.641,-0.6405,-0.6497,-0.6599,-0.6695,-0.6714,-0.6869,-0.6913,-0.6913,-0.6913,-0.6908,-0.6913,-0.6974,-0.6974,-0.6979,-0.7039,-0.7045,-0.7056,-0.7122,-0.7188,-0.7232,-0.7087,-0.7228,-0.7434,-0.773,-0.7552,-0.7146,-0.7087,-0.7322,-0.7783,-0.7446,-0.727,-0.7059,-0.7042,-0.7223,-0.7345,-0.7364,-0.7373,-0.7496,-0.7579,-0.7756,-0.7798,-0.726,-0.693,-0.7026,-0.7302,-0.8321,-0.8957,-0.9452,-0.9701,-0.9903,-1.0107,-1.0273,-1.0284,-1.0265,-1.0177,-1.0261,-1.0226,-1.0272,-1.044,-1.0543,-1.0746,-1.0954,-1.0858,-1.0965,-1.1253,-1.1144,-1.085,-1.0956,-1.1129,-1.1515,-1.1813,-1.2083,-1.2144,-1.2101,-1.2036,-1.2038,-0.699,-0.6986,-0.6954,-0.6929,-0.6876,-0.6709,-0.6635,-0.6611,-0.6513,-0.6451,-0.6435,-0.6394,-0.6321,-0.6288,-0.6259,-0.6235,-0.6174,-0.6096,-0.6005,-0.6121,-0.6043,-0.6076,-0.6125,-0.6141,-0.6137,-0.6096,-0.6076,-0.596,-0.5929,-0.5778,-0.5823,-0.5887,-0.5914,-0.6171,-0.6436,-0.6478,-0.6445,-0.6426,-0.6474,-0.645,-0.6384,-0.6426,-0.6515,-0.6456,-0.6624,-0.668,-0.6685,-0.669,-0.669,-0.669,-0.669,-0.6685,-0.674,-0.6796,-0.6897,-0.6943,-0.6998,-0.721,-0.7204,-0.7117,-0.71,-0.7035,-0.7013,-0.7013,-0.7029,-0.7035,-0.7089,-0.7008,-0.6948,-0.6931,-0.6974,-0.694,-0.7006,-0.6995,-0.7003,-0.6945,-0.6986,-0.6974,-0.6998,-0.697,-0.6658,-0.6614,-0.6665,-0.6742,-0.7475,-0.8,-0.8457,-0.9082,-0.9351,-0.9609,-0.9803,-0.9749,-0.9714,-0.9544,-0.9403,-0.934,-0.9329,-0.949,-0.953,-0.9602,-0.9779,-1.0108,-1.0172,-1.026,-1.0378,-1.0505,-1.0511,-1.06,-1.0781,-1.1026,-1.12,-1.1353,-1.1316,-1.1193,-1.1132,-0.699,-0.699,-0.699,-0.6845,-0.6604,-0.6689,-0.6758,-0.6721,-0.6664,-0.6635,-0.6615,-0.6541,-0.6472,-0.6406,-0.6341,-0.6296,-0.6219,-0.6141,-0.6108,-0.6166,-0.6092,-0.6088,-0.6112,-0.6137,-0.6088,-0.6092,-0.6013,-0.5968,-0.597,-0.5875,-0.5908,-0.59,-0.5916,-0.6029,-0.618,-0.6255,-0.6196,-0.6111,-0.608,-0.6125,-0.6085,-0.6182,-0.6279,-0.6298,-0.6337,-0.6393,-0.6384,-0.6379,-0.6318,-0.6374,-0.6374,-0.6374,-0.6431,-0.6488,-0.6601,-0.6714,-0.6776,-0.6945,-0.6894,-0.6894,-0.6884,-0.6884,-0.7046,-0.716,-0.721,-0.7188,-0.7188,-0.7166,-0.7128,-0.7111,-0.7018,-0.6921,-0.6915,-0.691,-0.6877,-0.6872,-0.6855,-0.6839,-0.6785,-0.6709,-0.6665,-0.6605,-0.6562,-0.6529,-0.6838,-0.7149,-0.7456,-0.811,-0.8659,-0.869,-0.8753,-0.8645,-0.8498,-0.8145,-0.8139,-0.8359,-0.8401,-0.8537,-0.862,-0.8719,-0.9044,-0.9426,-0.9331,-0.9303,-0.9514,-0.9702,-0.9857,-0.9977,-0.9893,-0.9977,-1.025,-1.0374,-1.0451,-1.059,-1.07,-0.6918,-0.6918,-0.6918,-0.641,-0.5956,-0.6391,-0.6673,-0.6671,-0.6671,-0.6671,-0.6733,-0.6647,-0.6594,-0.6553,-0.6415,-0.6337,-0.6304,-0.6223,-0.6202,-0.617,-0.6117,-0.61,-0.6013,-0.6009,-0.6051,-0.6006,-0.592,-0.5928,-0.5929,-0.5921,-0.5921,-0.5916,-0.5916,-0.5953,-0.5977,-0.5935,-0.5873,-0.5899,-0.5882,-0.5865,-0.589,-0.5998,-0.604,-0.6071,-0.6179,-0.6237,-0.6295,-0.6299,-0.6308,-0.6371,-0.638,-0.639,-0.6453,-0.6457,-0.6457,-0.6511,-0.6555,-0.6604,-0.6599,-0.6589,-0.6594,-0.6671,-0.6904,-0.7097,-0.7192,-0.7158,-0.7147,-0.7187,-0.7204,-0.7199,-0.7177,-0.7172,-0.7161,-0.7122,-0.7024,-0.7002,-0.6975,-0.6931,-0.6861,-0.6812,-0.6785,-0.6747,-0.6719,-0.6681,-0.657,-0.6726,-0.6995,-0.7006,-0.7351,-0.7191,-0.7202,-0.7079,-0.6845,-0.6525,-0.672,-0.7336,-0.7409,-0.7542,-0.7898,-0.808,-0.8419,-0.8508,-0.8376,-0.8381,-0.8683,-0.8935,-0.911,-0.8996,-0.8737,-0.8927,-0.9247,-0.9894,-1.0119,-1.0505,-1.0659,-0.5392,-0.5389,-0.5389,-0.5247,-0.5096,-0.5225,-0.5637,-0.6051,-0.6342,-0.663,-0.6909,-0.6819,-0.6593,-0.6676,-0.6566,-0.6476,-0.6398,-0.6329,-0.6288,-0.6182,-0.6074,-0.6097,-0.6125,-0.6029,-0.5984,-0.5948,-0.5924,-0.5726,-0.5814,-0.5802,-0.5736,-0.5916,-0.5486,-0.5609,-0.5659,-0.5827,-0.5669,-0.5645,-0.5573,-0.5786,-0.5753,-0.586,-0.5894,-0.592,-0.5907,-0.5966,-0.5961,-0.5957,-0.5957,-0.589,-0.5886,-0.5881,-0.5877,-0.6057,-0.6233,-0.6462,-0.6516,-0.6516,-0.6521,-0.6525,-0.6476,-0.6431,-0.6638,-0.6802,-0.6934,-0.7002,-0.7012,-0.7099,-0.7124,-0.7057,-0.7041,-0.7091,-0.7081,-0.6993,-0.7006,-0.6974,-0.6952,-0.6986,-0.6921,-0.6824,-0.6797,-0.676,-0.6738,-0.6748,-0.6637,-0.6662,-0.666,-0.6573,-0.648,-0.6415,-0.635,-0.6279,-0.6246,-0.6214,-0.6176,-0.6661,-0.6555,-0.6549,-0.7004,-0.7217,-0.7106,-0.7164,-0.7233,-0.7471,-0.787,-0.8166,-0.8396,-0.8144,-0.78,-0.7974,-0.8343,-0.9152,-0.9817,-1.0024,-1.0326,-0.4665,-0.4665,-0.4665,-0.4519,-0.4228,-0.4083,-0.4361,-0.4924,-0.5525,-0.5901,-0.6036,-0.5958,-0.5973,-0.5778,-0.5677,-0.5597,-0.5555,-0.5453,-0.5426,-0.5678,-0.5796,-0.5912,-0.5996,-0.5974,-0.6117,-0.5886,-0.5426,-0.4979,-0.5005,-0.4481,-0.4226,-0.4164,-0.4333,-0.4376,-0.4247,-0.406,-0.4183,-0.461,-0.51,-0.5697,-0.5794,-0.577,-0.5794,-0.5638,-0.5626,-0.5562,-0.5562,-0.5562,-0.5626,-0.5689,-0.5753,-0.5693,-0.5757,-0.5936,-0.6056,-0.6244,-0.6244,-0.6248,-0.6253,-0.6244,-0.6235,-0.6226,-0.6222,-0.6469,-0.6587,-0.6701,-0.6816,-0.6882,-0.6888,-0.6904,-0.6884,-0.692,-0.6853,-0.6832,-0.6857,-0.6877,-0.6927,-0.6982,-0.694,-0.6837,-0.68,-0.6709,-0.6673,-0.6685,-0.676,-0.6786,-0.679,-0.6714,-0.66,-0.6497,-0.6437,-0.6377,-0.6355,-0.6333,-0.629,-0.6252,-0.631,-0.632,-0.6446,-0.6513,-0.61,-0.6186,-0.6617,-0.6877,-0.7086,-0.7286,-0.7388,-0.7187,-0.698,-0.7232,-0.7535,-0.8169,-0.8739,-0.9,-0.934,-0.4519,-0.4447,-0.4519,-0.401,-0.3427,-0.3057,-0.3108,-0.3439,-0.4189,-0.4573,-0.4702,-0.4652,-0.4755,-0.4852,-0.4776,-0.4658,-0.4706,-0.4697,-0.4753,-0.4795,-0.4729,-0.4958,-0.5238,-0.5635,-0.4729,-0.4839,-0.4558,-0.3443,-0.3322,-0.2858,-0.2333,-0.1827,-0.2184,-0.2424,-0.2489,-0.2614,-0.2736,-0.2973,-0.4024,-0.494,-0.5233,-0.5479,-0.5671,-0.541,-0.5341,-0.5345,-0.5349,-0.5475,-0.5609,-0.5544,-0.5475,-0.528,-0.5215,-0.5212,-0.5276,-0.5276,-0.5075,-0.5075,-0.5011,-0.5007,-0.5143,-0.5338,-0.5667,-0.5636,-0.569,-0.6323,-0.6549,-0.6696,-0.671,-0.6734,-0.6709,-0.669,-0.667,-0.6655,-0.663,-0.6642,-0.672,-0.6695,-0.67,-0.6609,-0.6548,-0.6518,-0.6513,-0.6533,-0.6562,-0.6753,-0.6743,-0.6669,-0.6595,-0.6416,-0.6444,-0.6385,-0.6376,-0.6354,-0.6393,-0.6361,-0.6344,-0.6317,-0.629,-0.6263,-0.6225,-0.6165,-0.61,-0.6356,-0.6605,-0.6311,-0.6287,-0.6319,-0.6502,-0.6649,-0.6979,-0.7282,-0.7585,-0.7808,-0.8455,-0.2842,-0.2842,-0.2915,-0.277,-0.2548,-0.2526,-0.2514,-0.2575,-0.2697,-0.3473,-0.4445,-0.4469,-0.4372,-0.4231,-0.4202,-0.4095,-0.4067,-0.3759,-0.4292,-0.3884,-0.3598,-0.3386,-0.3295,-0.3058,-0.257,-0.2023,-0.1748,-0.1613,-0.1354,-0.1027,-0.0959,-0.1023,-0.1079,-0.1078,-0.1078,-0.1268,-0.1453,-0.1441,-0.219,-0.2866,-0.2909,-0.3515,-0.382,-0.3387,-0.3139,-0.3262,-0.3262,-0.3139,-0.3016,-0.2893,-0.2954,-0.2893,-0.2891,-0.3016,-0.2954,-0.2954,-0.3264,-0.3325,-0.3325,-0.3384,-0.3448,-0.3448,-0.3694,-0.4125,-0.4706,-0.567,-0.6277,-0.6437,-0.6532,-0.65,-0.6354,-0.6331,-0.6192,-0.6179,-0.6161,-0.6217,-0.6275,-0.6341,-0.6293,-0.6344,-0.6289,-0.6335,-0.633,-0.6371,-0.6407,-0.6358,-0.629,-0.6231,-0.6256,-0.6167,-0.6328,-0.6359,-0.6385,-0.6403,-0.6419,-0.6408,-0.6392,-0.6371,-0.6289,-0.6317,-0.629,-0.623,-0.6112,-0.6121,-0.6145,-0.5998,-0.5993,-0.607,-0.6218,-0.6265,-0.627,-0.6503,-0.6331,-0.6447,-0.7351,-0.226,-0.226,-0.226,-0.226,-0.2257,-0.2315,-0.2303,-0.2217,-0.1704,-0.1966,-0.2848,-0.317,-0.3435,-0.3426,-0.3411,-0.2987,-0.2765,-0.2593,-0.2187,-0.191,-0.1906,-0.1771,-0.1288,-0.1009,-0.1336,-0.0926,-0.0132,0.0197,0.0719,0.1042,0.1105,0.0844,0.0648,0.0516,0.0516,0.0386,0.0064,0.0191,-0.0254,-0.0316,-0.0438,-0.1492,-0.2527,-0.2093,-0.197,-0.191,-0.2031,-0.2031,-0.2031,-0.2031,-0.2155,-0.2155,-0.2216,-0.2278,-0.2155,-0.2155,-0.2155,-0.2031,-0.1908,-0.1848,-0.1787,-0.2033,-0.2341,-0.3018,-0.3075,-0.3952,-0.5047,-0.5335,-0.6064,-0.6159,-0.523,-0.4969,-0.4344,-0.403,-0.3998,-0.3957,-0.4521,-0.5023,-0.541,-0.593,-0.5961,-0.596,-0.5998,-0.6061,-0.6158,-0.6311,-0.6193,-0.6014,-0.5982,-0.5773,-0.6008,-0.6253,-0.6251,-0.6451,-0.6586,-0.6549,-0.6433,-0.6406,-0.629,-0.6142,-0.6006,-0.6124,-0.6121,-0.6063,-0.601,-0.5973,-0.5968,-0.5958,-0.5815,-0.5748,-0.5681,-0.566,-0.5491,-0.5419,-0.6105,-0.226,-0.226,-0.2114,-0.2041,-0.204,-0.1891,-0.1734,-0.1575,-0.0713,-0.0281,-0.0554,-0.138,-0.1721,-0.1775,-0.1767,-0.1081,-0.0676,-0.0819,-0.0205,0.0068,0.0274,0.0273,0.0068,0.0,0.0269,0.0604,0.1203,0.214,0.2941,0.2988,0.2971,0.3231,0.3273,0.3116,0.3178,0.3049,0.2532,0.2135,0.1873,0.2064,0.1211,0.0063,-0.0811,-0.1303,-0.1424,-0.1422,-0.1422,-0.1482,-0.142,-0.1293,-0.1047,-0.0989,-0.0988,-0.0864,-0.0985,-0.0924,-0.0862,-0.0924,-0.1109,-0.0927,-0.1111,-0.1295,-0.1603,-0.1727,-0.1727,-0.2402,-0.351,-0.4186,-0.4984,-0.4974,-0.4035,-0.3532,-0.2782,-0.2346,-0.2263,-0.2185,-0.2945,-0.3643,-0.4285,-0.505,-0.5067,-0.5127,-0.5207,-0.5273,-0.5475,-0.5743,-0.5841,-0.5833,-0.5699,-0.5367,-0.5251,-0.5705,-0.6036,-0.6323,-0.6537,-0.6521,-0.6334,-0.622,-0.6097,-0.5875,-0.5775,-0.5927,-0.6017,-0.5992,-0.5941,-0.5871,-0.5776,-0.5708,-0.5514,-0.5394,-0.5451,-0.5489,-0.5327,-0.5261,-0.5209,-0.226,-0.226,-0.1312,-0.0948,-0.0801,0.0072,0.0573,0.0571,0.0778,0.0981,0.0908,0.0836,0.0622,0.0473,0.0409,0.0614,0.0678,0.0753,0.0748,0.0946,0.1778,0.2044,0.2103,0.2104,0.3051,0.3173,0.3094,0.3698,0.3902,0.3957,0.4086,0.4014,0.3746,0.3663,0.3599,0.3459,0.3177,0.3031,0.3015,0.3009,0.2655,0.1861,0.1601,0.147,0.1725,0.1523,0.1386,0.1256,0.1247,0.1239,0.1114,0.0996,0.0936,0.0872,0.087,0.0683,0.0745,0.0745,0.0684,0.0626,0.0563,0.056,0.0311,-0.0187,-0.0436,-0.1053,-0.1795,-0.2166,-0.2659,-0.2775,-0.2274,-0.2333,-0.1894,-0.1705,-0.1572,-0.1623,-0.1975,-0.2199,-0.2481,-0.2775,-0.2884,-0.2928,-0.298,-0.3016,-0.3054,-0.3217,-0.3314,-0.3364,-0.4017,-0.4207,-0.4404,-0.4897,-0.5384,-0.5877,-0.6042,-0.6187,-0.608,-0.597,-0.5898,-0.5685,-0.5653,-0.5794,-0.5831,-0.5811,-0.5754,-0.5687,-0.5598,-0.5558,-0.5485,-0.5412,-0.544,-0.5456,-0.5248,-0.5085,-0.5028]},{"header":{"parameterUnit":"m.s-1","parameterCategory":1,"la1":31.0,"la2":29.5877,"lo1":-88.7671,"lo2":-86.6584,"dy":0.0162,"dx":0.0185,"nx":115,"ny":88,"refTime":"2026-04-07T00:00:00:Z","depth":0,"parameterNumber":3,"parameterNumberName":"V-component_of_WINDS"},"data":[0.0,0.0,0.0,0.0,0.0,0.0,0.0,0.0,0.0,0.0,0.0,0.0,0.0,0.0,0.0,0.0,0.0,0.0,0.0,0.0,0.0,0.0,0.0,0.0,0.0,0.0,0.0,0.0,0.0,0.0,0.0,0.0,0.0,0.0,0.0,0.0,0.0,0.0,0.0,0.0,0.0,0.0,0.0,0.0,0.0,0.0,0.0,0.0,0.0,0.0,0.0,0.0,0.0,0.0,0.0,0.0,0.0,0.0,0.0,0.0,0.0,0.0,0.0,0.0,0.0,0.0,0.0,0.0,0.0,0.0,0.0,0.0,0.0,0.0,0.0,0.0,0.0,0.0,0.0,0.0,0.0,0.0,0.0,0.0,0.0,0.0,0.0,0.0,0.0,0.0,0.0,0.0,0.0,0.0,0.0,0.0,0.0,0.0,0.0,0.0,0.0,0.0,0.0,0.0,0.0,0.0,0.0,0.0,0.0,0.0,0.0,0.0,0.0,0.0,0.0,0.0,0.0,0.0,0.0,0.0,0.0,0.0,0.0,0.0,0.0,0.0,0.0,0.0,0.0,0.0,0.0,0.0,0.0,0.0,0.0,0.0,0.0,0.0,0.0,0.0,0.0,0.0,0.0,0.0,0.0,0.0,0.0,0.0,0.0,0.0,0.0,0.0,0.0,0.0,0.0,0.0,0.0,0.0,0.0,0.0,0.0,0.0,0.0,0.0,0.0,0.0,0.0,0.0,0.0,0.0,0.0,0.0,0.0,0.0,0.0,0.0,0.0,0.0,0.0,0.0,0.0,0.0,0.0,0.0,0.0,0.0,0.0,0.0,0.0,0.0,0.0,0.0,0.0,0.0,0.0,0.0,0.0,0.0,0.0,0.0,0.0,0.0,0.0,0.0,0.0,0.0,0.0,0.0,0.0,0.0,0.0,0.0,0.0,0.0,0.0,0.0,0.0,0.0,0.0,0.0,0.0,0.0,0.0,0.0,0.0,0.0,0.0,0.0,0.0,0.0,0.0,0.0,0.0,0.0,0.0,0.0,0.0,0.0,0.0,0.0,0.0,0.0,0.0,0.0,0.0,0.0,0.0,0.0,0.0,0.0,0.0,0.0,0.0,0.0,0.0,0.0,0.0,0.0,0.0,0.0,0.0,0.0,0.0,0.0,0.0,0.0,0.0,0.0,0.0,0.0,0.0,0.0,0.0,0.0,0.0,0.0,0.0,0.0,0.0,0.0,0.0,0.0,0.0,0.0,0.0,0.0,0.0,0.0,0.0,0.0,0.0,0.0,0.0,0.0,0.0,0.0,0.0,0.0,0.0,0.0,0.0,0.0,0.0,0.0,0.0,0.0,0.0,0.0,0.0,0.0,0.0,0.0,0.0,0.0,0.0,0.0,0.0,0.0,0.0,0.0,0.0,0.0,0.0,0.0,0.0,0.0,0.0,0.0,0.0,0.0,0.0,0.0,0.0,0.0,0.0,0.0,0.0,0.0,0.0,0.0,0.0,0.0,0.0,0.0,0.0,0.0,0.0,0.0,0.0,0.0,0.0,0.0,0.0,0.0,0.0,0.0,0.0,0.0,0.0,0.0,0.0,0.0,0.0,0.0,0.0,0.0,0.0,0.0,0.0,0.0,0.0,0.0,0.0,0.0,0.0,0.0,0.0,0.0,0.0,0.0,0.0,0.0,0.0,0.0,0.0,0.0,0.0,0.0,0.0,0.0,0.0,0.0,0.0,0.0,0.0,0.0,0.0,0.0,0.0,0.0,0.0,0.0,0.0,0.0,0.0,0.0,0.0,0.0,0.0,0.0,0.0,0.0,0.0,0.0,0.0,0.0,0.0,0.0,0.0,0.0,0.0,0.0,0.0,0.0,0.0,0.0,0.0,0.0,0.0,0.0,0.0,0.0,0.0,0.0,0.0,0.0,0.0,0.0,0.0,0.0,0.0,0.0,0.0,0.0,0.0,0.0,0.0,0.0,0.0,0.0,0.0,0.0,0.0,0.0,0.0,0.0,0.0,0.0,0.0,0.0,0.0,0.0,0.0,0.0,0.0,0.0,0.0,0.0,0.0,0.0,0.0,0.0,0.0,0.0,0.0,0.0,0.0,0.0,0.0,0.0,0.0,0.0,0.0,0.0,0.0,0.0,0.0,0.0,0.0,0.0,0.0,0.0,0.0,0.0,0.0,0.0,0.0,0.0,0.0,0.0,0.0,0.0,0.0,0.0,0.0,0.0,0.0,0.0,0.0,0.0,0.0,0.0,0.0,0.0,0.0,0.0,0.0,0.0,0.0,0.0,0.0,0.0,0.0,0.0,0.0,0.0,0.0,0.0,0.0,0.0,0.0,0.0,0.0,0.0,0.0,0.0,0.0,0.0,0.0,0.0,0.0,0.0,0.0,0.0,0.0,0.0,0.0,0.0,0.0,0.0,0.0,0.0,0.0,0.0,0.0,0.0,0.0,0.0,0.0,0.0,0.0,0.0,0.0,0.0,0.0,0.0,0.0,0.0,0.0,0.0,0.0,0.0,0.0,0.0,0.0,0.0,0.0,0.0,0.0,0.0,0.0,0.0,0.0,0.0,0.0,0.0,0.0,0.0,0.0,0.0,0.0,0.0,0.0,0.0,0.0,0.0,0.0,0.0,0.0,0.0,0.0,0.0,0.0,0.0,0.0,0.0,0.0,0.0,0.0,0.0,0.0,0.0,0.0,0.0,0.0,0.0,0.0,0.0,0.0,0.0,0.0,0.0,0.0,0.0,0.0,0.0,0.0,0.0,0.0,0.0,0.0,0.0,0.0,0.0,0.0,0.0,0.0,0.0,0.0,0.0,0.0,0.0,0.0,0.0,0.0,0.0,0.0,0.0,0.0,0.0,0.0,0.0,0.0,0.0,0.0,0.0,0.0,0.0,0.0,0.0,0.0,0.0,0.0,0.0,0.0,0.0,0.0,0.0,0.0,0.0,0.0,0.0,0.0,0.0,0.0,0.0,0.0,0.0,0.0,0.0,0.0,0.0,0.0,0.0,0.0,0.0,0.0,0.0,0.0,0.0,0.0,0.0,0.0,0.0,0.0,0.0,0.0,0.0,0.0,0.0,0.0,0.0,0.0,0.0,0.0,0.0,0.0,0.0,0.0,0.0,0.0,0.0,0.0,0.0,0.0,0.0,0.0,0.0,0.0,0.0,0.0,0.0,0.0,0.0,0.0,0.0,0.0,0.0,0.0,0.0,0.0,0.0,0.0,0.0,0.0,0.0,0.0,0.0,0.0,0.0,0.0,0.0,0.0,0.0,0.0,0.0,0.0,0.0,0.0,0.0,0.0,0.0,0.0,0.0,0.0,0.0,0.0,0.0,0.0,0.0,0.0,0.0,0.0,0.0,0.0,0.0,0.0,0.0,0.0,0.0,0.0,0.0,0.0,0.0,0.0,0.0,0.0,0.0,0.0,0.0,0.0,0.0,0.0,0.0,0.0,0.0,0.0,0.0,0.0,0.0,0.0,0.0,0.0,0.0,0.0,0.0,0.0,0.0,0.0,0.0,0.0,0.0,0.0,0.0,0.0,0.0,0.0,0.0,0.0,0.0,0.0,0.0,0.0,0.0,0.0,0.0,0.0,0.0,0.0,0.0,0.0,0.0,0.0,0.0,0.0,0.0,0.0,0.0,0.0,0.0,0.0,0.0,0.0,0.0,0.0,0.0,0.0,0.0,0.0,0.0,0.0,0.0,0.0,0.0,0.0,0.0,0.0,0.0,0.0,0.0,0.0,0.0,0.0,0.0,0.0,0.0,0.0,0.0,0.0,0.0,0.0,0.0,0.0,0.0,0.0,0.0,0.0,0.0,0.0,0.0,0.0,0.0,0.0,0.0,0.0,0.0,0.0,0.0,0.0,0.0,0.0,0.0,0.0,0.0,0.0,0.0,0.0,0.0,0.0,0.0,0.0,0.0,0.0,0.0,0.0,0.0,0.0,0.0,0.0,0.0,0.0,0.0,0.0,0.0,0.0,0.0,0.0,0.0,0.0,0.0,0.0,0.0,0.0,0.0,0.0,0.0,0.0,0.0,0.0,0.0,0.0,0.0,0.0,0.0,0.0,0.0,0.0,0.0,0.0,0.0,0.0,0.0,0.0,0.0,0.0,0.0,0.0,0.0,0.0,0.0,0.0,0.0,0.0,0.0,0.0,0.0,0.0,0.0,0.0,0.0,0.0,0.0,0.0,0.0,0.0,0.0,0.0,0.0,0.0,0.0,0.0,0.0,0.0,0.0,0.0,0.0,2.5402,0.0,0.0,0.0,0.0,0.0,0.0,0.0,0.0,0.0,0.0,0.0,0.0,0.0,0.0,0.0,0.0,0.0,0.0,0.0,0.0,0.0,0.0,0.0,0.0,0.0,0.0,0.0,0.0,0.0,0.0,0.0,0.0,0.0,0.0,0.0,0.0,0.0,0.0,0.0,0.0,0.0,0.0,0.0,0.0,0.0,0.0,0.0,0.0,0.0,0.0,0.0,0.0,0.0,0.0,0.0,0.0,0.0,0.0,0.0,0.0,0.0,0.0,0.0,0.0,0.0,0.0,0.0,0.0,0.0,0.0,0.0,0.0,0.0,0.0,0.0,0.0,0.0,0.0,0.0,0.0,0.0,0.0,0.0,0.0,0.0,0.0,0.0,0.0,0.0,0.0,0.0,0.0,0.0,0.0,0.0,0.0,0.0,0.0,0.0,0.0,0.0,0.0,0.0,0.0,0.0,0.0,0.0,0.0,0.0,0.0,2.7062,2.7014,2.6801,2.6068,2.48,0.0,0.0,0.0,0.0,0.0,0.0,0.0,0.0,0.0,0.0,0.0,0.0,0.0,0.0,0.0,0.0,0.0,0.0,0.0,0.0,0.0,0.0,0.0,0.0,0.0,0.0,0.0,0.0,0.0,0.0,0.0,0.0,0.0,0.0,0.0,0.0,0.0,0.0,0.0,0.0,0.0,0.0,0.0,0.0,0.0,0.0,0.0,0.0,0.0,0.0,0.0,0.0,0.0,0.0,0.0,0.0,0.0,0.0,0.0,0.0,0.0,0.0,0.0,0.0,0.0,0.0,0.0,0.0,0.0,0.0,0.0,0.0,0.0,0.0,0.0,0.0,0.0,0.0,0.0,0.0,0.0,0.0,0.0,0.0,0.0,0.0,0.0,0.0,0.0,0.0,0.0,0.0,0.0,0.0,0.0,0.0,0.0,0.0,0.0,0.0,0.0,0.0,0.0,0.0,0.0,0.0,0.0,0.0,0.0,0.0,0.0,0.0,2.6155,2.5475,2.4326,0.0,0.0,0.0,0.0,0.0,0.0,0.0,0.0,0.0,0.0,0.0,0.0,0.0,0.0,0.0,0.0,0.0,0.0,0.0,0.0,0.0,0.0,0.0,0.0,0.0,0.0,0.0,0.0,0.0,0.0,0.0,0.0,0.0,0.0,0.0,0.0,0.0,0.0,0.0,0.0,0.0,0.0,0.0,0.0,0.0,0.0,0.0,0.0,0.0,0.0,0.0,0.0,0.0,0.0,0.0,0.0,0.0,0.0,0.0,0.0,0.0,0.0,0.0,0.0,0.0,0.0,0.0,0.0,0.0,0.0,0.0,0.0,0.0,0.0,0.0,0.0,0.0,0.0,0.0,0.0,0.0,0.0,0.0,0.0,0.0,0.0,0.0,0.0,0.0,0.0,0.0,0.0,0.0,0.0,0.0,0.0,0.0,0.0,0.0,0.0,0.0,0.0,0.0,0.0,0.0,0.0,0.0,0.0,0.0,0.0,2.5294,2.5756,2.5726,0.0,2.4017,0.0,0.0,0.0,0.0,0.0,0.0,0.0,0.0,0.0,0.0,0.0,0.0,0.0,0.0,0.0,0.0,0.0,0.0,0.0,0.0,0.0,0.0,0.0,0.0,0.0,0.0,0.0,0.0,0.0,0.0,0.0,0.0,0.0,0.0,0.0,0.0,0.0,0.0,0.0,0.0,0.0,0.0,0.0,0.0,0.0,0.0,0.0,0.0,0.0,0.0,0.0,0.0,0.0,0.0,0.0,0.0,0.0,0.0,0.0,0.0,0.0,0.0,0.0,0.0,0.0,0.0,0.0,0.0,0.0,0.0,0.0,0.0,0.0,0.0,0.0,0.0,0.0,0.0,0.0,0.0,0.0,0.0,0.0,0.0,0.0,0.0,0.0,0.0,0.0,0.0,0.0,0.0,0.0,0.0,0.0,0.0,0.0,0.0,0.0,0.0,0.0,0.0,0.0,0.0,0.0,0.0,0.0,0.0,0.0,0.0,2.4,2.4193,2.3481,2.2872,0.0,0.0,0.0,0.0,0.0,0.0,0.0,0.0,0.0,0.0,0.0,0.0,0.0,0.0,0.0,0.0,0.0,0.0,0.0,0.0,0.0,0.0,0.0,0.0,0.0,0.0,0.0,0.0,0.0,0.0,0.0,0.0,0.0,0.0,0.0,0.0,0.0,0.0,0.0,0.0,0.0,0.0,0.0,0.0,0.0,0.0,0.0,0.0,0.0,0.0,0.0,0.0,0.0,0.0,0.0,0.0,0.0,0.0,0.0,0.0,0.0,0.0,0.0,0.0,0.0,0.0,0.0,0.0,0.0,0.0,0.0,0.0,0.0,0.0,0.0,0.0,0.0,0.0,0.0,0.0,0.0,0.0,0.0,0.0,0.0,0.0,0.0,0.0,0.0,0.0,0.0,0.0,0.0,0.0,0.0,0.0,0.0,0.0,0.0,0.0,0.0,0.0,0.0,0.0,0.0,0.0,0.0,0.0,0.0,0.0,2.2784,2.2745,2.268,2.1811,2.1171,2.0884,0.0,0.0,0.0,0.0,0.0,0.0,0.0,0.0,0.0,0.0,0.0,0.0,0.0,0.0,0.0,0.0,0.0,0.0,0.0,0.0,0.0,0.0,0.0,0.0,0.0,0.0,0.0,0.0,0.0,0.0,0.0,0.0,0.0,0.0,0.0,0.0,0.0,0.0,0.0,0.0,0.0,0.0,0.0,0.0,0.0,0.0,0.0,0.0,0.0,0.0,0.0,0.0,0.0,0.0,0.0,0.0,0.0,0.0,0.0,0.0,0.0,0.0,0.0,0.0,0.0,0.0,0.0,0.0,0.0,0.0,0.0,0.0,0.0,0.0,0.0,0.0,0.0,0.0,0.0,0.0,0.0,0.0,0.0,0.0,0.0,0.0,0.0,0.0,0.0,0.0,0.0,0.0,0.0,0.0,0.0,0.0,0.0,0.0,0.0,0.0,0.0,0.0,0.0,0.0,0.0,0.0,0.0,0.0,2.2431,2.1928,2.1642,2.1599,2.1382,2.0807,0.0,0.0,0.0,0.0,0.0,0.0,0.0,0.0,0.0,0.0,0.0,0.0,0.0,0.0,0.0,0.0,0.0,0.0,0.0,0.0,0.0,0.0,0.0,0.0,0.0,0.0,0.0,0.0,0.0,0.0,0.0,0.0,0.0,0.0,0.0,0.0,0.0,0.0,0.0,0.0,0.0,0.0,0.0,0.0,0.0,0.0,0.0,0.0,0.0,0.0,0.0,0.0,0.0,0.0,0.0,0.0,0.0,0.0,0.0,0.0,0.0,0.0,0.0,0.0,0.0,0.0,0.0,0.0,0.0,0.0,0.0,0.0,0.0,0.0,0.0,0.0,0.0,0.0,0.0,0.0,0.0,0.0,0.0,0.0,0.0,0.0,0.0,0.0,0.0,0.0,0.0,0.0,0.0,0.0,0.0,0.0,0.0,0.0,0.0,0.0,0.0,0.0,0.0,0.0,0.0,0.0,0.0,0.0,0.0,1.9702,1.9521,1.9884,2.0723,1.9234,1.8437,0.0,0.0,0.0,0.0,0.0,0.0,0.0,0.0,0.0,0.0,0.0,0.0,0.0,0.0,0.0,0.0,0.0,0.0,0.0,0.0,0.0,0.0,0.0,0.0,0.0,0.0,0.0,0.0,0.0,0.0,0.0,0.0,0.0,0.0,0.0,0.0,0.0,0.0,0.0,0.0,0.0,0.0,0.0,0.0,0.0,0.0,0.0,0.0,0.0,0.0,0.0,0.0,0.0,0.0,0.0,0.0,0.0,0.0,0.0,0.0,0.0,0.0,0.0,0.0,0.0,0.0,0.0,0.0,0.0,0.0,0.0,0.0,0.0,0.0,0.0,0.0,0.0,0.0,0.0,0.0,0.0,0.0,0.0,0.0,0.0,0.0,0.0,0.0,0.0,0.0,0.0,0.0,0.0,0.0,0.0,0.0,0.0,0.0,0.0,0.0,0.0,0.0,0.0,0.0,0.0,0.0,0.0,0.0,0.0,1.7849,0.0,1.8157,1.8748,1.7125,1.6479,0.0,0.0,0.0,0.0,0.0,0.0,0.0,0.0,0.0,0.0,0.0,0.0,0.0,0.0,0.0,0.0,0.0,0.0,0.0,0.0,0.0,0.0,0.0,0.0,0.0,0.0,0.0,0.0,0.0,0.0,0.0,0.0,0.0,0.0,0.0,0.0,0.0,0.0,0.0,0.0,0.0,0.0,0.0,0.0,0.0,0.0,0.0,0.0,0.0,0.0,0.0,0.0,0.0,0.0,0.0,0.0,0.0,0.0,0.0,0.0,0.0,0.0,0.0,0.0,0.0,0.0,0.0,0.0,0.0,0.0,0.0,0.0,0.0,0.0,0.0,0.0,0.0,0.0,0.0,0.0,0.0,0.0,0.0,0.0,0.0,0.0,0.0,0.0,0.0,0.0,0.0,0.0,0.0,0.0,0.0,0.0,0.0,0.0,0.0,0.0,0.0,0.0,0.0,0.0,0.0,0.0,0.0,0.0,1.7792,1.7215,1.7031,1.6603,1.5647,1.532,1.5059,0.0,0.0,0.0,0.0,0.0,0.0,0.0,0.0,0.0,0.0,0.0,0.0,0.0,0.0,0.0,0.0,0.0,0.0,0.0,0.0,0.0,0.0,0.0,0.0,0.0,0.0,0.0,0.0,0.0,0.0,0.0,0.0,0.0,0.0,0.0,0.0,0.0,0.0,0.0,0.0,0.0,0.0,0.0,0.0,0.0,0.0,0.0,0.0,0.0,0.0,0.0,0.0,0.0,0.0,0.0,0.0,0.0,0.0,0.0,0.0,0.0,0.0,0.0,0.0,0.0,0.0,0.0,0.0,0.0,0.0,0.0,0.0,0.0,0.0,0.0,0.0,0.0,0.0,0.0,0.0,0.0,0.0,0.0,0.0,0.0,0.0,0.0,0.0,0.0,0.0,0.0,0.0,0.0,0.0,0.0,0.0,0.0,0.0,0.0,0.0,0.0,0.0,0.0,0.0,0.0,0.0,0.0,0.0,0.0,1.6119,1.5689,1.5617,1.589,1.46,1.4207,0.0,0.0,0.0,0.0,0.0,0.0,0.0,0.0,0.0,0.0,0.0,0.0,0.0,0.0,0.0,0.0,0.0,0.0,0.0,0.0,0.0,0.0,0.0,0.0,0.0,0.0,0.0,0.0,0.0,0.0,0.0,0.0,0.0,0.0,0.0,0.0,0.0,0.0,0.0,0.0,0.0,0.0,0.0,0.0,0.0,0.0,0.0,0.0,0.0,0.0,0.0,0.0,0.0,0.0,0.0,0.0,0.0,0.0,0.0,0.0,0.0,0.0,0.0,0.0,0.0,0.0,0.0,0.0,0.0,0.0,0.0,0.0,0.0,0.0,0.0,0.0,0.0,0.0,0.0,0.0,0.0,0.0,0.0,0.0,0.0,0.0,0.0,0.0,0.0,0.0,0.0,0.0,0.0,0.0,0.0,0.0,0.0,0.0,0.0,0.0,0.0,0.0,0.0,0.0,0.0,0.0,0.0,0.0,0.0,1.5281,1.522,1.5239,1.5313,1.3917,1.353,1.4219,0.0,0.0,0.0,0.0,0.0,0.0,0.0,0.0,0.0,0.0,0.0,0.0,0.0,0.0,0.0,0.0,0.0,0.0,0.0,0.0,0.0,0.0,0.0,0.0,0.0,0.0,0.0,0.0,0.0,0.0,0.0,0.0,0.0,0.0,0.0,0.0,0.0,0.0,0.0,0.0,0.0,0.0,0.0,0.0,0.0,0.0,0.0,0.0,0.0,0.0,0.0,0.0,0.0,0.0,0.0,0.0,0.0,0.0,0.0,0.0,0.0,0.0,0.0,0.0,0.0,0.0,0.0,0.0,0.0,0.0,0.0,0.0,0.0,0.0,0.0,0.0,0.0,0.0,0.0,0.0,0.0,0.0,0.0,0.0,0.0,0.0,0.0,0.0,0.0,0.0,0.0,0.0,0.0,0.0,0.0,0.0,0.0,0.0,0.0,0.0,0.0,0.0,0.0,0.0,0.0,0.0,0.0,0.0,1.4597,1.5422,1.5251,1.4106,1.3289,1.2972,0.0,0.0,0.0,0.0,0.0,0.0,0.0,0.0,0.0,0.0,0.0,0.0,0.0,0.0,0.0,0.0,0.0,0.0,0.0,0.0,0.0,0.0,0.0,0.0,0.0,0.0,0.0,0.0,0.0,0.0,0.0,0.0,0.0,0.0,0.0,0.0,0.0,0.0,0.0,0.0,0.0,0.0,0.0,0.0,0.0,0.0,0.0,0.0,0.0,0.0,0.0,0.0,0.0,0.0,0.0,0.0,0.0,0.0,0.0,0.0,0.0,0.0,0.0,0.0,0.0,0.0,0.0,0.0,0.0,0.0,0.0,0.0,0.0,0.0,0.0,0.0,0.0,0.0,0.0,0.0,0.0,0.0,0.0,0.0,0.0,0.0,0.0,0.0,0.0,0.0,0.0,0.0,0.0,0.0,0.0,0.0,0.0,0.0,0.0,0.0,0.0,0.0,0.0,0.0,0.0,0.0,0.0,0.0,0.0,1.4312,1.4988,1.5091,1.4413,1.2901,1.2394,0.0,0.0,0.0,0.0,0.0,0.0,0.0,0.0,0.0,0.0,0.0,0.0,0.0,0.0,0.0,0.0,0.0,0.0,0.0,0.0,0.0,0.0,0.0,0.0,0.0,0.0,0.0,0.0,0.0,0.0,0.0,0.0,0.0,0.0,0.0,0.0,0.0,0.0,0.0,0.0,0.0,0.0,0.0,0.0,0.0,0.0,0.0,0.0,0.0,0.0,0.0,0.0,0.0,0.0,0.0,0.0,0.0,0.0,0.0,0.0,0.0,0.0,0.0,0.0,0.0,0.0,0.0,0.0,0.0,0.0,0.0,0.0,0.0,0.0,0.0,0.0,0.0,0.0,0.0,0.0,0.0,0.0,0.0,0.0,0.0,0.0,0.0,0.0,0.0,0.0,0.0,0.0,0.0,0.0,0.0,0.0,0.0,0.0,0.0,0.0,0.0,0.0,0.0,0.0,0.0,0.0,0.0,0.0,1.5271,1.4074,1.4674,1.4748,1.4228,1.3292,1.2713,0.0,0.0,0.0,0.0,0.0,0.0,0.0,0.0,0.0,0.0,0.0,0.0,0.0,0.0,0.0,0.0,0.0,0.0,0.0,0.0,0.0,0.0,0.0,0.0,0.0,0.0,0.0,0.0,0.0,0.0,0.0,0.0,0.0,0.0,0.0,0.0,0.0,0.0,0.0,0.0,0.0,0.0,0.0,0.0,0.0,0.0,0.0,0.0,0.0,0.0,0.0,0.0,0.0,0.0,0.0,0.0,0.0,0.0,0.0,0.0,0.0,0.0,0.0,0.0,0.0,0.0,0.0,0.0,0.0,0.0,0.0,0.0,0.0,0.0,0.0,0.0,0.0,0.0,0.0,0.0,0.0,0.0,0.0,0.0,0.0,0.0,0.0,0.0,0.0,0.0,0.0,0.0,0.0,0.0,0.0,0.0,0.0,0.0,0.0,0.0,0.0,0.0,0.0,0.0,0.0,0.0,0.0,0.0,1.4926,1.4055,1.4392,1.4279,1.3633,1.3749,1.3255,0.0,0.0,0.0,0.0,0.0,0.0,0.0,0.0,0.0,0.0,0.0,0.0,0.0,0.0,0.0,0.0,0.0,0.0,0.0,0.0,0.0,0.0,0.0,0.0,0.0,0.0,0.0,0.0,0.0,0.0,0.0,0.0,0.0,0.0,0.0,0.0,0.0,0.0,0.0,0.0,0.0,0.0,0.0,0.0,0.0,0.0,0.0,0.0,0.0,0.0,0.0,0.0,0.0,0.0,0.0,0.0,0.0,0.0,0.0,0.0,0.0,0.0,0.0,0.0,0.0,0.0,0.0,0.0,0.0,0.0,0.0,0.0,0.0,0.0,0.0,0.0,0.0,0.0,0.0,0.0,0.0,0.0,0.0,0.0,0.0,0.0,0.0,0.0,0.0,0.0,0.0,0.0,0.0,0.0,0.0,0.0,0.0,0.0,0.0,0.0,0.0,0.0,0.0,0.0,0.0,0.0,0.0,0.0,1.476,1.4167,1.4006,1.3603,1.2912,1.224,1.1929,0.0,0.0,0.0,0.0,0.0,0.0,0.0,0.0,0.0,0.0,0.0,0.0,0.0,0.0,0.0,0.0,0.0,0.0,0.0,0.0,0.0,0.0,0.0,0.0,0.0,0.0,0.0,0.0,0.0,0.0,0.0,0.0,0.0,0.0,0.0,0.0,0.0,0.0,0.0,0.0,0.0,0.0,0.0,0.0,0.0,0.0,0.0,0.0,1.9171,0.0,0.0,0.0,0.0,0.0,0.0,0.0,0.0,0.0,0.0,0.0,0.0,0.0,0.0,0.0,0.0,0.0,0.0,0.0,0.0,0.0,0.0,0.0,0.0,0.0,0.0,0.0,0.0,0.0,0.0,0.0,0.0,0.0,0.0,0.0,0.0,0.0,0.0,0.0,0.0,0.0,0.0,0.0,0.0,0.0,0.0,0.0,0.0,0.0,0.0,0.0,0.0,0.0,0.0,0.0,0.0,0.0,0.0,0.0,1.4629,1.4224,1.388,1.3392,1.2729,1.1978,1.1566,0.0,0.0,0.0,0.0,0.0,0.0,0.0,0.0,0.0,0.0,0.0,0.0,0.0,0.0,0.0,0.0,0.0,0.0,0.0,0.0,0.0,0.0,0.0,0.0,0.0,0.0,0.0,0.0,0.0,0.0,0.0,0.0,0.0,0.0,0.0,0.0,0.0,0.0,0.0,0.0,0.0,0.0,0.0,0.0,0.0,0.0,0.0,0.0,0.0,0.0,0.0,0.0,0.0,0.0,0.0,0.0,0.0,0.0,0.0,0.0,0.0,0.0,0.0,0.0,0.0,0.0,0.0,0.0,0.0,0.0,0.0,0.0,0.0,0.0,0.0,0.0,0.0,0.0,0.0,0.0,0.0,0.0,0.0,0.0,0.0,0.0,0.0,0.0,0.0,0.0,0.0,0.0,0.0,0.0,0.0,0.0,0.0,0.0,0.0,0.0,0.0,0.0,0.0,0.0,0.0,0.0,0.0,1.4471,1.4402,1.4253,1.3809,1.3264,1.2699,1.231,1.1787,1.1129,0.0,0.0,0.0,0.0,0.0,0.0,0.0,0.0,0.0,0.0,0.0,0.0,0.0,0.0,0.0,0.0,0.0,0.0,0.0,0.0,0.0,0.0,0.0,0.0,0.0,0.0,0.0,0.0,0.0,0.0,0.0,0.0,0.0,0.0,0.0,0.0,0.0,0.0,1.8106,1.802,0.0,0.0,0.0,0.0,0.0,0.0,0.0,0.0,1.7193,0.0,0.0,0.0,0.0,0.0,0.0,0.0,0.0,0.0,0.0,0.0,0.0,0.0,0.0,0.0,0.0,0.0,0.0,0.0,0.0,0.0,0.0,0.0,0.0,0.0,0.0,0.0,0.0,0.0,0.0,0.0,0.0,0.0,0.0,0.0,0.0,0.0,0.0,0.0,0.0,0.0,0.0,0.0,0.0,0.0,0.0,0.0,0.0,0.0,0.0,0.0,0.0,0.0,0.0,0.0,0.0,1.5035,1.3983,1.3817,1.4587,1.3438,1.2796,1.2699,1.2937,1.2435,1.1191,0.0,0.0,0.0,0.0,0.0,0.0,0.0,0.0,0.0,0.0,0.0,0.0,0.0,0.0,0.0,0.0,0.0,0.0,0.0,0.0,0.0,0.0,0.0,0.0,0.0,0.0,0.0,0.0,0.0,0.0,0.0,0.0,0.0,0.0,0.0,0.0,0.0,0.0,0.0,1.7385,1.7492,0.0,0.0,0.0,0.0,0.0,0.0,0.0,0.0,1.6085,0.0,0.0,0.0,0.0,0.0,0.0,0.0,0.0,0.0,0.0,0.0,0.0,0.0,0.0,0.0,0.0,0.0,0.0,0.0,0.0,0.0,0.0,0.0,0.0,0.0,0.0,0.0,0.0,0.0,0.0,0.0,0.0,0.0,0.0,0.0,0.0,0.0,0.0,0.0,0.0,0.0,0.0,0.0,0.0,0.0,0.0,0.0,0.0,0.0,0.0,0.0,0.0,0.0,0.0,0.0,1.4964,1.4336,1.4392,1.5157,1.3783,1.3163,1.3441,1.2895,1.2209,0.0,0.0,0.0,0.0,0.0,0.0,0.0,0.0,0.0,0.0,0.0,0.0,0.0,0.0,0.0,0.0,0.0,0.0,0.0,0.0,0.0,0.0,0.0,0.0,0.0,0.0,0.0,0.0,0.0,0.0,0.0,0.0,0.0,0.0,0.0,0.0,0.0,0.0,0.0,0.0,1.668,1.6705,1.6256,0.0,0.0,0.0,0.0,0.0,0.0,1.4996,1.4682,0.0,0.0,0.0,0.0,0.0,0.0,0.0,0.0,0.0,0.0,0.0,0.0,0.0,0.0,0.0,0.0,0.0,0.0,0.0,0.0,0.0,0.0,0.0,0.0,0.0,0.0,0.0,0.0,0.0,0.0,0.0,0.0,0.0,0.0,0.0,0.0,0.0,0.0,0.0,0.0,0.0,0.0,0.0,0.0,0.0,0.0,0.0,0.0,0.0,0.0,0.0,0.0,0.0,0.0,0.0,1.4991,1.4803,1.5003,1.555,1.4268,1.3669,1.4086,1.3045,1.2181,0.0,0.0,0.0,0.0,0.0,0.0,0.0,0.0,0.0,0.0,0.0,0.0,0.0,0.0,0.0,0.0,0.0,0.0,0.0,0.0,0.0,0.0,0.0,0.0,0.0,0.0,0.0,0.0,0.0,0.0,0.0,0.0,0.0,0.0,0.0,0.0,0.0,0.0,0.0,0.0,0.0,1.5884,1.5,1.4891,0.0,0.0,0.0,0.0,1.4438,1.4072,0.0,0.0,0.0,0.0,0.0,0.0,0.0,0.0,0.0,0.0,0.0,0.0,0.0,0.0,0.0,0.0,0.0,0.0,0.0,0.0,0.0,0.0,0.0,0.0,0.0,0.0,0.0,0.0,0.0,0.0,0.0,0.0,0.0,0.0,0.0,0.0,0.0,0.0,0.0,0.0,0.0,0.0,0.0,0.0,0.0,0.0,0.0,0.0,0.0,0.0,0.0,0.0,0.0,0.0,0.0,0.0,1.5384,1.4941,1.4981,1.5463,1.4617,1.3978,1.3794,1.4151,1.3525,0.0,0.0,0.0,0.0,0.0,0.0,0.0,0.0,0.0,0.0,0.0,0.0,0.0,0.0,0.0,0.0,0.0,0.0,0.0,0.0,0.0,0.0,0.0,0.0,0.0,0.0,0.0,0.0,0.0,0.0,0.0,0.0,0.0,0.0,0.0,0.0,0.0,0.0,0.0,0.0,0.0,1.5329,1.4601,1.4562,1.4565,0.0,0.0,1.4435,1.4842,1.4462,0.0,0.0,0.0,0.0,0.0,0.0,0.0,0.0,0.0,0.0,0.0,0.0,0.0,0.0,0.0,0.0,0.0,0.0,0.0,0.0,0.0,0.0,0.0,0.0,0.0,0.0,0.0,0.0,0.0,0.0,0.0,0.0,0.0,0.0,0.0,0.0,0.0,0.0,0.0,0.0,0.0,0.0,0.0,0.0,0.0,0.0,0.0,0.0,0.0,0.0,0.0,0.0,0.0,0.0,0.0,1.5006,1.5429,1.556,1.5809,1.6183,1.5351,1.4912,1.5002,1.4467,1.3654,0.0,0.0,0.0,0.0,0.0,0.0,0.0,0.0,0.0,0.0,0.0,0.0,0.0,0.0,0.0,0.0,0.0,0.0,0.0,0.0,0.0,0.0,0.0,0.0,0.0,0.0,0.0,0.0,0.0,0.0,0.0,0.0,0.0,0.0,0.0,0.0,0.0,0.0,0.0,0.0,0.0,0.0,1.4429,1.4083,0.0,0.0,0.0,1.2712,1.2917,0.0,0.0,0.0,0.0,0.0,0.0,0.0,0.0,0.0,0.0,0.0,0.0,0.0,0.0,0.0,0.0,0.0,0.0,0.0,0.0,0.0,0.0,0.0,0.0,0.0,0.0,0.0,0.0,0.0,0.0,0.0,0.0,0.0,0.0,0.0,0.0,0.0,0.0,0.0,0.0,0.0,0.0,0.0,0.0,0.0,0.0,0.0,0.0,0.0,0.0,0.0,0.0,0.0,0.0,0.0,0.0,0.0,1.5545,1.628,1.6694,1.6747,1.603,1.5736,1.5909,1.486,0.0,0.0,0.0,0.0,0.0,0.0,0.0,0.0,0.0,0.0,0.0,0.0,0.0,0.0,0.0,0.0,0.0,0.0,0.0,0.0,0.0,0.0,0.0,0.0,0.0,0.0,0.0,1.5316,0.0,0.0,0.0,0.0,0.0,0.0,0.0,0.0,0.0,0.0,0.0,0.0,0.0,0.0,1.4267,1.3998,1.3665,1.3315,0.0,0.0,1.1558,1.136,1.0958,1.0493,0.0,0.0,0.0,0.0,0.0,0.0,0.0,0.0,0.0,0.0,0.0,0.0,0.0,0.0,0.0,0.0,0.0,0.0,0.0,0.0,0.0,0.0,0.0,0.0,0.0,0.0,0.0,0.0,0.0,0.0,0.0,0.0,0.0,0.0,0.0,0.0,0.0,0.0,0.0,0.0,0.0,0.0,0.0,0.0,0.0,0.0,0.0,0.0,0.0,0.0,0.0,0.0,0.0,0.0,1.6266,1.6017,1.7057,1.7297,1.6644,1.639,1.6129,1.5822,1.5719,1.5085,0.0,0.0,0.0,0.0,0.0,0.0,0.0,0.0,0.0,0.0,0.0,0.0,0.0,0.0,0.0,0.0,0.0,0.0,0.0,0.0,0.0,0.0,0.0,0.0,0.0,0.0,0.0,0.0,0.0,0.0,0.0,0.0,0.0,0.0,0.0,0.0,0.0,0.0,0.0,0.0,0.0,1.3302,1.3105,1.3541,1.3697,0.0,1.2672,1.1981,1.122,1.1078,1.0568,0.914,0.0,0.0,0.0,0.0,0.0,0.0,0.0,0.0,0.0,0.0,0.0,0.0,0.0,0.0,0.0,0.0,0.0,0.0,0.0,0.0,0.0,0.0,0.0,0.0,0.0,0.0,0.0,0.0,0.0,0.0,0.0,0.0,0.0,0.0,0.0,0.0,0.0,0.0,0.0,0.0,0.0,0.0,0.0,0.0,0.0,0.0,0.0,0.0,0.0,0.0,0.0,0.0,0.0,1.6578,1.6741,1.7726,1.805,1.7773,1.7685,1.754,1.7285,1.6887,1.6278,0.0,0.0,0.0,0.0,0.0,0.0,0.0,0.0,0.0,0.0,0.0,0.0,0.0,0.0,0.0,0.0,0.0,0.0,0.0,0.0,0.0,0.0,0.0,0.0,0.0,0.0,0.0,0.0,1.5517,1.5428,1.4811,0.0,0.0,0.0,0.0,0.0,0.0,0.0,0.0,0.0,0.0,1.3461,1.323,1.3152,0.0,0.0,1.1627,1.0797,0.9888,0.9488,0.907,0.8301,0.8319,0.0,0.0,0.0,0.0,0.0,0.0,0.0,0.0,0.0,0.0,0.0,0.0,0.0,0.0,0.0,0.0,0.0,0.0,0.0,0.0,0.0,0.0,0.0,0.0,0.0,0.0,0.0,0.0,0.0,0.0,0.0,0.0,0.0,0.0,0.0,0.0,0.0,0.0,0.0,0.0,0.0,0.0,0.0,0.0,0.0,0.0,0.0,0.0,0.0,0.0,0.0,0.0,1.6875,1.7212,1.823,1.8677,1.8509,1.8509,1.8442,1.8307,1.7704,1.7142,0.0,0.0,0.0,0.0,0.0,0.0,0.0,0.0,0.0,0.0,0.0,0.0,0.0,0.0,0.0,0.0,0.0,0.0,0.0,0.0,0.0,0.0,0.0,0.0,0.0,0.0,0.0,0.0,1.5194,1.503,1.4463,0.0,0.0,0.0,0.0,0.0,0.0,0.0,0.0,0.0,0.0,1.348,1.3299,1.2858,1.2294,1.1785,1.09,0.9923,0.895,0.836,0.794,0.7634,0.0,0.0,0.0,0.0,0.0,0.0,0.0,0.0,0.0,0.0,0.0,0.0,0.0,0.0,0.0,0.0,0.0,0.0,0.0,0.0,0.0,0.0,0.0,0.0,0.0,0.0,0.0,2.588,0.0,0.0,2.4982,0.0,0.0,0.0,0.0,0.0,0.0,0.0,0.0,0.0,0.0,0.0,0.0,0.0,0.0,0.0,0.0,0.0,0.0,0.0,0.0,0.0,0.0,1.7254,1.7212,1.8568,1.9023,1.8543,1.8509,1.8543,1.8523,1.8054,1.758,1.7181,0.0,0.0,0.0,0.0,0.0,0.0,0.0,0.0,0.0,0.0,0.0,0.0,0.0,0.0,0.0,0.0,0.0,0.0,0.0,0.0,0.0,0.0,0.0,0.0,0.0,0.0,1.4581,1.3987,1.3879,0.0,0.0,0.0,0.0,0.0,0.0,0.0,0.0,0.0,0.0,1.355,1.3237,1.3298,1.2738,1.2193,1.1777,1.0766,0.9701,0.8794,0.8139,0.7558,0.0,0.0,0.0,0.0,0.0,0.0,0.0,0.0,0.0,0.0,0.0,0.0,0.0,0.0,0.0,0.0,0.0,0.0,0.0,0.0,0.0,0.0,0.0,0.0,0.0,0.0,0.0,2.7395,2.6993,0.0,0.0,0.0,0.0,0.0,0.0,0.0,0.0,0.0,0.0,0.0,2.5021,2.4885,0.0,0.0,0.0,0.0,0.0,0.0,0.0,0.0,0.0,0.0,0.0,0.0,1.7823,1.8321,1.8996,1.9437,1.954,1.9561,1.9561,1.9561,1.9115,1.8227,1.6896,0.0,0.0,0.0,0.0,0.0,0.0,0.0,0.0,0.0,0.0,0.0,0.0,0.0,0.0,0.0,0.0,0.0,0.0,0.0,0.0,0.0,0.0,0.0,0.0,0.0,1.5116,0.0,0.0,0.0,0.0,0.0,0.0,0.0,0.0,0.0,0.0,0.0,1.4807,1.427,1.4102,1.3844,1.319,1.2933,1.2595,0.0,0.0,0.0,0.0,0.0,0.0,0.0,0.0,0.0,0.0,0.0,0.0,0.0,0.0,1.0074,1.0881,1.0934,1.0946,1.1215,0.0,0.0,0.0,0.0,0.0,0.0,0.0,0.0,0.0,0.0,0.0,0.0,0.0,0.0,2.9156,0.0,2.8478,0.0,0.0,0.0,0.0,0.0,0.0,0.0,0.0,2.7378,2.7443,2.7023,2.7004,2.6383,0.0,2.4605,2.3089,0.0,0.0,0.0,0.0,0.0,0.0,0.0,0.0,1.8278,1.9104,1.9527,1.9985,2.0442,2.0464,2.0496,2.0464,1.9881,1.8832,1.7194,1.6613,1.619,0.0,0.0,0.0,0.0,0.0,0.0,0.0,0.0,0.0,0.0,0.0,0.0,0.0,0.0,0.0,0.0,0.0,0.0,0.0,0.0,0.0,0.0,0.0,1.5679,0.0,0.0,0.0,0.0,0.0,0.0,0.0,0.0,0.0,1.48,1.5318,1.5462,1.4821,1.4602,1.4195,1.333,0.0,0.0,0.0,0.0,0.0,0.0,0.0,0.8667,0.8142,0.8033,0.7981,0.8007,0.809,0.8216,0.8502,0.0,0.0,0.9606,0.9796,0.9883,0.9981,0.9698,0.9486,0.963,0.9357,0.9059,0.0,0.0,0.0,0.0,0.0,0.0,0.0,0.0,3.1497,3.1192,0.0,3.0403,0.0,0.0,0.0,0.0,0.0,2.942,0.0,0.0,3.038,3.0161,2.9044,2.8849,2.8397,2.7645,2.6856,2.5846,2.4572,2.1693,0.0,0.0,0.0,0.0,0.0,0.0,1.8695,1.9644,2.0197,2.0703,2.1164,2.1219,2.1187,2.1132,2.0393,1.9366,1.818,1.8312,1.8107,1.7408,1.7282,0.0,0.0,0.0,0.0,0.0,0.0,0.0,0.0,0.0,0.0,0.0,0.0,0.0,0.0,0.0,0.0,0.0,0.0,0.0,0.0,1.67,0.0,0.0,0.0,0.0,0.0,0.0,0.0,0.0,0.0,0.0,1.5691,1.5732,1.5677,1.5495,0.0,0.0,0.0,0.0,1.1855,1.1855,1.1279,1.0618,1.0002,0.9684,0.9217,0.8392,0.0,0.0,0.8267,0.8122,0.8045,0.7954,0.8005,0.8292,0.923,0.9305,0.9237,0.9075,0.886,0.8737,0.8762,0.8689,0.8604,3.6807,0.0,0.0,0.0,0.0,3.3366,3.3509,3.3913,3.3759,3.3416,3.2922,3.2242,0.0,0.0,0.0,0.0,0.0,0.0,3.0223,3.0607,3.0843,3.0976,3.1022,3.0881,3.0188,2.903,2.8537,2.7449,2.5758,2.4307,2.2509,2.0423,0.0,0.0,0.0,0.0,2.0646,2.0742,2.1219,2.1469,2.1572,2.1548,2.1391,2.1056,2.0862,2.0431,1.9746,1.9776,1.9528,1.8911,1.8521,0.0,0.0,0.0,0.0,0.0,0.0,0.0,0.0,0.0,0.0,0.0,0.0,0.0,0.0,0.0,0.0,0.0,0.0,0.0,1.6407,1.6644,1.6597,0.0,0.0,0.0,0.0,0.0,0.0,0.0,0.0,0.0,1.6174,1.6456,1.6365,0.0,0.0,1.493,1.3762,1.3076,1.2711,1.2711,1.2053,0.0,1.1264,1.0465,0.9742,0.9384,0.9061,0.8807,0.8676,0.8688,0.8646,0.8377,0.814,0.7962,0.7796,0.7868,0.7911,0.7852,0.7588,0.7384,0.747,0.7309,0.7019,3.9368,3.7528,3.5921,3.5492,3.5891,3.5646,3.5766,3.6183,3.5902,3.5587,3.5149,3.4178,3.3301,3.2539,3.1641,0.0,0.0,0.0,3.2013,3.2303,3.2303,3.2256,3.2158,3.2104,3.1496,3.0423,2.99,2.88,2.7172,2.6329,2.4751,2.2565,0.0,0.0,2.0833,2.1444,2.1794,2.1829,2.2124,2.2214,2.2097,2.2097,2.1922,2.1569,2.1793,2.168,2.1248,2.117,2.1031,2.0725,2.0035,1.9384,0.0,0.0,0.0,0.0,0.0,0.0,0.0,0.0,0.0,0.0,0.0,1.5976,1.5908,0.0,0.0,0.0,1.6645,1.7145,1.7701,1.7773,0.0,0.0,0.0,0.0,0.0,0.0,0.0,1.6356,1.6335,1.6385,1.6783,1.6988,1.6827,1.5933,1.5519,1.4948,1.4013,0.0,1.298,1.2917,1.2477,1.2058,1.1809,1.1202,1.0559,1.0066,0.9652,0.9396,0.93,0.9038,0.8813,0.8828,0.8366,0.7766,0.733,0.723,0.7131,0.6982,0.6705,0.6549,0.6667,0.6358,0.6028,4.1845,4.159,3.8831,3.8111,3.8804,3.8183,3.8185,3.8492,3.7923,3.7607,3.7478,3.6153,3.5288,3.4789,3.3739,0.0,3.383,3.4483,3.4588,3.4383,3.432,3.3751,3.2777,3.2687,3.2324,3.1736,3.099,2.9999,2.8821,2.7876,2.6547,2.4881,2.3554,2.2616,2.213,2.2181,2.2465,2.2902,2.2954,2.2925,2.2843,2.2786,2.2674,2.2502,2.2947,2.2997,2.2607,2.2524,2.258,2.2642,2.169,2.1042,2.0701,0.0,0.0,0.0,0.0,0.0,0.0,0.0,0.0,0.0,0.0,0.0,0.0,0.0,0.0,0.0,1.8281,0.0,1.9744,1.9423,0.0,0.0,0.0,1.6895,1.6665,1.6532,1.6369,1.6202,0.0,0.0,1.7344,1.732,1.6974,1.6297,1.5455,1.4701,1.4351,1.3523,1.2846,1.274,1.263,1.2398,1.1996,1.1809,1.1404,1.0523,1.018,1.0002,0.9895,0.9227,0.8881,0.9222,0.8561,0.7767,0.7459,0.722,0.6905,0.6322,0.621,0.62,0.6219,0.5955,0.5727,4.4041,4.3944,4.2655,4.1055,3.9346,3.9157,3.9156,3.925,3.9092,3.8744,3.8207,3.7354,3.6345,3.525,3.498,3.4886,3.5002,3.5159,3.5215,3.511,3.4541,3.4139,3.3869,3.337,3.2823,3.2244,3.1891,3.1104,2.9944,2.9015,2.809,2.7118,2.5978,2.4581,2.3017,2.3822,2.4117,2.3795,2.425,2.425,2.3766,2.3407,2.3184,2.3156,2.3704,2.3794,2.3372,2.3982,2.4,2.325,2.3283,2.2911,2.1941,2.0591,0.0,0.0,0.0,0.0,0.0,0.0,0.0,0.0,0.0,1.83,1.7813,0.0,1.815,0.0,1.8786,1.9092,1.9458,1.898,0.0,0.0,1.848,1.8005,1.7861,1.7733,1.7499,1.7076,1.6884,1.6793,1.6813,1.6691,1.6547,1.6366,1.6247,1.5732,1.4626,1.4021,1.358,1.317,1.2851,1.2567,1.2398,1.2058,1.1591,1.0919,1.0571,1.0285,0.998,0.9774,0.944,0.8908,0.8574,0.8128,0.7425,0.7067,0.6749,0.6321,0.62,0.62,0.62,0.6037,0.5782,4.5242,4.5177,4.4496,4.3105,4.1342,4.0864,4.0642,4.0547,4.0167,3.9787,3.9376,3.8397,3.7322,3.6342,3.634,3.6342,3.634,3.634,3.6153,3.5837,3.5426,3.4889,3.4288,3.3909,3.3401,3.2796,3.2683,3.204,3.0934,3.0347,2.9442,2.8195,2.7527,2.6436,2.5001,2.5053,2.4912,2.453,2.4584,2.4449,2.4123,2.3822,2.3684,2.3739,2.4273,2.4374,2.3853,2.4332,2.4202,2.3365,2.3285,2.2984,2.2332,2.1121,2.0336,0.0,0.0,0.0,0.0,0.0,0.0,0.0,0.0,0.0,0.0,0.0,1.9249,1.9845,1.9989,2.0266,2.0701,2.0144,1.9913,2.0191,1.9557,1.9077,1.898,1.8602,1.817,1.7728,1.734,1.706,1.692,1.6779,1.6666,1.6666,1.662,1.6197,1.5109,1.4403,1.3867,1.3464,1.2989,1.2691,1.2629,1.2352,1.1919,1.1294,1.0968,1.0763,1.0569,1.0118,0.9796,0.9721,0.9153,0.8481,0.7886,0.7383,0.6943,0.6541,0.6337,0.6282,0.62,0.6009,0.5673,4.6088,4.6023,4.5341,4.4691,4.4009,4.2848,4.2205,4.1948,4.1182,4.0801,4.061,3.928,3.8331,3.7698,3.7636,3.7605,3.751,3.751,3.7164,3.6535,3.644,3.571,3.4446,3.432,3.3941,3.3309,3.3309,3.2835,3.1898,3.1668,3.0698,2.9074,2.8655,2.8059,2.7314,2.6096,2.5384,2.5216,2.4641,2.4341,2.4341,2.4286,2.4232,2.4259,2.4638,2.4666,2.4123,2.4096,2.3852,2.3307,2.2819,2.252,2.2489,2.1397,2.0743,0.0,2.0211,0.0,0.0,0.0,0.0,0.0,0.0,0.0,0.0,1.9912,2.0261,2.1057,2.1458,2.1852,2.2376,2.193,2.1616,2.159,2.0759,2.0118,1.9937,1.9235,1.8629,1.8282,1.7897,1.7595,1.7423,1.7207,1.7095,1.6983,1.6772,1.6386,1.5691,1.4832,1.4088,1.3631,1.3133,1.2736,1.2613,1.2551,1.2225,1.1555,1.1255,1.124,1.1122,1.0377,0.9993,1.0595,0.9727,0.8779,0.8503,0.7863,0.7304,0.6775,0.6517,0.6364,0.62,0.5982,0.5618,4.7572,4.7539,4.6781,4.6353,4.5994,4.4459,4.3294,4.2459,4.2299,4.1818,4.1115,4.0159,3.9302,3.8545,3.8394,3.8017,3.751,3.751,3.7447,3.7259,3.669,3.5995,3.5173,3.4573,3.3941,3.334,3.3309,3.3193,3.2982,3.2415,3.1903,3.142,2.994,2.8997,2.8591,0.0,0.0,0.0,2.5926,2.5656,2.5548,2.5163,2.494,2.4829,2.4448,0.0,2.4096,2.4096,2.3986,2.3775,2.3844,0.0,0.0,0.0,0.0,0.0,0.0,0.0,0.0,0.0,0.0,0.0,2.2208,2.1736,2.1097,2.1805,2.2374,2.2431,2.2406,2.2432,2.2564,2.2377,2.2218,2.2218,2.1642,2.1069,2.0702,2.0035,1.9448,1.903,1.8685,1.8336,1.8007,1.7738,1.7429,1.7117,1.6864,1.6722,1.6552,1.57,1.4854,1.407,1.3376,1.2797,1.2629,1.2374,1.2182,1.1817,1.1378,1.0985,1.069,1.0536,1.0034,0.987,0.9498,0.9123,0.8378,0.7895,0.7502,0.6825,0.6544,0.6354,0.6228,0.6146,0.6037,4.8671,4.8668,4.8298,4.7897,0.0,4.6602,4.5511,4.4268,4.3088,4.2166,4.1426,4.0978,4.0309,3.9516,3.8984,3.8513,3.8136,3.7698,3.751,3.751,3.7101,3.6564,3.5868,3.5173,3.4478,3.3783,3.3467,3.3309,3.3277,3.2929,3.2588,3.2157,3.0917,3.0055,2.9589,2.8609,2.77,2.6912,2.6625,2.6469,2.639,2.6095,2.5906,2.5851,2.5542,0.0,0.0,0.0,0.0,0.0,0.0,0.0,0.0,0.0,0.0,2.3497,2.3178,2.2987,2.2994,2.3074,2.3421,2.3897,2.4177,2.3744,2.2487,2.2771,2.3124,2.3339,2.3231,2.3228,2.341,2.3143,2.2902,2.2794,2.2269,2.1746,2.1249,2.0704,2.0112,1.9576,1.9162,1.8917,1.8932,1.8598,1.8316,1.8008,1.7612,1.7291,1.6906,1.6247,1.5468,1.4706,1.4142,1.3575,1.3182,1.2894,1.2373,1.1877,1.1354,1.1026,1.0736,1.0588,1.0389,1.0095,0.9888,0.9496,0.9079,0.8633,0.8131,0.753,0.7208,0.6896,0.6544,0.6337,0.6119,4.9402,4.9402,4.9402,4.9061,4.8475,4.8338,4.7449,4.5964,0.0,0.0,0.0,4.2076,4.1624,4.0759,3.9997,3.9462,3.906,3.8248,3.7812,3.7626,3.7569,3.713,3.6377,3.571,3.5015,3.4257,3.3625,3.3309,3.3309,3.3309,3.3024,3.2449,3.176,3.1002,3.018,2.936,2.8432,2.7495,2.7221,2.7093,2.7067,2.6886,2.6782,2.6782,2.6614,2.6323,2.585,2.5824,2.5296,2.4282,2.4241,2.4241,2.4195,2.4218,2.4476,2.4974,2.5105,2.5153,2.5153,2.5198,2.5243,2.5282,2.5779,2.5481,2.4018,2.376,2.3823,2.4259,2.4148,2.4143,2.4397,2.3995,2.3619,2.3424,2.2926,2.2376,2.1877,2.143,2.096,2.0345,2.0032,1.9865,2.0092,1.9805,1.947,1.9272,1.8783,1.8038,1.7288,1.656,1.5874,1.5381,1.4923,1.448,1.387,1.3546,1.2961,1.1977,1.1587,1.1308,1.109,1.0843,1.0753,1.0788,1.0342,0.9955,0.9795,0.9392,0.8895,0.8343,0.8037,0.7676,0.7058,0.6652,0.63,4.9402,4.9402,4.9402,4.9334,4.9197,4.8577,4.7449,4.6054,4.5014,4.4439,4.426,4.4086,4.3507,4.2691,4.2337,4.1465,4.0222,3.9649,3.8951,3.8169,3.786,3.7218,3.6377,3.571,3.5015,3.4288,3.3593,3.3309,3.3309,3.3309,3.3245,3.3087,3.2481,3.1469,3.0236,2.9461,2.899,2.8826,2.8222,2.7879,2.775,2.7272,2.7041,2.7038,2.636,2.5937,2.5975,2.59,2.5673,2.5371,2.556,2.5594,2.5371,2.5458,2.5511,2.5531,2.594,2.6168,2.6123,2.6307,2.6564,2.6798,2.7069,2.6731,2.5615,2.5917,2.6052,2.5819,2.5493,2.5218,2.4963,2.4656,2.4376,2.4149,2.3672,2.3247,2.2951,2.2476,2.2109,2.1926,2.1978,2.1709,2.1428,2.1231,2.0927,2.0625,1.9865,1.9089,1.8038,1.6899,1.6104,1.5816,1.542,1.4898,1.4346,1.3885,1.3466,1.2787,1.231,1.1944,1.1591,1.1344,1.1124,1.0817,1.0579,1.029,0.9925,0.9666,0.9313,0.8843,0.8593,0.8276,0.7691,0.7396,0.702,5.0228,5.0194,5.0228,5.0228,5.0159,4.9389,4.8695,4.7931,4.6786,4.5707,4.4845,4.4701,4.4415,4.3938,4.3367,4.269,4.1875,4.0696,3.9886,3.9473,3.8841,3.8321,3.7876,3.7189,3.6474,3.576,3.5078,3.4533,3.4151,3.3949,3.3797,3.3688,3.2793,3.1596,3.0267,2.9864,2.9516,2.9091,2.8732,2.8487,2.8439,2.818,2.8002,2.8027,2.7601,2.7455,2.7528,2.7479,2.7218,2.6734,2.6822,2.6829,2.6734,2.6688,2.6848,2.7208,2.7457,2.7551,2.7457,2.7544,2.7649,2.7805,2.791,2.7788,2.7234,2.6894,2.6625,2.6441,2.6254,2.6122,2.5824,2.5715,2.5439,2.4936,2.4664,2.4199,2.3487,2.3193,2.285,2.2507,2.2401,2.2423,2.2515,2.226,2.198,2.1645,2.0692,1.9549,1.8723,1.7847,1.7123,1.6729,1.6389,1.5928,1.5318,1.4994,1.4413,1.342,1.2998,1.2595,1.2153,1.19,1.1626,1.1293,1.104,1.0761,1.0377,1.0198,0.9873,0.9484,0.9249,0.8909,0.8435,0.7892,0.7224,5.0908,5.0908,5.0908,5.0908,5.0838,5.0268,4.9881,4.96,4.8415,4.6995,4.5585,4.5291,4.5142,4.4966,4.4278,4.3829,4.3321,4.1984,4.109,4.0668,3.9894,3.9462,3.9176,3.8446,3.779,3.7194,3.6398,3.5669,3.5066,3.4603,3.4341,3.4153,3.319,3.2045,3.0895,3.068,3.0291,2.9666,2.9486,2.9258,2.8943,2.8858,2.8842,2.8865,2.8818,2.8818,2.8842,2.8818,2.8545,2.7992,2.7914,2.7914,2.7929,2.7798,2.7999,2.8559,2.8652,2.8573,2.846,2.8429,2.8436,2.8411,2.8411,2.8411,2.8339,2.761,2.7016,2.6938,2.6886,2.6811,2.6575,2.6522,2.631,2.5742,2.5632,2.5246,2.4339,2.4009,2.3738,2.3175,2.2931,2.3031,2.3261,2.3134,2.2799,2.2401,2.1194,2.0098,1.9475,1.8884,1.8278,1.781,1.7396,1.6817,1.6239,1.6024,1.5377,1.4175,1.3946,1.3595,1.31,1.2723,1.2351,1.1936,1.1626,1.1351,1.0989,1.0777,1.0506,1.0105,0.9873,0.9614,0.9053,0.8369,0.7492,5.0908,5.0908,5.0908,5.0908,5.0873,5.0803,5.0346,4.9741,4.9504,4.86,4.714,4.643,4.6065,4.603,4.58,4.5341,4.4689,4.4053,4.292,4.1512,4.0845,4.016,3.9454,3.8557,3.8081,3.7842,3.6738,3.6155,3.5932,3.5181,3.4778,3.4655,3.4027,3.3412,3.2876,3.2181,3.1621,3.1197,3.1082,3.0377,2.9154,2.8943,2.8943,2.9068,2.8881,2.8811,2.8897,2.8842,2.8763,2.8701,2.867,2.8701,2.8701,2.8677,2.8708,2.8771,2.8771,2.8723,2.8628,2.8597,2.8587,2.8436,2.8473,2.8473,2.8473,2.8345,2.8094,2.7796,2.759,2.7302,2.6886,2.6782,2.668,2.6443,2.639,2.6252,2.5901,2.5521,2.519,2.5135,2.447,2.4147,2.4149,2.4,2.3673,2.3121,2.2137,2.1174,2.0537,1.9693,1.9081,1.8709,1.8088,1.7307,1.6715,1.6433,1.6158,1.5627,1.5442,1.4953,1.4316,1.3836,1.3476,1.2717,1.2227,1.1999,1.1576,1.1293,1.1091,1.0795,1.0515,1.0249,0.964,0.9026,0.8237,5.1294,5.0908,5.0908,5.0908,5.0908,5.0908,5.0697,5.0373,4.9881,4.9328,4.8626,4.7467,4.6635,4.6214,4.6165,4.5965,4.5614,4.4913,4.4242,4.3405,4.228,4.1523,4.1106,4.0266,3.9637,3.917,3.8476,3.7976,3.743,3.6464,3.5579,3.4944,3.4565,3.4117,3.3571,3.3228,3.2774,3.2177,3.2131,3.1782,3.117,3.0177,2.969,2.9682,2.9242,2.8998,2.899,2.8998,2.8975,2.8951,2.8905,2.8905,2.8975,2.8865,2.8818,2.8858,2.8811,2.9005,2.9404,2.9363,2.9421,2.9676,2.9707,2.9657,2.9612,2.9587,2.948,2.9261,2.8545,2.7934,2.7815,2.7735,2.756,2.7199,2.7097,2.6941,2.6388,2.6203,2.6014,2.5877,2.5632,2.5273,2.4992,2.4622,2.4152,2.3484,2.2712,2.203,2.1353,2.0423,1.981,1.9553,1.903,1.8374,1.771,1.7472,1.714,1.659,1.6252,1.5873,1.5361,1.4779,1.425,1.358,1.3115,1.2638,1.2147,1.1931,1.1733,1.1484,1.1175,1.0795,0.9987,0.9536,0.8869,5.1575,5.0943,5.0908,5.0908,5.0908,5.0908,5.0908,5.0838,5.0268,4.9916,4.96,4.8486,4.7467,4.6565,4.6319,4.6214,4.6119,4.5544,4.5135,4.4854,4.3626,4.2857,4.2439,4.18,4.1036,4.0319,3.9939,3.9375,3.8617,3.7535,3.6514,3.5744,3.536,3.4923,3.442,3.4297,3.3995,3.3405,3.3316,3.3261,3.3082,3.1895,3.1101,3.0876,3.0371,3.0083,3.0083,2.99,2.9758,2.9667,2.9444,2.9325,2.9335,2.9289,2.9375,2.9603,2.9598,2.9893,3.0632,3.0529,3.0525,3.0829,3.0791,3.069,3.067,3.0541,3.0516,3.0494,2.9595,2.891,2.8688,2.8842,2.8583,2.7896,2.7906,2.7739,2.7126,2.689,2.6733,2.657,2.6361,2.6147,2.5687,2.53,2.4857,2.4172,2.3554,2.2804,2.2114,2.125,2.0604,2.0322,2.0016,1.9475,1.8709,1.8367,1.799,1.7664,1.7269,1.6877,1.6306,1.5694,1.4987,1.4349,1.3824,1.331,1.2808,1.257,1.2307,1.2135,1.1783,1.1276,1.0617,1.0156,0.9769,5.1575,5.0943,5.0908,5.0908,5.0908,5.0908,5.0908,5.0908,5.0838,5.0443,4.9811,4.96,4.8757,4.7362,4.6635,4.6214,4.6179,4.6109,4.5758,4.5161,4.4819,4.3966,4.2614,4.2405,4.1905,4.1139,4.0456,3.9693,3.8841,3.8092,3.7577,3.7322,3.6603,3.6062,3.5698,3.5531,3.5307,3.4864,3.4715,3.4698,3.4631,3.3978,3.3282,3.2718,3.252,3.2354,3.2365,3.1835,3.1352,3.1022,3.0652,3.0312,3.0076,3.029,3.0735,3.134,3.1461,3.1715,3.2208,3.2043,3.1837,3.1638,3.1448,3.118,3.1498,3.1181,3.108,3.1198,3.0822,3.0232,2.9707,2.9878,2.9648,2.8646,2.8953,2.8934,2.8413,2.7831,2.7504,2.7382,2.6945,2.6522,2.6228,2.6174,2.5822,2.53,2.4749,2.4064,2.3096,2.2297,2.1633,2.1183,2.0848,2.0472,1.9291,1.9001,1.8975,1.8617,1.818,1.7993,1.7299,1.659,1.5794,1.5086,1.4536,1.4041,1.3501,1.3122,1.2788,1.2496,1.2098,1.1601,1.1359,1.0964,1.0559,5.2032,5.0908,5.0908,5.0908,5.0908,5.0908,5.0908,5.0908,5.0908,5.076,5.0382,4.9952,4.939,4.8802,4.7538,4.667,4.6249,4.6214,4.6039,4.5758,4.5277,4.4727,4.4167,4.3104,4.2428,4.2021,4.122,4.0386,3.9703,3.9333,3.8907,3.8278,3.7586,3.7098,3.6844,3.6311,3.5963,3.5854,3.5788,3.5754,3.5732,3.5538,3.5287,3.4959,3.346,3.2685,3.2685,3.242,3.2243,3.2111,3.1989,3.1857,3.1748,3.1857,3.2021,3.2254,3.2287,3.2597,3.3193,3.3211,3.3247,3.3484,3.3405,3.3243,3.3275,3.316,3.3079,3.3153,3.3005,3.2542,3.1794,3.1017,3.0233,2.9833,2.9889,2.9956,2.9679,2.9128,2.8697,2.8561,2.7829,2.7119,2.6964,2.6756,2.6414,2.6117,2.558,2.5076,2.4528,2.3543,2.2597,2.2226,2.1705,2.1019,2.0472,1.9888,1.9578,1.924,1.8929,1.8773,1.8306,1.7421,1.6636,1.6234,1.5611,1.4741,1.4235,1.3884,1.3508,1.3078,1.2662,1.232,1.227,1.1776,1.1361,5.2564,5.1464,5.1357,5.1357,5.1322,5.1047,5.0941,5.0941,5.0941,5.0941,5.087,5.0647,5.0399,5.0044,4.911,4.8021,4.698,4.6269,4.6066,4.6352,4.5551,4.5223,4.5117,4.4074,4.3185,4.2613,4.1752,4.1021,4.0545,4.0266,3.9817,3.922,3.8491,3.8087,3.7897,3.7404,3.7016,3.683,3.6719,3.6594,3.6353,3.6284,3.6284,3.6082,3.4691,3.3847,3.3881,3.3624,3.3446,3.3359,3.3223,3.3152,3.3152,3.3152,3.3253,3.3455,3.3511,3.3826,3.4454,3.4499,3.4587,3.4858,3.4783,3.4712,3.4688,3.4568,3.4511,3.4559,3.439,3.4039,3.3502,3.2428,3.1438,3.0876,3.0701,3.0628,3.0417,2.9986,2.9648,2.929,2.8672,2.8107,2.779,2.7454,2.7174,2.689,2.6426,2.6163,2.5557,2.4607,2.3582,2.3263,2.2488,2.1944,2.1575,2.1234,2.0622,2.0245,1.976,1.9579,1.9226,1.8314,1.7605,1.7291,1.6598,1.5659,1.5017,1.4651,1.4258,1.3836,1.3338,1.2953,1.2764,1.2545,1.2041,5.3155,5.2361,5.2299,5.2266,5.2111,5.1414,5.1085,5.1099,5.1026,5.0994,5.1138,5.1772,5.1522,5.1144,5.0715,5.0081,4.8365,4.6328,4.5917,4.6738,4.5928,4.562,4.5856,4.5384,4.4341,4.2949,4.2026,4.155,4.1403,4.0761,4.0298,4.0013,3.9351,3.9003,3.9003,3.8699,3.8322,3.7836,3.7599,3.7154,3.6422,3.6408,3.6408,3.6339,3.6138,3.6027,3.6104,3.5463,3.4974,3.4682,3.4357,3.4145,3.4203,3.4203,3.445,3.4974,3.5139,3.5539,3.6027,3.5851,3.5564,3.5554,3.5237,3.5201,3.5283,3.4995,3.4901,3.5111,3.4854,3.4478,3.4502,3.4202,3.3405,3.1688,3.1549,3.1415,3.0876,3.05,3.0171,2.9643,2.9265,2.9095,2.8602,2.8143,2.7838,2.7455,2.7295,2.6956,2.6159,2.537,2.466,2.4083,2.3374,2.2798,2.2724,2.2581,2.1908,2.1313,2.0746,2.0371,1.9964,1.9227,1.8405,1.7912,1.6773,1.5874,1.5467,1.5107,1.4926,1.4491,1.4003,1.3671,1.3532,1.3301,1.2606,5.4123,5.3408,5.3304,5.2931,5.2377,5.1488,5.1104,5.1062,5.0574,5.0633,5.1135,5.138,5.1357,5.1031,5.0597,4.9822,4.8598,4.6895,4.6493,4.7248,4.7018,4.6874,4.6888,4.6334,4.5366,4.4054,4.3045,4.2514,4.2249,4.1595,4.1143,4.0892,4.0263,3.987,3.9743,3.9238,3.8786,3.8647,3.8534,3.813,3.7415,3.7282,3.7053,3.6631,3.652,3.6423,3.6409,3.6118,3.5897,3.5757,3.569,3.5628,3.5594,3.5628,3.5732,3.5904,3.5973,3.6008,3.6215,3.6199,3.6114,3.6071,3.5963,3.5941,3.6006,3.5842,3.5776,3.5907,3.5732,3.5655,3.5588,3.5214,3.4424,3.3388,3.3294,3.3125,3.2685,3.2088,3.1197,3.0248,2.9679,2.931,2.8965,2.8521,2.7819,2.7561,2.749,2.7187,2.6886,2.6351,2.6147,2.5741,2.4752,2.3714,2.3596,2.3398,2.2861,2.2245,2.1694,2.1286,2.0826,2.0164,1.935,1.8423,1.7216,1.6433,1.6005,1.5622,1.5444,1.5288,1.4949,1.4698,1.4559,1.4082,1.3495,5.5607,5.4923,5.4822,5.4485,5.3876,5.2726,5.2029,5.174,5.0888,5.0668,5.0912,5.1165,5.1474,5.1621,5.1234,5.0737,5.0094,4.9105,4.8812,4.8663,4.7211,4.7134,4.7559,4.6839,4.6076,4.5228,4.4278,4.3829,4.3671,4.2924,4.2313,4.1874,4.1144,4.0734,4.0615,4.017,3.9861,3.9792,3.9673,3.9182,3.8461,3.8229,3.7978,3.7589,3.7179,3.7019,3.6964,3.6658,3.6402,3.6339,3.6284,3.6284,3.6284,3.6249,3.6284,3.6284,3.6284,3.6284,3.6284,3.6284,3.6284,3.6284,3.6284,3.6284,3.6284,3.6284,3.6284,3.6284,3.6199,3.6233,3.6148,3.5898,3.5419,3.4995,3.4454,3.4268,3.4038,3.3523,3.267,3.179,3.1191,3.0644,2.9943,2.9147,2.8234,2.8,2.7552,2.7292,2.7201,2.6842,2.671,2.6455,2.5734,2.4965,2.45,2.4104,2.3733,2.3155,2.2581,2.2258,2.189,2.1065,2.0243,1.9355,1.8267,1.7597,1.7139,1.6445,1.6064,1.5932,1.5848,1.5445,1.5175,1.5085,1.4586,5.7397,5.6725,5.6668,5.6499,5.6201,5.4727,5.3627,5.2878,5.1947,5.1166,5.081,5.115,5.1819,5.2489,5.2196,5.2104,5.2418,5.2085,5.151,5.0305,4.8052,4.6907,4.7846,4.7007,4.6408,4.6057,4.5582,4.5273,4.4955,4.4305,4.3698,4.3004,4.2152,4.1649,4.1537,4.1429,4.1058,4.0951,4.0791,4.0212,3.9385,3.9217,3.9126,3.9042,3.8412,3.8026,3.7977,3.7431,3.6774,3.6402,3.6326,3.6381,3.636,3.6305,3.6305,3.6305,3.6305,3.6284,3.6284,3.6284,3.6284,3.6284,3.6284,3.6284,3.6284,3.6284,3.6284,3.6284,3.6284,3.6284,3.6262,3.622,3.6101,3.5994,3.517,3.4655,3.4463,3.4349,3.3704,3.3279,3.3148,3.2588,3.1065,3.0195,2.9383,2.8768,2.7881,2.7381,2.7189,2.7005,2.6634,2.6413,2.6355,2.5852,2.5262,2.4777,2.4355,2.3859,2.3341,2.3076,2.2608,2.1784,2.1187,2.0301,1.9531,1.8876,1.8318,1.7707,1.7153,1.696,1.6651,1.6091,1.5822,1.5754,1.553,5.8428,5.7734,5.7641,5.723,5.6575,5.5473,5.4631,5.3769,5.235,5.1677,5.1357,5.0912,5.0933,5.114,5.1665,5.1591,5.1404,5.1723,5.1872,5.133,4.9365,4.7987,4.7808,4.7298,4.6615,4.6137,4.6149,4.5916,4.5256,4.5009,4.4755,4.4587,4.3139,4.2466,4.2356,4.1343,4.1034,4.1411,4.1391,4.1245,4.0989,4.0802,4.057,4.0108,3.9782,3.9601,3.9584,3.8829,3.7775,3.6699,3.6602,3.6602,3.6623,3.6547,3.6492,3.6506,3.6388,3.6305,3.6326,3.6346,3.6326,3.6284,3.6416,3.6284,3.6284,3.6318,3.6284,3.6284,3.6284,3.6339,3.6339,3.6284,3.6056,3.56,3.5448,3.5273,3.4921,3.4482,3.3935,3.329,3.2433,3.1757,3.121,3.0258,2.9416,2.9001,2.8355,2.762,2.7506,2.746,2.719,2.7153,2.7001,2.6518,2.5993,2.5468,2.4984,2.4483,2.4057,2.3782,2.3141,2.2286,2.1888,2.1377,2.0784,2.0126,1.9817,1.935,1.8843,1.8158,1.7529,1.7033,1.6611,1.6411,1.6148,5.9027,5.8596,5.8559,5.824,5.7697,5.6892,5.6124,5.5148,5.3576,5.2415,5.1794,5.09,5.0546,5.0584,5.0946,5.1116,5.1078,5.1456,5.1884,5.1993,5.048,4.9106,4.8062,4.7562,4.7181,4.6704,4.6599,4.6232,4.5773,4.548,4.5132,4.46,4.3777,4.3191,4.2749,4.2001,4.1514,4.181,4.1594,4.1323,4.1216,4.1433,4.1378,4.0999,4.0908,4.08,4.0384,3.986,3.8851,3.7529,3.7113,3.7113,3.7129,3.7055,3.7017,3.7017,3.6923,3.6869,3.6904,3.6884,3.6961,3.7079,3.7108,3.7193,3.7365,3.7442,3.7554,3.7361,3.7575,3.7457,3.6851,3.6525,3.6111,3.5814,3.5696,3.5403,3.4817,3.4321,3.3989,3.347,3.2859,3.2101,3.1888,3.0804,3.0154,2.9632,2.8915,2.8248,2.7769,2.7833,2.7748,2.7544,2.7492,2.7062,2.6587,2.6076,2.5612,2.5116,2.4803,2.4522,2.3842,2.3033,2.2824,2.2515,2.1959,2.1503,2.1183,2.0736,2.0082,1.9371,1.8666,1.8235,1.7953,1.7513,1.7187,5.9215,5.929,5.929,5.929,5.9102,5.8539,5.7582,5.6662,5.5255,5.3679,5.2268,5.1292,5.1088,5.0804,5.097,5.1087,5.1761,5.186,5.2326,5.2286,5.1366,4.9947,4.8648,4.7979,4.7541,4.7173,4.6768,4.6533,4.617,4.5663,4.5122,4.4649,4.4257,4.3732,4.3304,4.2869,4.2622,4.232,4.1818,4.1282,4.1058,4.1337,4.1502,4.1502,4.1756,4.1483,4.1065,4.0702,4.0017,3.8217,3.8022,3.8115,3.8079,3.8007,3.8025,3.8061,3.808,3.8044,3.8007,3.8097,3.8114,3.836,3.8502,3.8627,3.8741,3.9018,3.908,3.867,3.9489,3.8899,3.7819,3.6943,3.6464,3.6191,3.5714,3.5065,3.4421,3.4086,3.3992,3.3938,3.3751,3.3358,3.2846,3.2139,3.1358,3.0617,2.9844,2.921,2.8728,2.8531,2.8133,2.7489,2.7514,2.7561,2.7142,2.6677,2.6227,2.5784,2.5556,2.5208,2.4652,2.4081,2.3945,2.3637,2.3162,2.2795,2.2456,2.1942,2.1274,2.0748,2.0128,1.992,1.9749,1.9195,1.8776,5.8727,5.929,5.929,5.929,5.9253,5.9102,5.8239,5.6887,5.6512,5.4897,5.3261,5.2698,5.2193,5.1593,5.1523,5.1748,5.1898,5.2315,5.2986,5.2928,5.2139,5.111,4.9862,4.8701,4.7276,4.6685,4.7164,4.6829,4.6041,4.5999,4.6153,4.5775,4.4612,4.4246,4.4485,4.3407,4.2782,4.2684,4.2431,4.194,4.1397,4.1462,4.1594,4.163,4.2142,4.2432,4.2374,4.23,4.1804,4.0925,4.0165,3.9747,3.9766,3.9714,3.966,3.9642,3.9644,3.9626,3.9644,3.9626,3.9661,3.9641,3.9695,3.9855,3.9833,3.9904,3.9961,3.9847,3.9978,3.9582,3.8528,3.7707,3.7048,3.6552,3.6217,3.5793,3.4995,3.3942,3.3414,3.3149,3.2766,3.2229,3.211,3.1988,3.1591,3.1384,3.0934,3.0278,2.9793,2.9326,2.8743,2.8092,2.8059,2.8153,2.7727,2.7322,2.6916,2.6547,2.6274,2.6035,2.5454,2.5067,2.4891,2.4672,2.444,2.4071,2.3682,2.31,2.2424,2.2001,2.1621,2.1274,2.0949,2.0544,2.02,5.8351,5.8764,5.914,5.929,5.9215,5.8915,5.8239,5.7375,5.6587,5.5348,5.3921,5.3412,5.2682,5.1931,5.1893,5.1705,5.148,5.1759,5.1797,5.1518,5.1217,5.0917,5.0203,4.9187,4.8,4.6959,4.6978,4.6551,4.5917,4.5795,4.5749,4.5562,4.4845,4.4659,4.4755,4.3899,4.3297,4.2828,4.2478,4.2039,4.1704,4.1601,4.1586,4.1609,4.2017,4.224,4.2188,4.2188,4.198,4.1608,4.1267,4.1038,4.1001,4.0969,4.0899,4.0883,4.0866,4.0833,4.085,4.0816,4.0713,4.0544,4.0525,4.0329,4.033,4.033,4.0348,4.0257,4.0311,4.0252,3.9192,3.8133,3.7434,3.7076,3.6717,3.6304,3.5736,3.4605,3.3552,3.3236,3.2759,3.2286,3.1972,3.2014,3.182,3.1648,3.1629,3.1023,3.047,3.002,2.9609,2.911,2.8973,2.8767,2.834,2.7947,2.7675,2.7301,2.7013,2.6793,2.6386,2.6071,2.5834,2.5486,2.5144,2.5182,2.4805,2.4182,2.3741,2.3617,2.3251,2.2616,2.2074,2.1764,2.1396,5.7863,5.8164,5.884,5.9178,5.9178,5.8614,5.8164,5.7657,5.6569,5.5573,5.4446,5.3733,5.3353,5.2537,5.2306,5.1779,5.1465,5.1133,5.1217,5.1141,5.0953,5.0681,5.0078,4.9678,4.9309,4.8499,4.7604,4.6644,4.603,4.5552,4.5394,4.4714,4.4885,4.4922,4.4512,4.4401,4.4043,4.3341,4.2789,4.2126,4.1791,4.1696,4.1704,4.1935,4.1958,4.2166,4.2277,4.2277,4.2092,4.1943,4.198,4.198,4.1906,4.1646,4.1571,4.1594,4.163,4.1785,4.1844,4.1875,4.1841,4.1282,4.1405,4.1272,4.1068,4.1282,4.1353,4.1117,4.1109,4.0845,3.9829,3.8704,3.8068,3.7781,3.7327,3.6985,3.6722,3.5898,3.5084,3.4023,3.3723,3.337,3.2773,3.2528,3.2211,3.1964,3.1964,3.1773,3.1235,3.0855,3.0559,3.0262,3.0068,2.9619,2.9138,2.8917,2.8591,2.8234,2.7908,2.7566,2.7277,2.6825,2.6486,2.6104,2.5837,2.5801,2.5672,2.5174,2.4939,2.5106,2.4703,2.3873,2.3367,2.2971,2.2622,5.6794,5.8108,5.8221,5.8689,5.9215,5.914,5.8331,5.73,5.7429,5.6399,5.4631,5.4914,5.4721,5.4201,5.352,5.3324,5.3003,5.2441,5.2327,5.2357,5.1795,5.0919,5.0849,5.0241,5.0241,5.024,4.9032,4.756,4.6869,4.5948,4.5956,4.5439,4.4931,4.4789,4.5148,4.5222,4.4715,4.4034,4.3683,4.3108,4.2272,4.1922,4.2029,4.2381,4.2337,4.2679,4.3259,4.3466,4.3578,4.3578,4.3578,4.3503,4.3073,4.2196,4.1735,4.1906,4.2314,4.2612,4.2649,4.3169,4.3435,4.3484,4.323,4.3246,4.3135,4.3151,4.268,4.2585,4.1889,4.1302,4.1009,3.9706,3.8875,3.8676,3.8609,3.8404,3.827,3.776,3.6857,3.5647,3.5142,3.4601,3.3949,3.3403,3.3175,3.2929,3.2717,3.2491,3.2002,3.1876,3.1833,3.1547,3.1245,3.0638,2.9983,2.9849,2.9645,2.931,2.8948,2.8449,2.8089,2.7542,2.7093,2.6826,2.6398,2.6139,2.5997,2.5888,2.5783,2.5695,2.5357,2.501,2.4602,2.4214,2.4159,5.6958,5.7729,5.8289,5.8786,5.9089,5.9143,5.8461,5.7399,5.7248,5.6376,5.5314,5.52,5.5274,5.4947,5.4632,5.4306,5.3837,5.306,5.2933,5.2895,5.2005,5.137,5.1376,5.0638,5.0512,5.0453,4.9644,4.9297,4.9261,4.8861,4.7867,4.6977,4.6148,4.5694,4.5425,4.505,4.4855,4.4458,4.4331,4.4017,4.3119,4.2731,4.2548,4.2333,4.2365,4.2485,4.2746,4.2857,4.282,4.282,4.282,4.2857,4.2671,4.2396,4.2069,4.2716,4.3169,4.3392,4.3429,4.3801,4.3763,4.3392,4.3429,4.3132,4.2872,4.2597,4.2946,4.2634,4.2374,4.1534,4.1393,4.0674,4.0207,3.9762,3.9674,3.9452,3.9127,3.8862,3.8162,3.7217,3.6508,3.5758,3.5009,3.4566,3.4279,3.3956,3.3613,3.3235,3.2825,3.2795,3.288,3.2496,3.2174,3.1847,3.124,3.1016,3.0836,3.0469,3.0005,2.9502,2.9069,2.86,2.8135,2.774,2.7267,2.6962,2.6573,2.6556,2.6385,2.6228,2.5913,2.5662,2.5617,2.55,2.5291,5.7392,5.7468,5.8377,5.8855,5.897,5.8983,5.8639,5.7888,5.7135,5.6371,5.5505,5.5288,5.5237,5.5286,5.5296,5.5025,5.4311,5.3545,5.3238,5.313,5.2395,5.1836,5.1448,5.1053,5.0779,5.0937,5.073,5.0921,5.0935,5.0621,5.0,4.8884,4.7799,4.6934,4.6204,4.5528,4.4971,4.4821,4.4619,4.4554,4.4353,4.381,4.3103,4.2476,4.2374,4.2496,4.274,4.2735,4.2717,4.2707,4.2618,4.2492,4.2421,4.2356,4.2855,4.3766,4.3906,4.3794,4.3794,4.3949,4.3763,4.3392,4.3132,4.2723,4.25,4.2612,4.2352,4.2054,4.1906,4.1943,4.1928,4.1683,4.1237,4.0866,4.0591,4.042,3.9923,3.962,3.9458,3.8619,3.7755,3.701,3.6318,3.596,3.5736,3.5226,3.4877,3.4277,3.3918,3.3791,3.372,3.3342,3.3081,3.3,3.2652,3.2247,3.2041,3.1749,3.1189,3.064,3.0224,2.9809,2.9347,2.8945,2.8732,2.8425,2.7839,2.7138,2.6858,2.6657,2.6419,2.6263,2.6139,2.5997,2.5797,5.7787,5.7786,5.7902,5.8323,5.8948,5.9,5.8987,5.8744,5.7863,5.7188,5.6228,5.5606,5.542,5.5609,5.5884,5.5843,5.545,5.4776,5.4352,5.4293,5.3456,5.2724,5.2254,5.2086,5.1717,5.1622,5.1726,5.1722,5.1574,5.0914,5.0397,4.9866,4.9143,4.8304,4.7348,4.6525,4.6282,4.6107,4.5513,4.5159,4.5098,4.489,4.4633,4.436,4.4171,4.4016,4.3871,4.383,4.3895,4.4081,4.4045,4.412,4.4216,4.4182,4.4092,4.399,4.3595,4.3051,4.3327,4.3713,4.4017,4.3757,4.3794,4.3763,4.3534,4.3497,4.346,4.3689,4.3095,4.2701,4.2567,4.2106,4.1698,4.1549,4.1489,4.14,4.1066,4.0383,4.0234,3.9923,3.9046,3.8413,3.7741,3.7468,3.7182,3.6629,3.6085,3.549,3.5038,3.4889,3.4541,3.4179,3.389,3.3797,3.3463,3.318,3.3031,3.2841,3.2393,3.1766,3.1433,3.1052,3.0686,3.0334,3.012,2.9488,2.8579,2.7902,2.7435,2.7243,2.7249,2.6962,2.6641,2.6487,2.6349,5.9919,5.8753,5.8449,5.85,5.8798,5.8827,5.8577,5.8095,5.7738,5.711,5.6416,5.5972,5.5875,5.6003,5.6133,5.6141,5.6001,5.5634,5.5487,5.5365,5.4619,5.3945,5.3475,5.2701,5.219,5.2152,5.1796,5.1661,5.1597,5.1844,5.1725,5.0954,5.0189,4.9285,4.8488,4.7603,4.7275,4.7084,4.6817,4.6396,4.6042,4.5867,4.5633,4.5098,4.503,4.4998,4.4926,4.4838,4.485,4.4919,4.4875,4.4887,4.4896,4.4861,4.4838,4.4826,4.4915,4.4533,4.3936,4.4073,4.417,4.4177,4.4177,4.414,4.4162,4.4192,4.4192,4.414,4.3833,4.3625,4.358,4.3312,4.2813,4.2552,4.2416,4.206,4.1897,4.1438,4.0977,4.0717,4.0411,3.9774,3.9154,3.8711,3.822,3.7521,3.7091,3.6689,3.6228,3.596,3.5534,3.4981,3.4731,3.4568,3.4123,3.3753,3.3737,3.3579,3.3492,3.2962,3.266,3.2313,3.1905,3.1373,3.0844,3.0126,2.9293,2.8956,2.8786,2.8476,2.8162,2.7941,2.7685,2.7158,2.6993,6.2097,6.0567,5.9481,5.9026,5.9026,5.8824,5.8514,5.8141,5.7622,5.7079,5.666,5.6528,5.6528,5.6614,5.6807,5.704,5.6877,5.6606,5.6528,5.6172,5.5653,5.5203,5.4777,5.3824,5.3081,5.257,5.2229,5.1858,5.1904,5.2155,5.2067,5.1857,5.1174,5.0363,4.9506,4.872,4.8202,4.7809,4.777,4.7492,4.7098,4.7012,4.6627,4.6204,4.5944,4.5924,4.5844,4.5878,4.5878,4.601,4.5976,4.6042,4.6094,4.609,4.5998,4.6053,4.6275,4.6136,4.5443,4.5146,4.4711,4.4496,4.4421,4.449,4.4462,4.4458,4.4472,4.4476,4.4397,4.4346,4.4407,4.4332,4.4021,4.3646,4.3444,4.2973,4.2557,4.2336,4.2179,4.2032,4.1719,4.1191,4.0552,3.996,3.9256,3.8441,3.8042,3.7758,3.736,3.6912,3.6369,3.5788,3.5701,3.5501,3.5204,3.4771,3.4611,3.4339,3.4252,3.3979,3.3576,3.329,3.2949,3.2351,3.181,3.1755,3.1468,3.0814,3.0178,2.9763,2.9389,2.9168,2.8793,2.8208,2.7631,6.3821,6.3495,6.1058,6.0041,5.9925,5.9148,5.9202,5.9417,5.8115,5.7518,5.7324,5.7324,5.7147,5.7327,5.7698,5.8079,5.832,5.7661,5.728,5.6931,5.6567,5.6218,5.6017,5.5707,5.5002,5.3885,5.3289,5.2475,5.1707,5.1981,5.2013,5.1973,5.1713,5.1391,5.0679,4.9779,4.9131,4.8784,4.8629,4.8491,4.8268,4.8191,4.8042,4.788,4.7826,4.779,4.7611,4.7409,4.7394,4.7529,4.7377,4.7367,4.7395,4.7338,4.7241,4.7287,4.7545,4.7433,4.7018,4.6335,4.5691,4.5147,4.4972,4.5164,4.5266,4.501,4.4919,4.5062,4.5103,4.495,4.491,4.4805,4.4623,4.4511,4.4272,4.4184,4.3806,4.3589,4.3421,4.335,4.2925,4.2316,4.1853,4.1216,4.029,3.9438,3.8677,3.8404,3.7981,3.7546,3.7063,3.6668,3.663,3.6506,3.6395,3.6048,3.5502,3.5193,3.5045,3.4686,3.4241,3.4031,3.3918,3.3623,3.3164,3.3408,3.338,3.2365,3.149,3.0972,3.0543,3.0258,2.9829,2.9294,2.8609,6.476,6.4597,6.3114,6.1903,6.0815,5.9378,5.8997,5.9159,5.857,5.7987,5.7553,5.701,5.6731,5.6879,5.6964,5.7236,5.7183,5.6911,5.7067,5.7331,5.7169,5.7349,5.7412,5.7133,5.6536,5.5683,5.4946,5.4248,5.3621,5.2736,5.2722,5.2809,5.2167,5.137,5.082,5.0728,5.0248,5.0016,4.9823,4.9745,4.9243,4.9165,4.891,4.8369,4.8314,4.8243,4.8155,4.8137,4.8172,4.8265,4.827,4.8364,4.842,4.83,4.8274,4.8324,4.8623,4.8632,4.8154,4.7576,4.6964,4.68,4.6636,4.6544,4.6451,4.6571,4.6609,4.6511,4.6053,4.5846,4.5873,4.541,4.4973,4.4995,4.5055,4.5105,4.4936,4.4673,4.4433,4.4236,4.3759,4.3194,4.2791,4.24,4.1411,4.0403,3.9674,3.9053,3.8721,3.8398,3.804,3.7679,3.758,3.7318,3.7169,3.6733,3.6297,3.6074,3.5888,3.5467,3.507,3.4996,3.4872,3.4624,3.4253,3.4068,3.3795,3.3362,3.2803,3.222,3.1727,3.1232,3.0815,3.0305,2.9739,6.5576,6.5498,6.4721,6.3517,6.2041,6.0332,5.9587,5.9477,5.9011,5.8506,5.7923,5.7301,5.7029,5.7029,5.7107,5.7185,5.7256,5.7023,5.7185,5.7256,5.7359,5.7734,5.803,5.7984,5.7434,5.7031,5.6379,5.5525,5.4174,5.3857,5.3585,5.3151,5.2542,5.2056,5.1833,5.1462,5.1246,5.1014,5.0898,5.0743,5.0131,5.0078,4.9923,4.9327,4.9312,4.9305,4.9289,4.9312,4.9281,4.9297,4.9258,4.9189,4.9196,4.9165,4.9165,4.9359,4.9552,4.9707,4.9172,4.8369,4.7981,4.7713,4.778,4.7809,4.7904,4.7894,4.7713,4.7742,4.7232,4.6972,4.704,4.6638,4.6407,4.6599,4.6052,4.5975,4.5764,4.5475,4.5285,4.5074,4.4633,4.4375,4.4011,4.3628,4.2605,4.1748,4.121,4.0513,3.9962,3.9649,3.9349,3.8936,3.8623,3.8263,3.7877,3.7565,3.7291,3.7093,3.6832,3.6348,3.6025,3.5963,3.5591,3.5083,3.4736,3.4513,3.4167,3.3796,3.3618,3.3479,3.2931,3.2288,3.176,3.1301,3.0978,6.6431,6.6353,6.5537,6.4683,6.3789,6.2073,6.1381,6.114,5.9827,5.9088,5.905,5.8855,5.87,5.8661,5.8545,5.8467,5.8156,5.7729,5.7619,5.7573,5.7185,5.7146,5.7722,5.8143,5.7974,5.6906,5.6628,5.5968,5.4226,5.4259,5.4064,5.4019,5.3838,5.3455,5.3434,5.2651,5.1908,5.1287,5.128,5.1242,5.1073,5.0981,5.085,5.0572,5.0472,5.0387,5.0387,5.0387,5.0348,5.0387,5.0418,5.0418,5.0457,5.0488,5.0527,5.0604,5.0674,5.0743,5.0658,4.9258,4.8725,4.8654,4.8806,4.8715,4.8539,4.8508,4.8631,4.8797,4.8376,4.8284,4.8315,4.8199,4.7975,4.7719,4.7163,4.6885,4.6667,4.6535,4.6348,4.5984,4.5835,4.5688,4.5318,4.4839,4.3826,4.3063,4.2637,4.202,4.125,4.0919,4.0636,4.031,3.9872,3.9531,3.9146,3.8671,3.8335,3.8128,3.7856,3.7474,3.7129,3.6953,3.6433,3.569,3.5478,3.5488,3.4882,3.4253,3.4166,3.4065,3.3887,3.3366,3.28,3.2407,3.2198,6.6508,6.647,6.6159,6.5926,6.5421,6.3828,6.3129,6.2896,6.1963,6.1381,6.1225,6.0837,6.0137,5.9827,5.9555,5.9322,5.8739,5.8001,5.7735,5.8234,5.7496,5.7806,5.8273,5.8428,5.8389,5.8001,5.7806,5.7308,5.6408,5.556,5.5398,5.543,5.5113,5.4692,5.3875,5.324,5.2969,5.2813,5.2729,5.2535,5.1992,5.1869,5.1661,5.1196,5.1175,5.1167,5.1206,5.1245,5.1245,5.1245,5.1245,5.1206,5.1199,5.1191,5.1099,5.1014,5.1006,5.0898,5.0859,5.0241,5.0124,5.0055,4.99,4.99,5.0016,5.0055,5.0047,4.9861,4.9436,4.932,4.9235,4.8609,4.8323,4.8245,4.7929,4.7897,4.7813,4.7735,4.7534,4.6986,4.6636,4.6327,4.5965,4.5795,4.4969,4.4243,4.3761,4.2957,4.2179,4.2041,4.1836,4.1607,4.1254,4.0933,4.0525,4.0058,3.9619,3.934,3.913,3.8871,3.8504,3.8055,3.7472,3.684,3.6645,3.6486,3.5915,3.5359,3.4855,3.4574,3.4599,3.4303,3.3698,3.3574,3.3635,6.6508,6.6508,6.6508,6.6524,6.6312,6.5008,6.4294,6.3945,6.3401,6.3129,6.2934,6.2235,6.1575,6.0953,6.0332,5.9904,5.9166,5.8428,5.8117,5.8661,5.7962,5.7923,5.8156,5.8389,5.7923,5.7962,5.7813,5.7386,5.6796,5.6492,5.6214,5.6136,5.6291,5.5612,5.477,5.4368,5.3863,5.3637,5.3366,5.3242,5.2893,5.2725,5.2556,5.2239,5.2077,5.207,5.1992,5.1953,5.1922,5.1915,5.1915,5.1915,5.1908,5.1901,5.1886,5.1872,5.1903,5.1881,5.1927,5.1927,5.185,5.185,5.1355,5.0945,5.0898,5.0743,5.0743,5.0589,5.0318,5.0202,4.9939,4.9243,4.9204,4.9165,4.8933,4.8894,4.8778,4.8662,4.8275,4.7734,4.7424,4.6999,4.6689,4.6457,4.6097,4.5457,4.4853,4.4025,4.3283,4.3197,4.3025,4.2728,4.2479,4.215,4.1872,4.155,4.1063,4.0596,4.0339,4.0158,3.9565,3.9074,3.8495,3.8019,3.7806,3.7516,3.7112,3.6594,3.6131,3.5824,3.5747,3.5304,3.4588,3.4505,3.4594,6.6516,6.6516,6.6516,6.6567,6.6413,6.5627,6.4853,6.4146,6.4146,6.4146,6.4061,6.3245,6.274,6.2352,6.1031,6.0293,5.9982,5.9205,5.9011,5.87,5.8195,5.804,5.7813,5.7774,5.7573,5.7146,5.6919,5.6997,5.6408,5.633,5.633,5.6291,5.6291,5.6052,5.5696,5.5307,5.4725,5.4408,5.4252,5.4097,5.378,5.3689,5.3527,5.3288,5.3197,5.319,5.3183,5.3222,5.33,5.3332,5.3409,5.3487,5.3519,5.3557,5.3557,5.3511,5.3388,5.3303,5.3265,5.3187,5.3226,5.2901,5.2005,5.1308,5.1177,5.1339,5.1262,5.1138,5.0859,5.0821,5.0666,5.0627,5.055,5.0279,4.9977,4.9823,4.9629,4.932,4.8817,4.8469,4.8275,4.8005,4.7811,4.754,4.7122,4.6745,4.6113,4.5519,4.4831,4.4461,4.4222,4.3767,4.3527,4.334,4.3033,4.2694,4.2285,4.1706,4.1601,4.1327,4.0701,4.0243,3.9832,3.9431,3.8966,3.8508,3.7945,3.7651,3.7471,3.7185,3.6745,3.6293,3.5581,3.5184,3.5138,6.6657,6.6618,6.6618,6.6669,6.6602,6.6396,6.6088,6.5855,6.5867,6.5839,6.5732,6.4877,6.4076,6.3517,6.2468,6.1614,6.0875,6.0215,5.9827,5.9445,5.9024,5.8629,5.8273,5.7968,5.7541,5.7191,5.6958,5.6861,5.6498,5.6382,5.6349,5.6291,5.6335,5.6323,5.62,5.6026,5.5689,5.5455,5.5345,5.5048,5.4737,5.4608,5.4369,5.4052,5.3935,5.3929,5.389,5.3851,5.3851,5.378,5.3741,5.3702,5.3663,5.3683,5.3663,5.3596,5.355,5.355,5.3589,5.3628,5.3712,5.3836,5.3102,5.3003,5.267,5.2307,5.1951,5.1742,5.1502,5.1432,5.1316,5.127,5.1192,5.0968,5.065,5.0418,5.0264,5.0101,4.9637,4.9335,4.9141,4.8871,4.8716,4.8399,4.7981,4.778,4.7386,4.6767,4.6109,4.5645,4.5181,4.4678,4.4446,4.4214,4.3943,4.3595,4.3217,4.2862,4.2711,4.2556,4.2179,4.1694,4.1285,4.0806,4.0253,3.9477,3.8669,3.8523,3.8555,3.7921,3.7441,3.705,3.6637,3.6298,3.601,6.6712,6.6712,6.6712,6.6722,6.6741,6.675,6.6537,6.6262,6.6489,6.6614,6.6484,6.5628,6.4999,6.4429,6.33,6.2406,6.1939,6.1556,6.1244,6.1065,6.019,6.0022,5.9543,5.8681,5.8195,5.7826,5.7675,5.7637,5.7203,5.6933,5.6874,5.6879,5.6631,5.6393,5.6324,5.6299,5.629,5.6217,5.6175,5.5961,5.5715,5.5482,5.5126,5.4789,5.4672,5.4639,5.4639,5.4639,5.4672,5.4705,5.4737,5.4744,5.4776,5.4757,5.4744,5.4802,5.4802,5.484,5.4879,5.4802,5.4724,5.4646,5.4608,5.4657,5.4132,5.3606,5.3119,5.2717,5.2322,5.2005,5.185,5.1687,5.1617,5.1462,5.1223,5.0944,5.0898,5.089,5.0581,5.024,4.9969,4.9705,4.9434,4.9117,4.8871,4.867,4.8314,4.7773,4.696,4.6225,4.58,4.5374,4.522,4.5065,4.4755,4.4485,4.42,4.3923,4.3786,4.3578,4.3401,4.2995,4.2377,4.194,4.1509,4.08,4.0106,3.9746,3.9585,3.9023,3.8767,3.8638,3.8233,3.7489,3.7285,6.6722,6.6727,6.6722,6.6755,6.6787,6.6688,6.6216,6.5613,6.6117,6.6444,6.62,6.5499,6.4943,6.4348,6.3336,6.2679,6.2401,6.2284,6.2123,6.2668,6.1811,6.1284,6.0633,5.9892,5.9265,5.9021,5.873,5.8375,5.8499,5.8172,5.7765,5.7744,5.7185,5.694,5.7016,5.701,5.6965,5.6719,5.6654,5.6464,5.6281,5.6257,5.6317,5.6185,5.6113,5.6152,5.6191,5.6218,5.6323,5.629,5.6218,5.6119,5.6086,5.6047,5.608,5.608,5.5903,5.5903,5.5869,5.583,5.5975,5.6075,5.6278,5.5967,5.5294,5.4439,5.3822,5.3567,5.3211,5.2933,5.2739,5.2584,5.2429,5.2313,5.2119,5.1763,5.1477,5.1283,5.0889,5.0625,5.0593,5.0361,5.0322,5.0044,4.9843,4.9621,4.9149,4.8607,4.8065,4.7143,4.6588,4.6162,4.5729,4.5575,4.549,4.5258,4.5142,4.4949,4.4755,4.4562,4.4291,4.3866,4.3401,4.2851,4.23,4.2226,4.1756,4.1356,4.1051,4.0829,4.0616,4.0523,3.995,3.9031,3.8536,6.6775,6.6775,6.6772,6.6778,6.6709,6.6123,6.5811,6.5535,6.5022,6.4907,6.4574,6.3906,6.3521,6.3492,6.3063,6.2483,6.2054,6.2582,6.2352,6.2379,6.2161,6.2017,6.1591,6.09,6.0375,5.9809,5.9349,5.9119,5.9086,5.8858,5.8625,5.8624,5.8193,5.8115,5.8115,5.8111,5.7911,5.7443,5.7341,5.7076,5.6683,5.6453,5.6394,5.6383,5.6358,5.6351,5.6351,5.6358,5.6365,5.6371,5.6368,5.6371,5.6332,5.6365,5.6368,5.6368,5.639,5.6386,5.6386,5.6344,5.6379,5.6379,5.6363,5.6333,5.5896,5.51,5.4562,5.4386,5.4178,5.3906,5.3688,5.3494,5.3313,5.3197,5.3042,5.2524,5.2045,5.1643,5.1256,5.121,5.1217,5.1132,5.1094,5.097,5.0808,5.0421,4.9878,4.9413,4.9174,4.8476,4.7668,4.7112,4.6162,4.5923,4.6039,4.5962,4.5845,4.5691,4.5465,4.5304,4.511,4.4685,4.4189,4.3556,4.304,4.3021,4.2983,4.2853,4.2556,4.2233,4.1956,4.1644,4.1433,4.0703,4.0153,6.6798,6.6798,6.6798,6.6798,6.6719,6.6288,6.5936,6.5548,6.5056,6.4345,6.3647,6.3123,6.2914,6.2758,6.2485,6.2194,6.1774,6.2524,6.2618,6.251,6.2393,6.2436,6.2135,6.1671,6.1235,6.0618,6.039,6.0156,5.9917,5.9678,5.9599,5.9486,5.9371,5.9138,5.9099,5.9022,5.8867,5.8359,5.8281,5.7968,5.7342,5.6973,5.6467,5.6406,5.6411,5.6452,5.6409,5.6409,5.6409,5.6409,5.6404,5.6404,5.6402,5.6399,5.6404,5.6404,5.6404,5.6409,5.6413,5.6454,5.6456,5.6448,5.6436,5.6404,5.6322,5.5641,5.5592,5.5408,5.5372,5.5126,5.4947,5.4736,5.4436,5.4225,5.3797,5.3251,5.3011,5.2769,5.2574,5.2557,5.2318,5.1807,5.1645,5.1205,5.1075,5.0939,5.0441,5.0345,5.0074,4.9705,4.8929,4.8308,4.7481,4.702,4.7238,4.6967,4.651,4.6317,4.6215,4.588,4.5622,4.537,4.4976,4.455,4.4163,4.3892,4.3853,4.3776,4.344,4.2937,4.2789,4.2634,4.2419,4.2232,4.1783,6.6798,6.6798,6.6802,6.6805,6.6766,6.6653,6.6227,6.5606,6.5348,6.4491,6.3435,6.3227,6.3101,6.2553,6.2279,6.1944,6.1988,6.2573,6.2773,6.2617,6.2734,6.2499,6.2265,6.2031,6.1679,6.1481,6.1277,6.1291,6.1218,6.0825,6.0474,6.0382,5.995,5.945,5.9407,5.9414,5.9477,5.9297,5.9189,5.9104,5.8425,5.7656,5.7182,5.686,5.674,5.6662,5.6662,5.6582,5.6584,5.643,5.6475,5.6632,5.6593,5.6595,5.6437,5.6477,5.6439,5.6438,5.6473,5.6672,5.6591,5.6508,5.6501,5.6536,5.6536,5.6433,5.6375,5.6329,5.6264,5.6147,5.5948,5.5747,5.5399,5.5106,5.4562,5.4096,5.3943,5.3783,5.3696,5.3669,5.3236,5.2641,5.228,5.1802,5.1546,5.1399,5.127,5.1192,5.1011,5.0536,4.9959,4.9595,4.9162,4.885,4.8428,4.7918,4.7312,4.7248,4.7107,4.6584,4.6203,4.6184,4.6093,4.59,4.5512,4.497,4.4628,4.4479,4.411,4.3928,4.3606,4.3522,4.3385,4.3236,4.3203,6.6798,6.6798,6.6823,6.6829,6.6753,6.6094,6.5661,6.5427,6.4839,6.4211,6.4056,6.3862,6.3317,6.1951,6.2538,6.2497,6.2184,6.273,6.2339,6.1946,6.267,6.2427,6.2152,6.2191,6.2112,6.1833,6.1602,6.1569,6.1595,6.1396,6.1309,6.1236,6.1253,6.0984,6.1027,6.0917,6.062,6.0353,6.0041,5.9924,5.9315,5.8799,5.8689,5.8575,5.8568,5.8144,5.7757,5.7564,5.7135,5.6783,5.6708,5.7061,5.718,5.7103,5.6946,5.6949,5.6909,5.6909,5.7027,5.734,5.7341,5.6989,5.7069,5.7226,5.7108,5.6787,5.6729,5.6716,5.6656,5.6494,5.6321,5.6241,5.5983,5.5794,5.5407,5.5093,5.4847,5.4448,5.4123,5.4069,5.3907,5.3631,5.3511,5.3117,5.2763,5.2597,5.2317,5.2196,5.1758,5.1312,5.0982,5.0858,5.0691,4.9653,4.8768,4.8631,4.8212,4.8186,4.8038,4.7591,4.732,4.7185,4.7062,4.6907,4.6442,4.5899,4.5595,4.5679,4.5491,4.5303,4.4709,4.4432,4.4339,4.4201,4.4128]}]]